| time (UTC) | temp F | wind direction | speed knots | gust knots | rain 1hr in | rain 24hr in | rain mn in | humidity % | barometer mb |
| 20260831172703 | 94 | 354 | 2.6 | 7.8 | 0.00 | 0.00 | 0.00 | 31 | 1017.4 |
| 20260831172603 | 93 | 358 | 2.6 | 7.8 | 0.00 | 0.00 | 0.00 | 31 | 1017.4 |
| 20260831172503 | 93 | 1 | 2.6 | 7.8 | 0.00 | 0.00 | 0.00 | 31 | 1017.4 |
| 20260831172403 | 93 | 15 | 2.6 | 7.8 | 0.00 | 0.00 | 0.00 | 31 | 1017.4 |
| 20260831172306 | 93 | 17 | 2.6 | 7.8 | 0.00 | 0.00 | 0.00 | 30 | 1017.4 |
| 20260831172203 | 93 | 10 | 2.6 | 8.7 | 0.00 | 0.00 | 0.00 | 30 | 1017.4 |
| 20260831172103 | 93 | 11 | 2.6 | 8.7 | 0.00 | 0.00 | 0.00 | 30 | 1017.4 |
| 20260831172003 | 92 | 16 | 2.6 | 8.7 | 0.00 | 0.00 | 0.00 | 30 | 1017.5 |
| 20260831171904 | 92 | 16 | 3.5 | 8.7 | 0.00 | 0.00 | 0.00 | 30 | 1017.4 |
| 20260831171804 | 92 | 21 | 3.5 | 8.7 | 0.00 | 0.00 | 0.00 | 30 | 1017.5 |
| 20260831171725 | 92 | 21 | 3.5 | 8.7 | 0.00 | 0.00 | 0.00 | 30 | 1017.5 |
| 20260831171603 | 92 | 19 | 3.5 | 8.7 | 0.00 | 0.00 | 0.00 | 29 | 1017.5 |
| 20260831171504 | 92 | 19 | 4.3 | 8.7 | 0.00 | 0.00 | 0.00 | 29 | 1017.5 |
| 20260831171425 | 93 | 20 | 4.3 | 10.4 | 0.00 | 0.00 | 0.00 | 29 | 1017.6 |
| 20260831171304 | 93 | 20 | 4.3 | 10.4 | 0.00 | 0.00 | 0.00 | 29 | 1017.6 |
| 20260831171204 | 93 | 18 | 4.3 | 10.4 | 0.00 | 0.00 | 0.00 | 28 | 1017.6 |
| 20260831171125 | 93 | 19 | 4.3 | 10.4 | 0.00 | 0.00 | 0.00 | 28 | 1017.5 |
| 20260831171004 | 92 | 23 | 4.3 | 10.4 | 0.00 | 0.00 | 0.00 | 28 | 1017.5 |
| 20260831170904 | 92 | 27 | 4.3 | 10.4 | 0.00 | 0.00 | 0.00 | 28 | 1017.5 |
| 20260831170804 | 92 | 27 | 4.3 | 10.4 | 0.00 | 0.00 | 0.00 | 28 | 1017.6 |
| 20260831170703 | 92 | 33 | 4.3 | 10.4 | 0.00 | 0.00 | 0.00 | 28 | 1017.6 |
| 20260831170604 | 92 | 38 | 4.3 | 10.4 | 0.00 | 0.00 | 0.00 | 28 | 1017.6 |
| 20260831170525 | 92 | 36 | 3.5 | 10.4 | 0.00 | 0.00 | 0.00 | 28 | 1017.6 |
| 20260831170425 | 92 | 37 | 3.5 | 7.8 | 0.00 | 0.00 | 0.00 | 27 | 1017.6 |
| 20260831170303 | 92 | 26 | 3.5 | 7.8 | 0.00 | 0.00 | 0.00 | 27 | 1017.7 |
| 20260831170204 | 92 | 31 | 3.5 | 7.8 | 0.00 | 0.00 | 0.00 | 27 | 1017.6 |
| 20260831170104 | 92 | 33 | 3.5 | 7.8 | 0.00 | 0.00 | 0.00 | 27 | 1017.7 |
| 20260831170004 | 92 | 28 | 3.5 | 7.8 | 0.00 | 0.00 | 0.00 | 26 | 1017.8 |
| 20260831165904 | 92 | 20 | 3.5 | 7.8 | 0.00 | 0.00 | 0.00 | 26 | 1017.8 |
| 20260831165804 | 92 | 6 | 3.5 | 7.8 | 0.00 | 0.00 | 0.00 | 26 | 1017.8 |
| 20260831165703 | 92 | 349 | 3.5 | 7.8 | 0.00 | 0.00 | 0.00 | 25 | 1017.8 |
| 20260831165603 | 91 | 340 | 2.6 | 7.8 | 0.00 | 0.00 | 0.00 | 25 | 1017.8 |
| 20260831165504 | 91 | 317 | 2.6 | 7.8 | 0.00 | 0.00 | 0.00 | 25 | 1017.8 |
| 20260831165404 | 91 | 298 | 2.6 | 7.8 | 0.00 | 0.00 | 0.00 | 25 | 1017.8 |
| 20260831165305 | 91 | 293 | 2.6 | 7.8 | 0.00 | 0.00 | 0.00 | 25 | 1017.8 |
| 20260831165203 | 91 | 298 | 2.6 | 7.8 | 0.00 | 0.00 | 0.00 | 25 | 1017.8 |
| 20260831165103 | 91 | 293 | 2.6 | 7.8 | 0.00 | 0.00 | 0.00 | 25 | 1017.9 |
| 20260831165003 | 91 | 296 | 2.6 | 7.8 | 0.00 | 0.00 | 0.00 | 25 | 1017.8 |
| 20260831164924 | 92 | 298 | 2.6 | 7.8 | 0.00 | 0.00 | 0.00 | 25 | 1017.8 |
| 20260831164824 | 92 | 303 | 2.6 | 7.8 | 0.00 | 0.00 | 0.00 | 25 | 1017.9 |
| 20260831164725 | 92 | 308 | 1.7 | 7.8 | 0.00 | 0.00 | 0.00 | 25 | 1017.8 |
| 20260831164603 | 92 | 307 | 2.6 | 7.8 | 0.00 | 0.00 | 0.00 | 25 | 1017.8 |
| 20260831164504 | 92 | 315 | 2.6 | 7.8 | 0.00 | 0.00 | 0.00 | 25 | 1017.8 |
| 20260831164403 | 92 | 350 | 2.6 | 7.8 | 0.00 | 0.00 | 0.00 | 24 | 1017.8 |
| 20260831164304 | 92 | 3 | 2.6 | 7.8 | 0.00 | 0.00 | 0.00 | 24 | 1017.8 |
| 20260831164204 | 92 | 6 | 2.6 | 7.8 | 0.00 | 0.00 | 0.00 | 22 | 1017.7 |
| 20260831164104 | 92 | 2 | 2.6 | 7.8 | 0.00 | 0.00 | 0.00 | 22 | 1017.7 |
| 20260831164025 | 92 | 360 | 2.6 | 7.8 | 0.00 | 0.00 | 0.00 | 22 | 1017.7 |
| 20260831163904 | 91 | 2 | 2.6 | 7.8 | 0.00 | 0.00 | 0.00 | 22 | 1017.8 |
| 20260831163803 | 91 | 5 | 3.5 | 7.8 | 0.00 | 0.00 | 0.00 | 22 | 1017.8 |
| 20260831163724 | 91 | 358 | 3.5 | 7.8 | 0.00 | 0.00 | 0.00 | 22 | 1017.9 |
| 20260831163604 | 91 | 11 | 3.5 | 7.8 | 0.00 | 0.00 | 0.00 | 22 | 1017.9 |
| 20260831163504 | 91 | 19 | 3.5 | 7.8 | 0.00 | 0.00 | 0.00 | 22 | 1017.8 |
| 20260831163404 | 91 | 15 | 2.6 | 7.0 | 0.00 | 0.00 | 0.00 | 22 | 1017.8 |
| 20260831163325 | 91 | 14 | 2.6 | 7.0 | 0.00 | 0.00 | 0.00 | 21 | 1017.8 |
| 20260831163204 | 91 | 18 | 2.6 | 7.0 | 0.00 | 0.00 | 0.00 | 20 | 1017.8 |
| 20260831163104 | 91 | 27 | 2.6 | 7.0 | 0.00 | 0.00 | 0.00 | 20 | 1017.8 |
| 20260831163004 | 91 | 37 | 2.6 | 7.0 | 0.00 | 0.00 | 0.00 | 19 | 1017.8 |
| 20260831162925 | 91 | 43 | 3.5 | 7.8 | 0.00 | 0.00 | 0.00 | 19 | 1017.7 |
| 20260831162804 | 91 | 47 | 2.6 | 7.8 | 0.00 | 0.00 | 0.00 | 18 | 1017.7 |
| 20260831162703 | 91 | 51 | 2.6 | 7.8 | 0.00 | 0.00 | 0.00 | 16 | 1017.8 |
| 20260831162603 | 90 | 46 | 2.6 | 7.8 | 0.00 | 0.00 | 0.00 | 16 | 1017.7 |
| 20260831162503 | 90 | 48 | 2.6 | 7.8 | 0.00 | 0.00 | 0.00 | 15 | 1017.7 |
| 20260831162404 | 90 | 50 | 2.6 | 7.8 | 0.00 | 0.00 | 0.00 | 15 | 1017.7 |
| 20260831162306 | 90 | 50 | 3.5 | 7.8 | 0.00 | 0.00 | 0.00 | 15 | 1017.7 |
| 20260831162204 | 90 | 50 | 3.5 | 7.8 | 0.00 | 0.00 | 0.00 | 14 | 1017.7 |
| 20260831162104 | 90 | 48 | 3.5 | 7.8 | 0.00 | 0.00 | 0.00 | 14 | 1017.7 |
| 20260831162003 | 90 | 47 | 3.5 | 7.8 | 0.00 | 0.00 | 0.00 | 14 | 1017.6 |
| 20260831161904 | 90 | 45 | 3.5 | 7.0 | 0.00 | 0.00 | 0.00 | 13 | 1017.6 |
| 20260831161803 | 90 | 42 | 3.5 | 7.0 | 0.00 | 0.00 | 0.00 | 12 | 1017.7 |
| 20260831161704 | 90 | 46 | 3.5 | 7.0 | 0.00 | 0.00 | 0.00 | 11 | 1017.6 |
| 20260831161604 | 90 | 49 | 3.5 | 7.0 | 0.00 | 0.00 | 0.00 | 10 | 1017.6 |
| 20260831161504 | 90 | 48 | 3.5 | 7.0 | 0.00 | 0.00 | 0.00 | 11 | 1017.6 |
| 20260831161404 | 90 | 45 | 3.5 | 7.0 | 0.00 | 0.00 | 0.00 | 11 | 1017.6 |
| 20260831161304 | 90 | 43 | 3.5 | 7.0 | 0.00 | 0.00 | 0.00 | 9 | 1017.7 |
| 20260831161204 | 90 | 39 | 3.5 | 7.8 | 0.00 | 0.00 | 0.00 | 9 | 1017.7 |
| 20260831161104 | 90 | 34 | 3.5 | 7.8 | 0.00 | 0.00 | 0.00 | 9 | 1017.6 |
| 20260831161003 | 90 | 32 | 3.5 | 7.8 | 0.00 | 0.00 | 0.00 | 10 | 1017.7 |
| 20260831160904 | 90 | 29 | 3.5 | 7.8 | 0.00 | 0.00 | 0.00 | 10 | 1017.7 |
| 20260831160804 | 89 | 32 | 3.5 | 7.8 | 0.00 | 0.00 | 0.00 | 9 | 1017.6 |
| 20260831160704 | 89 | 34 | 3.5 | 7.8 | 0.00 | 0.00 | 0.00 | 9 | 1017.7 |
| 20260831160603 | 89 | 34 | 4.3 | 7.8 | 0.00 | 0.00 | 0.00 | 8 | 1017.7 |
| 20260831160525 | 89 | 34 | 4.3 | 7.8 | 0.00 | 0.00 | 0.00 | 8 | 1017.7 |
| 20260831160404 | 89 | 36 | 3.5 | 7.8 | 0.00 | 0.00 | 0.00 | 5 | 1017.8 |
| 20260831160304 | 89 | 40 | 3.5 | 7.8 | 0.00 | 0.00 | 0.00 | 3 | 1017.7 |
| 20260831160203 | 89 | 45 | 3.5 | 7.8 | 0.00 | 0.00 | 0.00 | 2 | 1017.7 |
| 20260831160103 | 89 | 50 | 3.5 | 7.8 | 0.00 | 0.00 | 0.00 | 2 | 1017.7 |
| 20260831160004 | 88 | 48 | 3.5 | 7.8 | 0.00 | 0.00 | 0.00 | 1 | 1017.8 |
| 20260831155903 | 88 | 47 | 4.3 | 7.8 | 0.00 | 0.00 | 0.00 | 2 | 1017.8 |
| 20260831155804 | 88 | 46 | 4.3 | 9.6 | 0.00 | 0.00 | 0.00 | 2 | 1017.8 |
| 20260831155704 | 88 | 47 | 4.3 | 9.6 | 0.00 | 0.00 | 0.00 | 3 | 1017.8 |
| 20260831155604 | 88 | 47 | 3.5 | 9.6 | 0.00 | 0.00 | 0.00 | 1 | 1017.8 |
| 20260831155503 | 88 | 47 | 4.3 | 9.6 | 0.00 | 0.00 | 0.00 | 1 | 1017.8 |
| 20260831155403 | 88 | 48 | 4.3 | 9.6 | 0.00 | 0.00 | 0.00 | 1 | 1017.8 |
| 20260831155306 | 88 | 47 | 4.3 | 9.6 | 0.00 | 0.00 | 0.00 | 1 | 1017.8 |
| 20260831155203 | 88 | 47 | 3.5 | 9.6 | 0.00 | 0.00 | 0.00 | 1 | 1017.8 |
| 20260831155103 | 88 | 48 | 3.5 | 9.6 | 0.00 | 0.00 | 0.00 | 1 | 1017.8 |
| 20260831155003 | 88 | 48 | 3.5 | 9.6 | 0.00 | 0.00 | 0.00 | 1 | 1017.8 |
| 20260831154925 | 88 | 48 | 3.5 | 9.6 | 0.00 | 0.00 | 0.00 | 1 | 1017.8 |
| 20260831154804 | 88 | 49 | 3.5 | 7.0 | 0.00 | 0.00 | 0.00 | 1 | 1017.7 |
| 20260831154703 | 88 | 45 | 3.5 | 7.0 | 0.00 | 0.00 | 0.00 | 1 | 1017.8 |
| 20260831154603 | 88 | 44 | 3.5 | 7.0 | 0.00 | 0.00 | 0.00 | 1 | 1017.7 |
| 20260831154525 | 88 | 44 | 3.5 | 7.0 | 0.00 | 0.00 | 0.00 | 1 | 1017.8 |
| 20260831154403 | 88 | 37 | 3.5 | 7.8 | 0.00 | 0.00 | 0.00 | 1 | 1017.7 |
| 20260831154303 | 88 | 35 | 3.5 | 7.8 | 0.00 | 0.00 | 0.00 | 1 | 1017.7 |
| 20260831154203 | 87 | 34 | 3.5 | 7.8 | 0.00 | 0.00 | 0.00 | 1 | 1017.8 |
| 20260831154103 | 87 | 33 | 3.5 | 7.8 | 0.00 | 0.00 | 0.00 | 1 | 1017.8 |
| 20260831154003 | 87 | 34 | 3.5 | 7.8 | 0.00 | 0.00 | 0.00 | 1 | 1017.8 |
| 20260831153904 | 87 | 34 | 3.5 | 7.8 | 0.00 | 0.00 | 0.00 | 1 | 1017.7 |
| 20260831153804 | 87 | 34 | 3.5 | 7.8 | 0.00 | 0.00 | 0.00 | 1 | 1017.8 |
| 20260831153703 | 87 | 37 | 3.5 | 7.8 | 0.00 | 0.00 | 0.00 | 1 | 1017.7 |
| 20260831153624 | 87 | 37 | 3.5 | 8.7 | 0.00 | 0.00 | 0.00 | 1 | 1017.8 |
| 20260831153504 | 88 | 37 | 3.5 | 8.7 | 0.00 | 0.00 | 0.00 | 1 | 1017.8 |
| 20260831153404 | 88 | 37 | 3.5 | 8.7 | 0.00 | 0.00 | 0.00 | 1 | 1017.8 |
| 20260831153304 | 87 | 38 | 3.5 | 8.7 | 0.00 | 0.00 | 0.00 | 1 | 1017.8 |
| 20260831153204 | 87 | 40 | 3.5 | 8.7 | 0.00 | 0.00 | 0.00 | 1 | 1017.7 |
| 20260831153104 | 87 | 39 | 4.3 | 8.7 | 0.00 | 0.00 | 0.00 | 1 | 1017.7 |
| 20260831153004 | 87 | 41 | 4.3 | 8.7 | 0.00 | 0.00 | 0.00 | 1 | 1017.7 |
| 20260831152903 | 87 | 40 | 4.3 | 8.7 | 0.00 | 0.00 | 0.00 | 1 | 1017.7 |
| 20260831152803 | 86 | 40 | 4.3 | 8.7 | 0.00 | 0.00 | 0.00 | 1 | 1017.7 |
| 20260831152703 | 86 | 40 | 4.3 | 8.7 | 0.00 | 0.00 | 0.00 | 1 | 1017.7 |
| 20260831152604 | 86 | 39 | 4.3 | 8.7 | 0.00 | 0.00 | 0.00 | 1 | 1017.6 |
| 20260831152524 | 86 | 39 | 4.3 | 8.7 | 0.00 | 0.00 | 0.00 | 1 | 1017.7 |
| 20260831152403 | 86 | 40 | 4.3 | 8.7 | 0.00 | 0.00 | 0.00 | 1 | 1017.7 |
| 20260831152306 | 86 | 36 | 4.3 | 8.7 | 0.00 | 0.00 | 0.00 | 1 | 1017.7 |
| 20260831152224 | 86 | 36 | 4.3 | 8.7 | 0.00 | 0.00 | 0.00 | 1 | 1017.7 |
| 20260831152103 | 86 | 36 | 4.3 | 7.8 | 0.00 | 0.00 | 0.00 | 1 | 1017.7 |
| 20260831152004 | 86 | 34 | 4.3 | 7.8 | 0.00 | 0.00 | 0.00 | 1 | 1017.6 |
| 20260831151903 | 86 | 37 | 4.3 | 7.8 | 0.00 | 0.00 | 0.00 | 1 | 1017.6 |
| 20260831151803 | 86 | 39 | 4.3 | 7.8 | 0.00 | 0.00 | 0.00 | 1 | 1017.6 |
| 20260831151704 | 86 | 41 | 4.3 | 7.8 | 0.00 | 0.00 | 0.00 | 1 | 1017.6 |
| 20260831151625 | 86 | 40 | 4.3 | 7.8 | 0.00 | 0.00 | 0.00 | 1 | 1017.5 |
| 20260831151504 | 86 | 41 | 4.3 | 7.8 | 0.00 | 0.00 | 0.00 | 1 | 1017.6 |
| 20260831151403 | 86 | 43 | 4.3 | 7.8 | 0.00 | 0.00 | 0.00 | 1 | 1017.5 |
| 20260831151324 | 86 | 44 | 4.3 | 7.8 | 0.00 | 0.00 | 0.00 | 1 | 1017.5 |
| 20260831151203 | 86 | 44 | 5.2 | 9.6 | 0.00 | 0.00 | 0.00 | 1 | 1017.6 |
| 20260831151103 | 86 | 45 | 5.2 | 9.6 | 0.00 | 0.00 | 0.00 | 1 | 1017.6 |
| 20260831151003 | 85 | 47 | 4.3 | 9.6 | 0.00 | 0.00 | 0.00 | 1 | 1017.5 |
| 20260831150903 | 85 | 45 | 4.3 | 9.6 | 0.00 | 0.00 | 0.00 | 1 | 1017.5 |
| 20260831150804 | 85 | 45 | 4.3 | 9.6 | 0.00 | 0.00 | 0.00 | 1 | 1017.5 |
| 20260831150703 | 85 | 44 | 5.2 | 9.6 | 0.00 | 0.00 | 0.00 | 1 | 1017.5 |
| 20260831150625 | 85 | 44 | 5.2 | 11.3 | 0.00 | 0.00 | 0.00 | 1 | 1017.5 |
| 20260831150503 | 85 | 45 | 5.2 | 11.3 | 0.00 | 0.00 | 0.00 | 1 | 1017.5 |
| 20260831150404 | 86 | 43 | 5.2 | 11.3 | 0.00 | 0.00 | 0.00 | 1 | 1017.5 |
| 20260831150303 | 86 | 42 | 5.2 | 11.3 | 0.00 | 0.00 | 0.00 | 1 | 1017.5 |
| 20260831150204 | 86 | 42 | 5.2 | 11.3 | 0.00 | 0.00 | 0.00 | 1 | 1017.5 |
| 20260831150103 | 85 | 42 | 5.2 | 11.3 | 0.00 | 0.00 | 0.00 | 1 | 1017.5 |
| 20260831150004 | 85 | 41 | 5.2 | 11.3 | 0.00 | 0.00 | 0.00 | 1 | 1017.5 |
| 20260831145903 | 85 | 41 | 5.2 | 11.3 | 0.00 | 0.00 | 0.00 | 1 | 1017.4 |
| 20260831145803 | 85 | 38 | 5.2 | 11.3 | 0.00 | 0.00 | 0.00 | 1 | 1017.5 |
| 20260831145725 | 85 | 37 | 5.2 | 11.3 | 0.00 | 0.00 | 0.00 | 1 | 1017.4 |
| 20260831145604 | 85 | 38 | 5.2 | 9.6 | 0.00 | 0.00 | 0.00 | 1 | 1017.4 |
| 20260831145503 | 85 | 40 | 5.2 | 9.6 | 0.00 | 0.00 | 0.00 | 1 | 1017.5 |
| 20260831145404 | 85 | 40 | 5.2 | 9.6 | 0.00 | 0.00 | 0.00 | 1 | 1017.5 |
| 20260831145325 | 85 | 41 | 5.2 | 9.6 | 0.00 | 0.00 | 0.00 | 1 | 1017.5 |
| 20260831145204 | 85 | 41 | 5.2 | 9.6 | 0.00 | 0.00 | 0.00 | 1 | 1017.5 |
| 20260831145103 | 85 | 39 | 5.2 | 10.4 | 0.00 | 0.00 | 0.00 | 1 | 1017.4 |
| 20260831145003 | 85 | 39 | 5.2 | 10.4 | 0.00 | 0.00 | 0.00 | 1 | 1017.4 |
| 20260831144903 | 84 | 38 | 5.2 | 10.4 | 0.00 | 0.00 | 0.00 | 1 | 1017.4 |
| 20260831144803 | 84 | 39 | 5.2 | 10.4 | 0.00 | 0.00 | 0.00 | 1 | 1017.4 |
| 20260831144703 | 84 | 38 | 5.2 | 10.4 | 0.00 | 0.00 | 0.00 | 1 | 1017.4 |
| 20260831144604 | 84 | 38 | 5.2 | 10.4 | 0.00 | 0.00 | 0.00 | 1 | 1017.4 |
| 20260831144504 | 84 | 36 | 5.2 | 10.4 | 0.00 | 0.00 | 0.00 | 1 | 1017.4 |
| 20260831144404 | 84 | 36 | 5.2 | 10.4 | 0.00 | 0.00 | 0.00 | 1 | 1017.4 |
| 20260831144325 | 84 | 36 | 5.2 | 10.4 | 0.00 | 0.00 | 0.00 | 1 | 1017.4 |
| 20260831144204 | 84 | 38 | 4.3 | 10.4 | 0.00 | 0.00 | 0.00 | 1 | 1017.4 |
| 20260831144103 | 84 | 39 | 4.3 | 8.7 | 0.00 | 0.00 | 0.00 | 1 | 1017.4 |
| 20260831144003 | 84 | 40 | 4.3 | 8.7 | 0.00 | 0.00 | 0.00 | 1 | 1017.4 |
| 20260831143904 | 84 | 41 | 4.3 | 8.7 | 0.00 | 0.00 | 0.00 | 1 | 1017.4 |
| 20260831143804 | 84 | 40 | 3.5 | 8.7 | 0.00 | 0.00 | 0.00 | 1 | 1017.3 |
| 20260831143703 | 85 | 40 | 3.5 | 8.7 | 0.00 | 0.00 | 0.00 | 1 | 1017.3 |
| 20260831143604 | 85 | 38 | 3.5 | 8.7 | 0.00 | 0.00 | 0.00 | 1 | 1017.3 |
| 20260831143525 | 85 | 36 | 3.5 | 7.8 | 0.00 | 0.00 | 0.00 | 1 | 1017.3 |
| 20260831143425 | 85 | 31 | 3.5 | 7.8 | 0.00 | 0.00 | 0.00 | 1 | 1017.3 |
| 20260831143324 | 85 | 21 | 2.6 | 7.8 | 0.00 | 0.00 | 0.00 | 1 | 1017.3 |
| 20260831143204 | 85 | 11 | 2.6 | 7.8 | 0.00 | 0.00 | 0.00 | 1 | 1017.3 |
| 20260831143103 | 85 | 6 | 2.6 | 7.8 | 0.00 | 0.00 | 0.00 | 1 | 1017.3 |
| 20260831143003 | 85 | 357 | 2.6 | 7.8 | 0.00 | 0.00 | 0.00 | 1 | 1017.3 |
| 20260831142904 | 85 | 352 | 2.6 | 7.8 | 0.00 | 0.00 | 0.00 | 1 | 1017.3 |
| 20260831142803 | 85 | 345 | 2.6 | 7.0 | 0.00 | 0.00 | 0.00 | 1 | 1017.3 |
| 20260831142703 | 84 | 331 | 2.6 | 5.2 | 0.00 | 0.00 | 0.00 | 1 | 1017.3 |
| 20260831142603 | 84 | 333 | 2.6 | 5.2 | 0.00 | 0.00 | 0.00 | 1 | 1017.3 |
| 20260831142504 | 84 | 338 | 2.6 | 7.0 | 0.00 | 0.00 | 0.00 | 1 | 1017.3 |
| 20260831142404 | 84 | 347 | 2.6 | 7.0 | 0.00 | 0.00 | 0.00 | 1 | 1017.3 |
| 20260831142324 | 84 | 352 | 3.5 | 7.0 | 0.00 | 0.00 | 0.00 | 1 | 1017.3 |
| 20260831142203 | 84 | 2 | 3.5 | 7.0 | 0.00 | 0.00 | 0.00 | 1 | 1017.3 |
| 20260831142103 | 84 | 8 | 3.5 | 7.0 | 0.00 | 0.00 | 0.00 | 1 | 1017.4 |
| 20260831142003 | 84 | 9 | 3.5 | 7.0 | 0.00 | 0.00 | 0.00 | 1 | 1017.4 |
| 20260831141904 | 84 | 7 | 3.5 | 7.0 | 0.00 | 0.00 | 0.00 | 1 | 1017.3 |
| 20260831141804 | 83 | 3 | 3.5 | 7.0 | 0.00 | 0.00 | 0.00 | 1 | 1017.3 |
| 20260831141703 | 83 | 10 | 3.5 | 7.0 | 0.00 | 0.00 | 0.00 | 1 | 1017.3 |
| 20260831141603 | 83 | 12 | 3.5 | 7.0 | 0.00 | 0.00 | 0.00 | 1 | 1017.2 |
| 20260831141504 | 83 | 19 | 3.5 | 7.0 | 0.00 | 0.00 | 0.00 | 1 | 1017.2 |
| 20260831141403 | 83 | 24 | 3.5 | 7.0 | 0.00 | 0.00 | 0.00 | 1 | 1017.3 |
| 20260831141324 | 83 | 24 | 3.5 | 7.0 | 0.00 | 0.00 | 0.00 | 1 | 1017.3 |
| 20260831141203 | 83 | 25 | 3.5 | 7.0 | 0.00 | 0.00 | 0.00 | 1 | 1017.3 |
| 20260831141104 | 83 | 27 | 2.6 | 7.0 | 0.00 | 0.00 | 0.00 | 1 | 1017.3 |
| 20260831141004 | 83 | 33 | 2.6 | 7.0 | 0.00 | 0.00 | 0.00 | 1 | 1017.2 |
| 20260831140903 | 82 | 39 | 2.6 | 7.0 | 0.00 | 0.00 | 0.00 | 1 | 1017.3 |
| 20260831140803 | 82 | 47 | 2.6 | 7.0 | 0.00 | 0.00 | 0.00 | 1 | 1017.3 |
| 20260831140704 | 82 | 49 | 2.6 | 7.0 | 0.00 | 0.00 | 0.00 | 1 | 1017.3 |
| 20260831140604 | 82 | 51 | 2.6 | 7.0 | 0.00 | 0.00 | 0.00 | 1 | 1017.2 |
| 20260831140504 | 82 | 52 | 2.6 | 6.1 | 0.00 | 0.00 | 0.00 | 1 | 1017.2 |
| 20260831140404 | 82 | 49 | 2.6 | 7.0 | 0.00 | 0.00 | 0.00 | 1 | 1017.2 |
| 20260831140303 | 82 | 50 | 2.6 | 7.0 | 0.00 | 0.00 | 0.00 | 1 | 1017.3 |
| 20260831140204 | 82 | 49 | 2.6 | 7.0 | 0.00 | 0.00 | 0.00 | 1 | 1017.2 |
| 20260831140004 | 81 | 47 | 2.6 | 7.0 | 0.00 | 0.00 | 0.00 | 1 | 1017.2 |
| 20260831135904 | 81 | 47 | 2.6 | 7.0 | 0.00 | 0.00 | 0.00 | 1 | 1017.2 |
| 20260831135804 | 81 | 45 | 2.6 | 7.0 | 0.00 | 0.00 | 0.00 | 1 | 1017.2 |
| 20260831135704 | 81 | 44 | 2.6 | 7.0 | 0.00 | 0.00 | 0.00 | 1 | 1017.2 |
| 20260831135603 | 81 | 43 | 3.5 | 7.0 | 0.00 | 0.00 | 0.00 | 1 | 1017.2 |
| 20260831135504 | 80 | 43 | 3.5 | 7.0 | 0.00 | 0.00 | 0.00 | 1 | 1017.2 |
| 20260831135404 | 80 | 43 | 3.5 | 7.0 | 0.00 | 0.00 | 0.00 | 1 | 1017.2 |
| 20260831135306 | 80 | 43 | 3.5 | 7.0 | 0.00 | 0.00 | 0.00 | 1 | 1017.2 |
| 20260831135203 | 80 | 42 | 3.5 | 7.0 | 0.00 | 0.00 | 0.00 | 1 | 1017.2 |
| 20260831135103 | 80 | 40 | 3.5 | 7.0 | 0.00 | 0.00 | 0.00 | 1 | 1017.2 |
| 20260831135003 | 80 | 42 | 3.5 | 7.0 | 0.00 | 0.00 | 0.00 | 1 | 1017.1 |
| 20260831134903 | 80 | 44 | 3.5 | 7.0 | 0.00 | 0.00 | 0.00 | 1 | 1017.0 |
| 20260831134803 | 80 | 46 | 3.5 | 7.0 | 0.00 | 0.00 | 0.00 | 1 | 1017.1 |
| 20260831134724 | 80 | 47 | 3.5 | 7.0 | 0.00 | 0.00 | 0.00 | 1 | 1017.0 |
| 20260831134624 | 80 | 49 | 3.5 | 7.0 | 0.00 | 0.00 | 0.00 | 1 | 1017.0 |
| 20260831134503 | 80 | 52 | 2.6 | 7.0 | 0.00 | 0.00 | 0.00 | 1 | 1017.0 |
| 20260831134403 | 80 | 53 | 2.6 | 6.1 | 0.00 | 0.00 | 0.00 | 1 | 1017.0 |
| 20260831134303 | 79 | 55 | 2.6 | 4.3 | 0.00 | 0.00 | 0.00 | 1 | 1017.0 |
| 20260831134205 | 79 | 57 | 2.6 | 4.3 | 0.00 | 0.00 | 0.00 | 1 | 1017.0 |
| 20260831134104 | 79 | 61 | 2.6 | 4.3 | 0.00 | 0.00 | 0.00 | 1 | 1017.0 |
| 20260831134025 | 79 | 60 | 2.6 | 4.3 | 0.00 | 0.00 | 0.00 | 1 | 1016.9 |
| 20260831133903 | 79 | 60 | 2.6 | 4.3 | 0.00 | 0.00 | 0.00 | 1 | 1017.0 |
| 20260831133804 | 79 | 59 | 2.6 | 5.2 | 0.00 | 0.00 | 0.00 | 1 | 1016.9 |
| 20260831133704 | 79 | 59 | 2.6 | 5.2 | 0.00 | 0.00 | 0.00 | 1 | 1016.9 |
| 20260831133603 | 79 | 58 | 2.6 | 5.2 | 0.00 | 0.00 | 0.00 | 1 | 1016.9 |
| 20260831133503 | 79 | 58 | 2.6 | 5.2 | 0.00 | 0.00 | 0.00 | 1 | 1016.9 |
| 20260831133404 | 79 | 58 | 2.6 | 5.2 | 0.00 | 0.00 | 0.00 | 1 | 1016.9 |
| 20260831133304 | 79 | 59 | 2.6 | 5.2 | 0.00 | 0.00 | 0.00 | 1 | 1017.0 |
| 20260831133204 | 79 | 58 | 2.6 | 5.2 | 0.00 | 0.00 | 0.00 | 1 | 1016.9 |
| 20260831133103 | 79 | 57 | 2.6 | 5.2 | 0.00 | 0.00 | 0.00 | 1 | 1016.9 |
| 20260831133003 | 79 | 57 | 2.6 | 5.2 | 0.00 | 0.00 | 0.00 | 1 | 1016.9 |
| 20260831132903 | 79 | 55 | 2.6 | 5.2 | 0.00 | 0.00 | 0.00 | 1 | 1016.9 |
| 20260831132803 | 79 | 53 | 1.7 | 5.2 | 0.00 | 0.00 | 0.00 | 1 | 1016.9 |
| 20260831132703 | 79 | 49 | 2.6 | 5.2 | 0.00 | 0.00 | 0.00 | 1 | 1016.9 |
| 20260831132603 | 79 | 47 | 2.6 | 5.2 | 0.00 | 0.00 | 0.00 | 1 | 1016.9 |
| 20260831132503 | 79 | 47 | 2.6 | 5.2 | 0.00 | 0.00 | 0.00 | 1 | 1016.8 |
| 20260831132404 | 79 | 47 | 2.6 | 5.2 | 0.00 | 0.00 | 0.00 | 1 | 1016.8 |
| 20260831132306 | 79 | 46 | 2.6 | 5.2 | 0.00 | 0.00 | 0.00 | 1 | 1016.8 |
| 20260831132203 | 79 | 45 | 2.6 | 5.2 | 0.00 | 0.00 | 0.00 | 1 | 1016.8 |
| 20260831132103 | 79 | 45 | 2.6 | 5.2 | 0.00 | 0.00 | 0.00 | 1 | 1016.8 |
| 20260831132004 | 79 | 45 | 2.6 | 5.2 | 0.00 | 0.00 | 0.00 | 1 | 1016.8 |
| 20260831131903 | 79 | 45 | 2.6 | 5.2 | 0.00 | 0.00 | 0.00 | 1 | 1016.8 |
| 20260831131825 | 79 | 45 | 2.6 | 5.2 | 0.00 | 0.00 | 0.00 | 1 | 1016.8 |
| 20260831131703 | 79 | 46 | 2.6 | 6.1 | 0.00 | 0.00 | 0.00 | 1 | 1016.8 |
| 20260831131604 | 79 | 49 | 2.6 | 6.1 | 0.00 | 0.00 | 0.00 | 1 | 1016.8 |
| 20260831131503 | 79 | 49 | 2.6 | 6.1 | 0.00 | 0.00 | 0.00 | 1 | 1016.8 |
| 20260831131404 | 79 | 49 | 2.6 | 6.1 | 0.00 | 0.00 | 0.00 | 1 | 1016.8 |
| 20260831131303 | 78 | 51 | 2.6 | 6.1 | 0.00 | 0.00 | 0.00 | 1 | 1016.7 |
| 20260831131204 | 78 | 51 | 2.6 | 6.1 | 0.00 | 0.00 | 0.00 | 1 | 1016.7 |
| 20260831131104 | 78 | 50 | 2.6 | 6.1 | 0.00 | 0.00 | 0.00 | 1 | 1016.7 |
| 20260831131025 | 78 | 49 | 2.6 | 6.1 | 0.00 | 0.00 | 0.00 | 1 | 1016.7 |
| 20260831130903 | 78 | 47 | 2.6 | 6.1 | 0.00 | 0.00 | 0.00 | 1 | 1016.7 |
| 20260831130803 | 78 | 48 | 2.6 | 6.1 | 0.00 | 0.00 | 0.00 | 1 | 1016.7 |
| 20260831130724 | 78 | 48 | 2.6 | 5.2 | 0.00 | 0.00 | 0.00 | 1 | 1016.7 |
| 20260831130624 | 78 | 47 | 2.6 | 5.2 | 0.00 | 0.00 | 0.00 | 1 | 1016.7 |
| 20260831130525 | 78 | 46 | 2.6 | 5.2 | 0.00 | 0.00 | 0.00 | 1 | 1016.7 |
| 20260831130424 | 78 | 45 | 2.6 | 5.2 | 0.00 | 0.00 | 0.00 | 1 | 1016.6 |
| 20260831130304 | 78 | 44 | 2.6 | 5.2 | 0.00 | 0.00 | 0.00 | 1 | 1016.6 |
| 20260831130203 | 78 | 43 | 2.6 | 5.2 | 0.00 | 0.00 | 0.00 | 1 | 1016.7 |
| 20260831130004 | 78 | 46 | 2.6 | 4.3 | 0.00 | 0.00 | 0.00 | 1 | 1016.7 |
| 20260831125925 | 78 | 45 | 2.6 | 4.3 | 0.00 | 0.00 | 0.00 | 1 | 1016.6 |
| 20260831125803 | 78 | 44 | 2.6 | 4.3 | 0.00 | 0.00 | 0.00 | 1 | 1016.5 |
| 20260831125703 | 78 | 41 | 2.6 | 4.3 | 0.00 | 0.00 | 0.00 | 1 | 1016.5 |
| 20260831125603 | 78 | 41 | 2.6 | 4.3 | 0.00 | 0.00 | 0.00 | 1 | 1016.5 |
| 20260831125503 | 78 | 42 | 2.6 | 4.3 | 0.00 | 0.00 | 0.00 | 1 | 1016.5 |
| 20260831125403 | 78 | 42 | 1.7 | 4.3 | 0.00 | 0.00 | 0.00 | 1 | 1016.5 |
| 20260831125306 | 78 | 42 | 1.7 | 4.3 | 0.00 | 0.00 | 0.00 | 1 | 1016.5 |
| 20260831125204 | 78 | 42 | 1.7 | 4.3 | 0.00 | 0.00 | 0.00 | 1 | 1016.5 |
| 20260831125124 | 78 | 43 | 1.7 | 4.3 | 0.00 | 0.00 | 0.00 | 1 | 1016.5 |
| 20260831125004 | 78 | 46 | 1.7 | 5.2 | 0.00 | 0.00 | 0.00 | 1 | 1016.5 |
| 20260831124925 | 78 | 48 | 1.7 | 5.2 | 0.00 | 0.00 | 0.00 | 1 | 1016.5 |
| 20260831124804 | 78 | 53 | 1.7 | 5.2 | 0.00 | 0.00 | 0.00 | 1 | 1016.5 |
| 20260831124724 | 78 | 54 | 1.7 | 5.2 | 0.00 | 0.00 | 0.00 | 1 | 1016.5 |
| 20260831124603 | 78 | 58 | 1.7 | 5.2 | 0.00 | 0.00 | 0.00 | 1 | 1016.4 |
| 20260831124503 | 77 | 59 | 1.7 | 5.2 | 0.00 | 0.00 | 0.00 | 1 | 1016.4 |
| 20260831124403 | 77 | 59 | 1.7 | 5.2 | 0.00 | 0.00 | 0.00 | 1 | 1016.4 |
| 20260831124303 | 77 | 60 | 1.7 | 5.2 | 0.00 | 0.00 | 0.00 | 1 | 1016.4 |
| 20260831124203 | 77 | 60 | 1.7 | 5.2 | 0.00 | 0.00 | 0.00 | 1 | 1016.3 |
| 20260831124103 | 77 | 61 | 1.7 | 5.2 | 0.00 | 0.00 | 0.00 | 1 | 1016.3 |
| 20260831124003 | 77 | 63 | 1.7 | 4.3 | 0.00 | 0.00 | 0.00 | 1 | 1016.3 |
| 20260831123904 | 77 | 64 | 1.7 | 4.3 | 0.00 | 0.00 | 0.00 | 1 | 1016.3 |
| 20260831123803 | 77 | 65 | 1.7 | 4.3 | 0.00 | 0.00 | 0.00 | 1 | 1016.3 |
| 20260831123703 | 77 | 65 | 1.7 | 4.3 | 0.00 | 0.00 | 0.00 | 1 | 1016.3 |
| 20260831123604 | 77 | 66 | 1.7 | 4.3 | 0.00 | 0.00 | 0.00 | 1 | 1016.3 |
| 20260831123503 | 77 | 67 | 1.7 | 4.3 | 0.00 | 0.00 | 0.00 | 1 | 1016.3 |
| 20260831123403 | 77 | 64 | 1.7 | 5.2 | 0.00 | 0.00 | 0.00 | 1 | 1016.4 |
| 20260831123304 | 77 | 62 | 1.7 | 5.2 | 0.00 | 0.00 | 0.00 | 1 | 1016.3 |
| 20260831123204 | 77 | 59 | 2.6 | 6.1 | 0.00 | 0.00 | 0.00 | 1 | 1016.3 |
| 20260831123103 | 77 | 58 | 2.6 | 6.1 | 0.00 | 0.00 | 0.00 | 1 | 1016.3 |
| 20260831123004 | 77 | 58 | 2.6 | 6.1 | 0.00 | 0.00 | 0.00 | 1 | 1016.3 |
| 20260831122903 | 77 | 58 | 2.6 | 6.1 | 0.00 | 0.00 | 0.00 | 1 | 1016.4 |
| 20260831122825 | 77 | 58 | 2.6 | 6.1 | 0.00 | 0.00 | 0.00 | 1 | 1016.4 |
| 20260831122703 | 77 | 57 | 2.6 | 6.1 | 0.00 | 0.00 | 0.00 | 1 | 1016.4 |
| 20260831122603 | 77 | 56 | 2.6 | 6.1 | 0.00 | 0.00 | 0.00 | 1 | 1016.4 |
| 20260831122524 | 77 | 56 | 2.6 | 6.1 | 0.00 | 0.00 | 0.00 | 1 | 1016.4 |
| 20260831122425 | 77 | 55 | 2.6 | 6.1 | 0.00 | 0.00 | 0.00 | 1 | 1016.4 |
| 20260831122305 | 77 | 58 | 2.6 | 6.1 | 0.00 | 0.00 | 0.00 | 1 | 1016.4 |
| 20260831122204 | 77 | 60 | 2.6 | 5.2 | 0.00 | 0.00 | 0.00 | 1 | 1016.3 |
| 20260831122104 | 77 | 59 | 1.7 | 5.2 | 0.00 | 0.00 | 0.00 | 1 | 1016.4 |
| 20260831122004 | 77 | 57 | 2.6 | 5.2 | 0.00 | 0.00 | 0.00 | 1 | 1016.4 |
| 20260831121903 | 77 | 55 | 2.6 | 5.2 | 0.00 | 0.00 | 0.00 | 1 | 1016.4 |
| 20260831121803 | 77 | 53 | 2.6 | 5.2 | 0.00 | 0.00 | 0.00 | 1 | 1016.4 |
| 20260831121704 | 77 | 52 | 2.6 | 5.2 | 0.00 | 0.00 | 0.00 | 1 | 1016.4 |
| 20260831121604 | 77 | 51 | 2.6 | 5.2 | 0.00 | 0.00 | 0.00 | 1 | 1016.3 |
| 20260831121504 | 77 | 49 | 2.6 | 5.2 | 0.00 | 0.00 | 0.00 | 1 | 1016.3 |
| 20260831121404 | 77 | 47 | 1.7 | 5.2 | 0.00 | 0.00 | 0.00 | 1 | 1016.3 |
| 20260831121303 | 77 | 44 | 1.7 | 5.2 | 0.00 | 0.00 | 0.00 | 1 | 1016.3 |
| 20260831121203 | 77 | 45 | 2.6 | 5.2 | 0.00 | 0.00 | 0.00 | 1 | 1016.3 |
| 20260831121103 | 77 | 46 | 2.6 | 5.2 | 0.00 | 0.00 | 0.00 | 1 | 1016.2 |
| 20260831121003 | 77 | 47 | 2.6 | 5.2 | 0.00 | 0.00 | 0.00 | 1 | 1016.2 |
| 20260831120903 | 77 | 49 | 2.6 | 5.2 | 0.00 | 0.00 | 0.00 | 1 | 1016.2 |
| 20260831120825 | 77 | 50 | 2.6 | 5.2 | 0.00 | 0.00 | 0.00 | 1 | 1016.2 |
| 20260831120703 | 77 | 51 | 2.6 | 5.2 | 0.00 | 0.00 | 0.00 | 1 | 1016.3 |
| 20260831120604 | 77 | 52 | 2.6 | 5.2 | 0.00 | 0.00 | 0.00 | 1 | 1016.2 |
| 20260831120504 | 77 | 52 | 2.6 | 5.2 | 0.00 | 0.00 | 0.00 | 1 | 1016.2 |
| 20260831120425 | 77 | 52 | 3.5 | 5.2 | 0.00 | 0.00 | 0.00 | 1 | 1016.2 |
| 20260831120303 | 77 | 52 | 3.5 | 7.0 | 0.00 | 0.00 | 0.00 | 1 | 1016.2 |
| 20260831120206 | 77 | 52 | 3.5 | 7.0 | 0.00 | 0.00 | 0.00 | 1 | 1016.2 |
| 20260831120103 | 77 | 51 | 3.5 | 7.0 | 0.00 | 0.00 | 0.00 | 1 | 1016.2 |
| 20260831120004 | 77 | 50 | 3.5 | 7.0 | 0.00 | 0.00 | 0.00 | 1 | 1016.2 |
| 20260831115903 | 77 | 49 | 3.5 | 7.0 | 0.00 | 0.00 | 0.00 | 1 | 1016.2 |
| 20260831115804 | 77 | 49 | 3.5 | 7.0 | 0.00 | 0.00 | 0.00 | 1 | 1016.2 |
| 20260831115725 | 77 | 49 | 3.5 | 7.0 | 0.00 | 0.00 | 0.00 | 1 | 1016.2 |
| 20260831115624 | 77 | 48 | 3.5 | 7.0 | 0.00 | 0.00 | 0.00 | 1 | 1016.2 |
| 20260831115504 | 77 | 49 | 3.5 | 7.0 | 0.00 | 0.00 | 0.00 | 1 | 1016.2 |
| 20260831115403 | 77 | 51 | 3.5 | 7.0 | 0.00 | 0.00 | 0.00 | 1 | 1016.2 |
| 20260831115306 | 77 | 51 | 3.5 | 7.0 | 0.00 | 0.00 | 0.00 | 1 | 1016.2 |
| 20260831115204 | 77 | 51 | 3.5 | 7.0 | 0.00 | 0.00 | 0.00 | 1 | 1016.2 |
| 20260831115103 | 77 | 52 | 3.5 | 7.0 | 0.00 | 0.00 | 0.00 | 1 | 1016.2 |
| 20260831115024 | 77 | 51 | 3.5 | 7.8 | 0.00 | 0.00 | 0.00 | 1 | 1016.2 |
| 20260831114903 | 77 | 51 | 3.5 | 7.8 | 0.00 | 0.00 | 0.00 | 1 | 1016.2 |
| 20260831114803 | 77 | 50 | 3.5 | 7.8 | 0.00 | 0.00 | 0.00 | 1 | 1016.2 |
| 20260831114703 | 77 | 49 | 3.5 | 7.8 | 0.00 | 0.00 | 0.00 | 1 | 1016.2 |
| 20260831114603 | 77 | 48 | 4.3 | 7.8 | 0.00 | 0.00 | 0.00 | 1 | 1016.2 |
| 20260831114503 | 77 | 48 | 4.3 | 7.8 | 0.00 | 0.00 | 0.00 | 1 | 1016.2 |
| 20260831114403 | 77 | 48 | 4.3 | 7.8 | 0.00 | 0.00 | 0.00 | 1 | 1016.3 |
| 20260831114303 | 77 | 47 | 4.3 | 7.8 | 0.00 | 0.00 | 0.00 | 1 | 1016.2 |
| 20260831114224 | 77 | 48 | 4.3 | 7.8 | 0.00 | 0.00 | 0.00 | 1 | 1016.3 |
| 20260831114124 | 77 | 48 | 4.3 | 7.8 | 0.00 | 0.00 | 0.00 | 1 | 1016.2 |
| 20260831114003 | 77 | 50 | 5.2 | 7.8 | 0.00 | 0.00 | 0.00 | 1 | 1016.2 |
| 20260831113924 | 77 | 49 | 5.2 | 7.8 | 0.00 | 0.00 | 0.00 | 1 | 1016.2 |
| 20260831113803 | 77 | 52 | 4.3 | 7.8 | 0.00 | 0.00 | 0.00 | 1 | 1016.2 |
| 20260831113704 | 77 | 52 | 4.3 | 7.8 | 0.00 | 0.00 | 0.00 | 1 | 1016.2 |
| 20260831113625 | 77 | 53 | 4.3 | 7.8 | 0.00 | 0.00 | 0.00 | 1 | 1016.2 |
| 20260831113503 | 77 | 56 | 4.3 | 7.8 | 0.00 | 0.00 | 0.00 | 1 | 1016.2 |
| 20260831113403 | 77 | 56 | 4.3 | 7.8 | 0.00 | 0.00 | 0.00 | 1 | 1016.3 |
| 20260831113304 | 77 | 58 | 4.3 | 7.8 | 0.00 | 0.00 | 0.00 | 1 | 1016.2 |
| 20260831113204 | 77 | 59 | 4.3 | 7.8 | 0.00 | 0.00 | 0.00 | 1 | 1016.2 |
| 20260831113103 | 77 | 59 | 4.3 | 7.8 | 0.00 | 0.00 | 0.00 | 1 | 1016.2 |
| 20260831113025 | 77 | 61 | 3.5 | 7.8 | 0.00 | 0.00 | 0.00 | 1 | 1016.3 |
| 20260831112904 | 77 | 61 | 3.5 | 7.0 | 0.00 | 0.00 | 0.00 | 1 | 1016.3 |
| 20260831112803 | 77 | 59 | 3.5 | 7.0 | 0.00 | 0.00 | 0.00 | 1 | 1016.3 |
| 20260831112703 | 77 | 59 | 3.5 | 7.0 | 0.00 | 0.00 | 0.00 | 1 | 1016.2 |
| 20260831112603 | 77 | 57 | 3.5 | 7.0 | 0.00 | 0.00 | 0.00 | 1 | 1016.2 |
| 20260831112504 | 77 | 51 | 3.5 | 7.0 | 0.00 | 0.00 | 0.00 | 1 | 1016.2 |
| 20260831112404 | 77 | 50 | 3.5 | 7.0 | 0.00 | 0.00 | 0.00 | 1 | 1016.3 |
| 20260831112307 | 77 | 48 | 3.5 | 7.0 | 0.00 | 0.00 | 0.00 | 1 | 1016.3 |
| 20260831112203 | 77 | 45 | 2.6 | 5.2 | 0.00 | 0.00 | 0.00 | 1 | 1016.3 |
| 20260831112104 | 77 | 45 | 2.6 | 5.2 | 0.00 | 0.00 | 0.00 | 1 | 1016.3 |
| 20260831112003 | 77 | 44 | 2.6 | 5.2 | 0.00 | 0.00 | 0.00 | 1 | 1016.3 |
| 20260831111904 | 77 | 44 | 2.6 | 5.2 | 0.00 | 0.00 | 0.00 | 1 | 1016.3 |
| 20260831111803 | 77 | 46 | 2.6 | 5.2 | 0.00 | 0.00 | 0.00 | 1 | 1016.2 |
| 20260831111704 | 77 | 45 | 2.6 | 6.1 | 0.00 | 0.00 | 0.00 | 1 | 1016.3 |
| 20260831111603 | 77 | 46 | 2.6 | 6.1 | 0.00 | 0.00 | 0.00 | 1 | 1016.3 |
| 20260831111503 | 77 | 46 | 2.6 | 6.1 | 0.00 | 0.00 | 0.00 | 1 | 1016.3 |
| 20260831111424 | 77 | 43 | 2.6 | 6.1 | 0.00 | 0.00 | 0.00 | 1 | 1016.2 |
| 20260831111303 | 77 | 36 | 2.6 | 6.1 | 0.00 | 0.00 | 0.00 | 1 | 1016.2 |
| 20260831111203 | 77 | 35 | 2.6 | 6.1 | 0.00 | 0.00 | 0.00 | 1 | 1016.1 |
| 20260831111104 | 77 | 33 | 2.6 | 6.1 | 0.00 | 0.00 | 0.00 | 1 | 1016.1 |
| 20260831111003 | 77 | 29 | 2.6 | 6.1 | 0.00 | 0.00 | 0.00 | 1 | 1016.1 |
| 20260831110903 | 77 | 26 | 2.6 | 6.1 | 0.00 | 0.00 | 0.00 | 1 | 1016.1 |
| 20260831110803 | 77 | 26 | 2.6 | 6.1 | 0.00 | 0.00 | 0.00 | 1 | 1016.2 |
| 20260831110703 | 77 | 26 | 2.6 | 6.1 | 0.00 | 0.00 | 0.00 | 1 | 1016.1 |
| 20260831110603 | 77 | 27 | 2.6 | 6.1 | 0.00 | 0.00 | 0.00 | 1 | 1016.1 |
| 20260831110503 | 77 | 31 | 2.6 | 6.1 | 0.00 | 0.00 | 0.00 | 1 | 1016.1 |
| 20260831110404 | 77 | 40 | 2.6 | 6.1 | 0.00 | 0.00 | 0.00 | 1 | 1016.1 |
| 20260831110303 | 77 | 45 | 2.6 | 6.1 | 0.00 | 0.00 | 0.00 | 1 | 1016.1 |
| 20260831110203 | 77 | 47 | 2.6 | 7.0 | 0.00 | 0.00 | 0.00 | 1 | 1016.1 |
| 20260831110103 | 77 | 48 | 2.6 | 7.0 | 0.00 | 0.00 | 0.00 | 1 | 1016.1 |
| 20260831110003 | 77 | 50 | 2.6 | 7.0 | 0.00 | 0.00 | 0.00 | 1 | 1016.1 |
| 20260831105904 | 77 | 51 | 2.6 | 7.0 | 0.00 | 0.00 | 0.00 | 1 | 1016.1 |
| 20260831105824 | 77 | 51 | 1.7 | 7.0 | 0.00 | 0.00 | 0.00 | 1 | 1016.1 |
| 20260831105703 | 77 | 50 | 2.6 | 7.0 | 0.00 | 0.00 | 0.00 | 1 | 1016.1 |
| 20260831105603 | 77 | 49 | 2.6 | 7.0 | 0.00 | 0.00 | 0.00 | 1 | 1016.1 |
| 20260831105503 | 77 | 48 | 2.6 | 7.0 | 0.00 | 0.00 | 0.00 | 1 | 1016.1 |
| 20260831105424 | 77 | 48 | 1.7 | 7.0 | 0.00 | 0.00 | 0.00 | 1 | 1016.1 |
| 20260831105306 | 78 | 44 | 2.6 | 7.0 | 0.00 | 0.00 | 0.00 | 1 | 1016.1 |
| 20260831105203 | 78 | 42 | 1.7 | 5.2 | 0.00 | 0.00 | 0.00 | 1 | 1016.1 |
| 20260831105125 | 78 | 42 | 2.6 | 5.2 | 0.00 | 0.00 | 0.00 | 1 | 1016.1 |
| 20260831105024 | 78 | 44 | 2.6 | 5.2 | 0.00 | 0.00 | 0.00 | 1 | 1016.1 |
| 20260831104903 | 78 | 46 | 2.6 | 5.2 | 0.00 | 0.00 | 0.00 | 1 | 1016.1 |
| 20260831104803 | 78 | 48 | 2.6 | 5.2 | 0.00 | 0.00 | 0.00 | 1 | 1016.1 |
| 20260831104703 | 78 | 49 | 2.6 | 4.3 | 0.00 | 0.00 | 0.00 | 1 | 1016.1 |
| 20260831104603 | 78 | 51 | 2.6 | 4.3 | 0.00 | 0.00 | 0.00 | 1 | 1016.1 |
| 20260831104504 | 78 | 53 | 2.6 | 4.3 | 0.00 | 0.00 | 0.00 | 1 | 1016.1 |
| 20260831104403 | 78 | 54 | 2.6 | 4.3 | 0.00 | 0.00 | 0.00 | 1 | 1016.1 |
| 20260831104303 | 78 | 57 | 2.6 | 4.3 | 0.00 | 0.00 | 0.00 | 1 | 1016.1 |
| 20260831104203 | 78 | 59 | 2.6 | 4.3 | 0.00 | 0.00 | 0.00 | 1 | 1016.1 |
| 20260831104124 | 78 | 60 | 2.6 | 3.5 | 0.00 | 0.00 | 0.00 | 1 | 1016.1 |
| 20260831104003 | 78 | 60 | 2.6 | 4.3 | 0.00 | 0.00 | 0.00 | 1 | 1016.2 |
| 20260831103903 | 78 | 59 | 2.6 | 5.2 | 0.00 | 0.00 | 0.00 | 1 | 1016.1 |
| 20260831103803 | 78 | 57 | 2.6 | 5.2 | 0.00 | 0.00 | 0.00 | 1 | 1016.1 |
| 20260831103724 | 78 | 56 | 2.6 | 5.2 | 0.00 | 0.00 | 0.00 | 1 | 1016.2 |
| 20260831103604 | 78 | 54 | 2.6 | 5.2 | 0.00 | 0.00 | 0.00 | 1 | 1016.1 |
| 20260831103503 | 78 | 51 | 2.6 | 7.8 | 0.00 | 0.00 | 0.00 | 1 | 1016.2 |
| 20260831103404 | 78 | 51 | 2.6 | 7.8 | 0.00 | 0.00 | 0.00 | 1 | 1016.1 |
| 20260831103303 | 78 | 51 | 2.6 | 7.8 | 0.00 | 0.00 | 0.00 | 1 | 1016.1 |
| 20260831103204 | 78 | 50 | 3.5 | 7.8 | 0.00 | 0.00 | 0.00 | 1 | 1016.1 |
| 20260831103124 | 78 | 48 | 3.5 | 7.8 | 0.00 | 0.00 | 0.00 | 1 | 1016.1 |
| 20260831103025 | 78 | 47 | 3.5 | 7.8 | 0.00 | 0.00 | 0.00 | 1 | 1016.1 |
| 20260831102925 | 78 | 46 | 3.5 | 7.8 | 0.00 | 0.00 | 0.00 | 1 | 1016.2 |
| 20260831102803 | 78 | 45 | 3.5 | 7.8 | 0.00 | 0.00 | 0.00 | 1 | 1016.1 |
| 20260831102704 | 78 | 45 | 3.5 | 7.8 | 0.00 | 0.00 | 0.00 | 1 | 1016.1 |
| 20260831102603 | 78 | 45 | 3.5 | 7.8 | 0.00 | 0.00 | 0.00 | 1 | 1016.1 |
| 20260831102503 | 78 | 45 | 3.5 | 7.8 | 0.00 | 0.00 | 0.00 | 1 | 1016.2 |
| 20260831102403 | 78 | 43 | 3.5 | 7.8 | 0.00 | 0.00 | 0.00 | 1 | 1016.2 |
| 20260831102306 | 78 | 43 | 3.5 | 7.8 | 0.00 | 0.00 | 0.00 | 1 | 1016.1 |
| 20260831102224 | 78 | 43 | 3.5 | 7.8 | 0.00 | 0.00 | 0.00 | 1 | 1016.1 |
| 20260831102103 | 78 | 44 | 3.5 | 7.8 | 0.00 | 0.00 | 0.00 | 1 | 1016.1 |
| 20260831102003 | 78 | 43 | 3.5 | 8.7 | 0.00 | 0.00 | 0.00 | 1 | 1016.1 |
| 20260831101924 | 78 | 43 | 3.5 | 8.7 | 0.00 | 0.00 | 0.00 | 1 | 1016.1 |
| 20260831101804 | 78 | 43 | 3.5 | 8.7 | 0.00 | 0.00 | 0.00 | 1 | 1016.1 |
| 20260831101703 | 78 | 43 | 3.5 | 8.7 | 0.00 | 0.00 | 0.00 | 1 | 1016.1 |
| 20260831101603 | 78 | 44 | 3.5 | 8.7 | 0.00 | 0.00 | 0.00 | 1 | 1016.1 |
| 20260831101503 | 78 | 45 | 4.3 | 8.7 | 0.00 | 0.00 | 0.00 | 1 | 1016.2 |
| 20260831101403 | 78 | 46 | 4.3 | 8.7 | 0.00 | 0.00 | 0.00 | 1 | 1016.2 |
| 20260831101324 | 78 | 46 | 4.3 | 8.7 | 0.00 | 0.00 | 0.00 | 1 | 1016.2 |
| 20260831101203 | 78 | 47 | 3.5 | 8.7 | 0.00 | 0.00 | 0.00 | 1 | 1016.2 |
| 20260831101103 | 78 | 47 | 3.5 | 8.7 | 0.00 | 0.00 | 0.00 | 1 | 1016.2 |
| 20260831101003 | 78 | 48 | 3.5 | 7.8 | 0.00 | 0.00 | 0.00 | 1 | 1016.2 |
| 20260831100903 | 78 | 48 | 3.5 | 7.8 | 0.00 | 0.00 | 0.00 | 1 | 1016.2 |
| 20260831100803 | 78 | 48 | 3.5 | 7.8 | 0.00 | 0.00 | 0.00 | 1 | 1016.2 |
| 20260831100704 | 78 | 47 | 3.5 | 8.7 | 0.00 | 0.00 | 0.00 | 1 | 1016.2 |
| 20260831100604 | 78 | 46 | 4.3 | 8.7 | 0.00 | 0.00 | 0.00 | 1 | 1016.2 |
| 20260831100504 | 78 | 45 | 4.3 | 8.7 | 0.00 | 0.00 | 0.00 | 1 | 1016.2 |
| 20260831100404 | 78 | 44 | 3.5 | 8.7 | 0.00 | 0.00 | 0.00 | 1 | 1016.2 |
| 20260831100303 | 78 | 43 | 3.5 | 8.7 | 0.00 | 0.00 | 0.00 | 1 | 1016.2 |
| 20260831100203 | 78 | 42 | 4.3 | 8.7 | 0.00 | 0.00 | 0.00 | 1 | 1016.2 |
| 20260831100103 | 78 | 41 | 3.5 | 8.7 | 0.00 | 0.00 | 0.00 | 1 | 1016.2 |
| 20260831100004 | 78 | 41 | 4.3 | 8.7 | 0.00 | 0.00 | 0.00 | 1 | 1016.3 |
| 20260831095925 | 78 | 41 | 3.5 | 8.7 | 0.00 | 0.00 | 0.00 | 1 | 1016.3 |
| 20260831095803 | 78 | 42 | 3.5 | 8.7 | 0.00 | 0.00 | 0.00 | 1 | 1016.3 |
| 20260831095703 | 78 | 43 | 2.6 | 8.7 | 0.00 | 0.00 | 0.00 | 1 | 1016.3 |
| 20260831095603 | 78 | 45 | 2.6 | 6.1 | 0.00 | 0.00 | 0.00 | 1 | 1016.3 |
| 20260831095503 | 78 | 46 | 2.6 | 6.1 | 0.00 | 0.00 | 0.00 | 1 | 1016.3 |
| 20260831095403 | 78 | 48 | 2.6 | 6.1 | 0.00 | 0.00 | 0.00 | 1 | 1016.3 |
| 20260831095306 | 78 | 49 | 2.6 | 6.1 | 0.00 | 0.00 | 0.00 | 1 | 1016.3 |
| 20260831095203 | 78 | 49 | 2.6 | 6.1 | 0.00 | 0.00 | 0.00 | 1 | 1016.3 |
| 20260831095103 | 78 | 49 | 2.6 | 6.1 | 0.00 | 0.00 | 0.00 | 1 | 1016.3 |
| 20260831095004 | 78 | 50 | 2.6 | 6.1 | 0.00 | 0.00 | 0.00 | 1 | 1016.3 |
| 20260831094903 | 78 | 50 | 2.6 | 5.2 | 0.00 | 0.00 | 0.00 | 1 | 1016.3 |
| 20260831094803 | 78 | 50 | 2.6 | 5.2 | 0.00 | 0.00 | 0.00 | 1 | 1016.2 |
| 20260831094703 | 78 | 50 | 2.6 | 5.2 | 0.00 | 0.00 | 0.00 | 1 | 1016.2 |
| 20260831094624 | 78 | 49 | 2.6 | 5.2 | 0.00 | 0.00 | 0.00 | 1 | 1016.2 |
| 20260831094503 | 78 | 49 | 2.6 | 5.2 | 0.00 | 0.00 | 0.00 | 1 | 1016.2 |
| 20260831094403 | 78 | 48 | 1.7 | 5.2 | 0.00 | 0.00 | 0.00 | 1 | 1016.2 |
| 20260831094303 | 78 | 49 | 1.7 | 5.2 | 0.00 | 0.00 | 0.00 | 1 | 1016.2 |
| 20260831094204 | 78 | 51 | 1.7 | 4.3 | 0.00 | 0.00 | 0.00 | 1 | 1016.2 |
| 20260831094103 | 78 | 51 | 1.7 | 5.2 | 0.00 | 0.00 | 0.00 | 1 | 1016.2 |
| 20260831094003 | 78 | 52 | 1.7 | 5.2 | 0.00 | 0.00 | 0.00 | 1 | 1016.2 |
| 20260831093903 | 78 | 52 | 1.7 | 5.2 | 0.00 | 0.00 | 0.00 | 1 | 1016.2 |
| 20260831093803 | 78 | 52 | 1.7 | 5.2 | 0.00 | 0.00 | 0.00 | 1 | 1016.2 |
| 20260831093725 | 78 | 52 | 1.7 | 5.2 | 0.00 | 0.00 | 0.00 | 1 | 1016.2 |
| 20260831093603 | 78 | 52 | 2.6 | 5.2 | 0.00 | 0.00 | 0.00 | 1 | 1016.2 |
| 20260831093504 | 78 | 51 | 2.6 | 5.2 | 0.00 | 0.00 | 0.00 | 1 | 1016.2 |
| 20260831093403 | 78 | 50 | 2.6 | 5.2 | 0.00 | 0.00 | 0.00 | 1 | 1016.2 |
| 20260831093303 | 78 | 49 | 2.6 | 5.2 | 0.00 | 0.00 | 0.00 | 1 | 1016.1 |
| 20260831093203 | 78 | 49 | 2.6 | 5.2 | 0.00 | 0.00 | 0.00 | 1 | 1016.2 |
| 20260831093103 | 78 | 48 | 2.6 | 5.2 | 0.00 | 0.00 | 0.00 | 1 | 1016.1 |
| 20260831093024 | 78 | 47 | 2.6 | 5.2 | 0.00 | 0.00 | 0.00 | 1 | 1016.1 |
| 20260831092903 | 78 | 45 | 2.6 | 5.2 | 0.00 | 0.00 | 0.00 | 1 | 1016.1 |
| 20260831092803 | 78 | 43 | 2.6 | 5.2 | 0.00 | 0.00 | 0.00 | 1 | 1016.1 |
| 20260831092724 | 78 | 43 | 2.6 | 5.2 | 0.00 | 0.00 | 0.00 | 1 | 1016.0 |
| 20260831092604 | 78 | 42 | 2.6 | 5.2 | 0.00 | 0.00 | 0.00 | 1 | 1016.0 |
| 20260831092503 | 78 | 41 | 2.6 | 5.2 | 0.00 | 0.00 | 0.00 | 1 | 1016.0 |
| 20260831092403 | 78 | 41 | 2.6 | 5.2 | 0.00 | 0.00 | 0.00 | 1 | 1016.0 |
| 20260831092306 | 78 | 41 | 2.6 | 5.2 | 0.00 | 0.00 | 0.00 | 1 | 1016.0 |
| 20260831092203 | 78 | 41 | 1.7 | 5.2 | 0.00 | 0.00 | 0.00 | 1 | 1016.0 |
| 20260831092124 | 78 | 41 | 1.7 | 5.2 | 0.00 | 0.00 | 0.00 | 1 | 1016.0 |
| 20260831092004 | 78 | 41 | 1.7 | 5.2 | 0.00 | 0.00 | 0.00 | 1 | 1015.9 |
| 20260831091924 | 78 | 41 | 1.7 | 5.2 | 0.00 | 0.00 | 0.00 | 1 | 1015.9 |
| 20260831091803 | 78 | 41 | 1.7 | 5.2 | 0.00 | 0.00 | 0.00 | 1 | 1015.9 |
| 20260831091703 | 78 | 42 | 1.7 | 5.2 | 0.00 | 0.00 | 0.00 | 1 | 1015.9 |
| 20260831091624 | 78 | 42 | 1.7 | 5.2 | 0.00 | 0.00 | 0.00 | 1 | 1015.9 |
| 20260831091503 | 78 | 43 | 1.7 | 5.2 | 0.00 | 0.00 | 0.00 | 1 | 1015.9 |
| 20260831091424 | 78 | 44 | 1.7 | 5.2 | 0.00 | 0.00 | 0.00 | 1 | 1015.9 |
| 20260831091324 | 78 | 45 | 1.7 | 5.2 | 0.00 | 0.00 | 0.00 | 1 | 1015.9 |
| 20260831091224 | 78 | 46 | 1.7 | 5.2 | 0.00 | 0.00 | 0.00 | 1 | 1015.9 |
| 20260831091103 | 78 | 45 | 1.7 | 5.2 | 0.00 | 0.00 | 0.00 | 1 | 1015.9 |
| 20260831091004 | 78 | 46 | 1.7 | 5.2 | 0.00 | 0.00 | 0.00 | 1 | 1015.9 |
| 20260831090903 | 78 | 46 | 1.7 | 5.2 | 0.00 | 0.00 | 0.00 | 1 | 1015.9 |
| 20260831090824 | 78 | 46 | 2.6 | 5.2 | 0.00 | 0.00 | 0.00 | 1 | 1015.9 |
| 20260831090704 | 78 | 49 | 2.6 | 5.2 | 0.00 | 0.00 | 0.00 | 1 | 1015.9 |
| 20260831090604 | 78 | 47 | 2.6 | 6.1 | 0.00 | 0.00 | 0.00 | 1 | 1015.8 |
| 20260831090503 | 78 | 48 | 2.6 | 6.1 | 0.00 | 0.00 | 0.00 | 1 | 1015.9 |
| 20260831090403 | 78 | 49 | 3.5 | 6.1 | 0.00 | 0.00 | 0.00 | 1 | 1015.9 |
| 20260831090303 | 78 | 49 | 2.6 | 6.1 | 0.00 | 0.00 | 0.00 | 1 | 1015.9 |
| 20260831090203 | 78 | 49 | 3.5 | 6.1 | 0.00 | 0.00 | 0.00 | 1 | 1015.9 |
| 20260831090124 | 78 | 49 | 3.5 | 6.1 | 0.00 | 0.00 | 0.00 | 1 | 1015.9 |
| 20260831090004 | 78 | 50 | 3.5 | 6.1 | 0.00 | 0.00 | 0.00 | 1 | 1015.9 |
| 20260831085903 | 78 | 50 | 3.5 | 6.1 | 0.00 | 0.00 | 0.00 | 1 | 1015.9 |
| 20260831085803 | 78 | 50 | 2.6 | 6.1 | 0.00 | 0.00 | 0.00 | 1 | 1015.9 |
| 20260831085703 | 78 | 48 | 2.6 | 6.1 | 0.00 | 0.00 | 0.00 | 1 | 1015.9 |
| 20260831085603 | 78 | 51 | 2.6 | 6.1 | 0.00 | 0.00 | 0.00 | 1 | 1015.9 |
| 20260831085503 | 78 | 51 | 2.6 | 6.1 | 0.00 | 0.00 | 0.00 | 1 | 1015.9 |
| 20260831085424 | 78 | 50 | 2.6 | 6.1 | 0.00 | 0.00 | 0.00 | 1 | 1015.9 |
| 20260831085306 | 78 | 49 | 2.6 | 6.1 | 0.00 | 0.00 | 0.00 | 1 | 1015.9 |
| 20260831085224 | 78 | 49 | 2.6 | 6.1 | 0.00 | 0.00 | 0.00 | 1 | 1016.0 |
| 20260831085125 | 78 | 48 | 2.6 | 6.1 | 0.00 | 0.00 | 0.00 | 1 | 1016.0 |
| 20260831085003 | 78 | 47 | 2.6 | 7.0 | 0.00 | 0.00 | 0.00 | 1 | 1016.0 |
| 20260831084903 | 78 | 47 | 2.6 | 7.0 | 0.00 | 0.00 | 0.00 | 1 | 1016.0 |
| 20260831084803 | 78 | 47 | 2.6 | 7.0 | 0.00 | 0.00 | 0.00 | 1 | 1016.1 |
| 20260831084703 | 78 | 47 | 2.6 | 7.0 | 0.00 | 0.00 | 0.00 | 1 | 1016.1 |
| 20260831084605 | 78 | 47 | 3.5 | 7.0 | 0.00 | 0.00 | 0.00 | 1 | 1016.1 |
| 20260831084503 | 78 | 47 | 3.5 | 7.0 | 0.00 | 0.00 | 0.00 | 1 | 1016.0 |
| 20260831084403 | 78 | 45 | 3.5 | 7.0 | 0.00 | 0.00 | 0.00 | 1 | 1016.0 |
| 20260831084303 | 78 | 44 | 3.5 | 7.0 | 0.00 | 0.00 | 0.00 | 1 | 1016.0 |
| 20260831084203 | 78 | 45 | 3.5 | 7.8 | 0.00 | 0.00 | 0.00 | 1 | 1016.0 |
| 20260831084103 | 78 | 45 | 3.5 | 7.8 | 0.00 | 0.00 | 0.00 | 1 | 1016.0 |
| 20260831084003 | 78 | 46 | 3.5 | 7.8 | 0.00 | 0.00 | 0.00 | 1 | 1016.0 |
| 20260831083903 | 78 | 46 | 3.5 | 7.8 | 0.00 | 0.00 | 0.00 | 1 | 1016.0 |
| 20260831083803 | 78 | 45 | 3.5 | 7.8 | 0.00 | 0.00 | 0.00 | 1 | 1016.0 |
| 20260831083704 | 78 | 46 | 3.5 | 7.8 | 0.00 | 0.00 | 0.00 | 1 | 1016.0 |
| 20260831083603 | 78 | 45 | 3.5 | 7.8 | 0.00 | 0.00 | 0.00 | 1 | 1015.9 |
| 20260831083524 | 78 | 45 | 3.5 | 7.8 | 0.00 | 0.00 | 0.00 | 1 | 1016.0 |
| 20260831083424 | 78 | 46 | 3.5 | 7.8 | 0.00 | 0.00 | 0.00 | 1 | 1015.9 |
| 20260831083303 | 79 | 48 | 3.5 | 7.8 | 0.00 | 0.00 | 0.00 | 1 | 1016.0 |
| 20260831083204 | 79 | 47 | 3.5 | 7.0 | 0.00 | 0.00 | 0.00 | 1 | 1016.0 |
| 20260831083104 | 79 | 47 | 3.5 | 7.0 | 0.00 | 0.00 | 0.00 | 1 | 1016.0 |
| 20260831083006 | 79 | 45 | 3.5 | 7.8 | 0.00 | 0.00 | 0.00 | 1 | 1015.9 |
| 20260831082903 | 79 | 45 | 3.5 | 7.8 | 0.00 | 0.00 | 0.00 | 1 | 1015.9 |
| 20260831082824 | 79 | 45 | 3.5 | 7.8 | 0.00 | 0.00 | 0.00 | 1 | 1015.9 |
| 20260831082704 | 79 | 44 | 3.5 | 7.8 | 0.00 | 0.00 | 0.00 | 1 | 1016.0 |
| 20260831082603 | 79 | 44 | 3.5 | 7.8 | 0.00 | 0.00 | 0.00 | 1 | 1016.0 |
| 20260831082503 | 79 | 43 | 3.5 | 7.8 | 0.00 | 0.00 | 0.00 | 1 | 1016.0 |
| 20260831082424 | 79 | 42 | 3.5 | 7.8 | 0.00 | 0.00 | 0.00 | 1 | 1016.0 |
| 20260831082306 | 79 | 44 | 3.5 | 7.8 | 0.00 | 0.00 | 0.00 | 1 | 1016.0 |
| 20260831082203 | 79 | 44 | 3.5 | 7.8 | 0.00 | 0.00 | 0.00 | 1 | 1016.0 |
| 20260831082103 | 79 | 41 | 3.5 | 7.8 | 0.00 | 0.00 | 0.00 | 1 | 1016.1 |
| 20260831082024 | 79 | 39 | 3.5 | 7.0 | 0.00 | 0.00 | 0.00 | 1 | 1016.1 |
| 20260831081903 | 79 | 38 | 3.5 | 7.0 | 0.00 | 0.00 | 0.00 | 1 | 1016.1 |
| 20260831081803 | 79 | 38 | 3.5 | 6.1 | 0.00 | 0.00 | 0.00 | 1 | 1016.1 |
| 20260831081703 | 79 | 34 | 3.5 | 6.1 | 0.00 | 0.00 | 0.00 | 1 | 1016.1 |
| 20260831081603 | 79 | 34 | 3.5 | 6.1 | 0.00 | 0.00 | 0.00 | 1 | 1016.1 |
| 20260831081503 | 79 | 33 | 2.6 | 6.1 | 0.00 | 0.00 | 0.00 | 1 | 1016.1 |
| 20260831081403 | 79 | 32 | 2.6 | 6.1 | 0.00 | 0.00 | 0.00 | 1 | 1016.1 |
| 20260831081303 | 79 | 28 | 2.6 | 6.1 | 0.00 | 0.00 | 0.00 | 1 | 1016.1 |
| 20260831081224 | 79 | 27 | 2.6 | 6.1 | 0.00 | 0.00 | 0.00 | 1 | 1016.1 |
| 20260831081103 | 79 | 27 | 2.6 | 6.1 | 0.00 | 0.00 | 0.00 | 1 | 1016.1 |
| 20260831081024 | 79 | 31 | 2.6 | 7.0 | 0.00 | 0.00 | 0.00 | 1 | 1016.1 |
| 20260831080904 | 79 | 31 | 2.6 | 7.0 | 0.00 | 0.00 | 0.00 | 1 | 1016.1 |
| 20260831080803 | 79 | 32 | 2.6 | 7.0 | 0.00 | 0.00 | 0.00 | 1 | 1016.1 |
| 20260831080703 | 79 | 35 | 2.6 | 7.0 | 0.00 | 0.00 | 0.00 | 1 | 1016.1 |
| 20260831080603 | 79 | 35 | 2.6 | 7.8 | 0.00 | 0.00 | 0.00 | 1 | 1016.0 |
| 20260831080503 | 79 | 30 | 2.6 | 7.8 | 0.00 | 0.00 | 0.00 | 1 | 1016.0 |
| 20260831080403 | 79 | 25 | 2.6 | 7.8 | 0.00 | 0.00 | 0.00 | 1 | 1016.0 |
| 20260831080303 | 79 | 24 | 2.6 | 7.8 | 0.00 | 0.00 | 0.00 | 1 | 1016.0 |
| 20260831080203 | 79 | 23 | 3.5 | 7.8 | 0.00 | 0.00 | 0.00 | 1 | 1016.0 |
| 20260831080004 | 80 | 24 | 2.6 | 7.8 | 0.00 | 0.00 | 0.00 | 1 | 1016.0 |
| 20260831075903 | 80 | 24 | 2.6 | 7.8 | 0.00 | 0.00 | 0.00 | 1 | 1016.0 |
| 20260831075824 | 80 | 23 | 2.6 | 7.8 | 0.00 | 0.00 | 0.00 | 1 | 1016.0 |
| 20260831075724 | 80 | 23 | 2.6 | 7.8 | 0.00 | 0.00 | 0.00 | 1 | 1016.0 |
| 20260831075624 | 80 | 19 | 2.6 | 7.8 | 0.00 | 0.00 | 0.00 | 1 | 1016.0 |
| 20260831075503 | 80 | 17 | 2.6 | 7.8 | 0.00 | 0.00 | 0.00 | 1 | 1016.0 |
| 20260831075404 | 80 | 23 | 3.5 | 7.8 | 0.00 | 0.00 | 0.00 | 1 | 1016.0 |
| 20260831075306 | 80 | 20 | 2.6 | 7.8 | 0.00 | 0.00 | 0.00 | 1 | 1016.1 |
| 20260831075203 | 80 | 20 | 2.6 | 7.0 | 0.00 | 0.00 | 0.00 | 1 | 1016.0 |
| 20260831075124 | 80 | 22 | 2.6 | 7.0 | 0.00 | 0.00 | 0.00 | 1 | 1016.0 |
| 20260831075003 | 80 | 22 | 2.6 | 8.7 | 0.00 | 0.00 | 0.00 | 1 | 1016.0 |
| 20260831074903 | 80 | 23 | 2.6 | 8.7 | 0.00 | 0.00 | 0.00 | 1 | 1016.0 |
| 20260831074825 | 80 | 22 | 2.6 | 8.7 | 0.00 | 0.00 | 0.00 | 1 | 1016.0 |
| 20260831074724 | 80 | 20 | 2.6 | 8.7 | 0.00 | 0.00 | 0.00 | 1 | 1016.1 |
| 20260831074603 | 80 | 26 | 2.6 | 8.7 | 0.00 | 0.00 | 0.00 | 1 | 1016.1 |
| 20260831074524 | 80 | 29 | 2.6 | 8.7 | 0.00 | 0.00 | 0.00 | 1 | 1016.0 |
| 20260831074403 | 80 | 30 | 2.6 | 8.7 | 0.00 | 0.00 | 0.00 | 1 | 1016.1 |
| 20260831074324 | 80 | 32 | 2.6 | 8.7 | 0.00 | 0.00 | 0.00 | 1 | 1016.1 |
| 20260831074224 | 80 | 35 | 2.6 | 8.7 | 0.00 | 0.00 | 0.00 | 1 | 1016.1 |
| 20260831074103 | 80 | 35 | 2.6 | 7.0 | 0.00 | 0.00 | 0.00 | 1 | 1016.1 |
| 20260831074004 | 80 | 35 | 2.6 | 7.0 | 0.00 | 0.00 | 0.00 | 1 | 1016.1 |
| 20260831073903 | 80 | 34 | 2.6 | 7.0 | 0.00 | 0.00 | 0.00 | 1 | 1016.1 |
| 20260831073803 | 80 | 35 | 2.6 | 5.2 | 0.00 | 0.00 | 0.00 | 1 | 1016.1 |
| 20260831073703 | 80 | 36 | 2.6 | 5.2 | 0.00 | 0.00 | 0.00 | 1 | 1016.1 |
| 20260831073603 | 80 | 37 | 2.6 | 5.2 | 0.00 | 0.00 | 0.00 | 1 | 1016.1 |
| 20260831073504 | 80 | 40 | 1.7 | 5.2 | 0.00 | 0.00 | 0.00 | 1 | 1016.1 |
| 20260831073403 | 80 | 41 | 1.7 | 5.2 | 0.00 | 0.00 | 0.00 | 1 | 1016.1 |
| 20260831073303 | 80 | 42 | 1.7 | 5.2 | 0.00 | 0.00 | 0.00 | 1 | 1016.1 |
| 20260831073224 | 80 | 42 | 1.7 | 5.2 | 0.00 | 0.00 | 0.00 | 1 | 1016.1 |
| 20260831073103 | 80 | 42 | 1.7 | 5.2 | 0.00 | 0.00 | 0.00 | 1 | 1016.1 |
| 20260831073004 | 80 | 43 | 1.7 | 5.2 | 0.00 | 0.00 | 0.00 | 1 | 1016.1 |
| 20260831072903 | 80 | 43 | 1.7 | 4.3 | 0.00 | 0.00 | 0.00 | 1 | 1016.1 |
| 20260831072803 | 80 | 42 | 2.6 | 4.3 | 0.00 | 0.00 | 0.00 | 1 | 1016.1 |
| 20260831072703 | 80 | 41 | 2.6 | 4.3 | 0.00 | 0.00 | 0.00 | 1 | 1016.1 |
| 20260831072603 | 80 | 40 | 2.6 | 4.3 | 0.00 | 0.00 | 0.00 | 1 | 1016.1 |
| 20260831072524 | 80 | 39 | 2.6 | 4.3 | 0.00 | 0.00 | 0.00 | 1 | 1016.1 |
| 20260831072403 | 80 | 38 | 2.6 | 5.2 | 0.00 | 0.00 | 0.00 | 1 | 1016.1 |
| 20260831072306 | 80 | 37 | 2.6 | 5.2 | 0.00 | 0.00 | 0.00 | 1 | 1016.1 |
| 20260831072203 | 81 | 37 | 2.6 | 5.2 | 0.00 | 0.00 | 0.00 | 1 | 1016.1 |
| 20260831072103 | 81 | 37 | 2.6 | 5.2 | 0.00 | 0.00 | 0.00 | 1 | 1016.1 |
| 20260831072024 | 81 | 36 | 1.7 | 5.2 | 0.00 | 0.00 | 0.00 | 1 | 1016.1 |
| 20260831071904 | 81 | 36 | 1.7 | 5.2 | 0.00 | 0.00 | 0.00 | 1 | 1016.1 |
| 20260831071803 | 81 | 37 | 1.7 | 5.2 | 0.00 | 0.00 | 0.00 | 1 | 1016.1 |
| 20260831071703 | 81 | 38 | 1.7 | 5.2 | 0.00 | 0.00 | 0.00 | 1 | 1016.0 |
| 20260831071603 | 81 | 39 | 2.6 | 6.1 | 0.00 | 0.00 | 0.00 | 1 | 1016.0 |
| 20260831071503 | 81 | 40 | 2.6 | 6.1 | 0.00 | 0.00 | 0.00 | 1 | 1016.0 |
| 20260831071424 | 81 | 40 | 2.6 | 6.1 | 0.00 | 0.00 | 0.00 | 1 | 1016.0 |
| 20260831071324 | 81 | 39 | 2.6 | 6.1 | 0.00 | 0.00 | 0.00 | 1 | 1016.1 |
| 20260831071203 | 81 | 38 | 2.6 | 6.1 | 0.00 | 0.00 | 0.00 | 1 | 1016.0 |
| 20260831071103 | 81 | 37 | 2.6 | 6.1 | 0.00 | 0.00 | 0.00 | 1 | 1016.0 |
| 20260831071003 | 81 | 37 | 2.6 | 6.1 | 0.00 | 0.00 | 0.00 | 1 | 1016.0 |
| 20260831070903 | 81 | 35 | 2.6 | 6.1 | 0.00 | 0.00 | 0.00 | 1 | 1016.0 |
| 20260831070803 | 81 | 34 | 2.6 | 6.1 | 0.00 | 0.00 | 0.00 | 1 | 1016.0 |
| 20260831070703 | 81 | 32 | 2.6 | 6.1 | 0.00 | 0.00 | 0.00 | 1 | 1016.0 |
| 20260831070605 | 81 | 31 | 1.7 | 6.1 | 0.00 | 0.00 | 0.00 | 1 | 1016.0 |
| 20260831070503 | 81 | 30 | 1.7 | 6.1 | 0.00 | 0.00 | 0.00 | 1 | 1016.0 |
| 20260831070424 | 81 | 30 | 1.7 | 6.1 | 0.00 | 0.00 | 0.00 | 1 | 1016.1 |
| 20260831070324 | 81 | 29 | 1.7 | 6.1 | 0.00 | 0.00 | 0.00 | 1 | 1016.0 |
| 20260831070203 | 81 | 28 | 1.7 | 6.1 | 0.00 | 0.00 | 0.00 | 1 | 1016.0 |
| 20260831070124 | 81 | 27 | 1.7 | 4.3 | 0.00 | 0.00 | 0.00 | 1 | 1016.1 |
| 20260831070003 | 81 | 27 | 1.7 | 5.2 | 0.00 | 0.00 | 0.00 | 1 | 1016.1 |
| 20260831065903 | 81 | 28 | 1.7 | 5.2 | 0.00 | 0.00 | 0.00 | 1 | 1016.1 |
| 20260831065803 | 81 | 28 | 1.7 | 5.2 | 0.00 | 0.00 | 0.00 | 1 | 1016.1 |
| 20260831065703 | 82 | 28 | 1.7 | 5.2 | 0.00 | 0.00 | 0.00 | 1 | 1016.1 |
| 20260831065624 | 82 | 29 | 1.7 | 5.2 | 0.00 | 0.00 | 0.00 | 1 | 1016.1 |
| 20260831065503 | 82 | 29 | 1.7 | 5.2 | 0.00 | 0.00 | 0.00 | 1 | 1016.1 |
| 20260831065404 | 82 | 29 | 1.7 | 5.2 | 0.00 | 0.00 | 0.00 | 1 | 1016.1 |
| 20260831065324 | 82 | 29 | 1.7 | 5.2 | 0.00 | 0.00 | 0.00 | 1 | 1016.1 |
| 20260831065204 | 82 | 30 | 1.7 | 5.2 | 0.00 | 0.00 | 0.00 | 1 | 1016.2 |
| 20260831065124 | 82 | 30 | 1.7 | 5.2 | 0.00 | 0.00 | 0.00 | 1 | 1016.2 |
| 20260831065003 | 82 | 31 | 0.9 | 5.2 | 0.00 | 0.00 | 0.00 | 1 | 1016.2 |
| 20260831064924 | 82 | 31 | 0.9 | 4.3 | 0.00 | 0.00 | 0.00 | 1 | 1016.1 |
| 20260831064803 | 82 | 31 | 0.9 | 3.5 | 0.00 | 0.00 | 0.00 | 1 | 1016.2 |
| 20260831064703 | 82 | 31 | 0.9 | 3.5 | 0.00 | 0.00 | 0.00 | 1 | 1016.1 |
| 20260831064603 | 82 | 30 | 0.9 | 4.3 | 0.00 | 0.00 | 0.00 | 1 | 1016.2 |
| 20260831064503 | 82 | 30 | 0.9 | 4.3 | 0.00 | 0.00 | 0.00 | 1 | 1016.2 |
| 20260831064403 | 82 | 30 | 0.9 | 4.3 | 0.00 | 0.00 | 0.00 | 1 | 1016.2 |
| 20260831064303 | 82 | 30 | 0.9 | 4.3 | 0.00 | 0.00 | 0.00 | 1 | 1016.1 |
| 20260831064203 | 82 | 30 | 0.9 | 4.3 | 0.00 | 0.00 | 0.00 | 1 | 1016.2 |
| 20260831064103 | 82 | 30 | 1.7 | 4.3 | 0.00 | 0.00 | 0.00 | 1 | 1016.2 |
| 20260831064025 | 82 | 30 | 1.7 | 4.3 | 0.00 | 0.00 | 0.00 | 1 | 1016.2 |
| 20260831063903 | 82 | 29 | 1.7 | 4.3 | 0.00 | 0.00 | 0.00 | 1 | 1016.2 |
| 20260831063824 | 82 | 28 | 1.7 | 4.3 | 0.00 | 0.00 | 0.00 | 1 | 1016.3 |
| 20260831063703 | 82 | 26 | 1.7 | 4.3 | 0.00 | 0.00 | 0.00 | 1 | 1016.3 |
| 20260831063603 | 82 | 23 | 1.7 | 6.1 | 0.00 | 0.00 | 0.00 | 1 | 1016.3 |
| 20260831063525 | 82 | 23 | 1.7 | 6.1 | 0.00 | 0.00 | 0.00 | 1 | 1016.2 |
| 20260831063403 | 82 | 22 | 1.7 | 6.1 | 0.00 | 0.00 | 0.00 | 1 | 1016.2 |
| 20260831063303 | 82 | 22 | 1.7 | 6.1 | 0.00 | 0.00 | 0.00 | 1 | 1016.3 |
| 20260831063203 | 82 | 21 | 1.7 | 6.1 | 0.00 | 0.00 | 0.00 | 1 | 1016.3 |
| 20260831063104 | 82 | 19 | 1.7 | 6.1 | 0.00 | 0.00 | 0.00 | 1 | 1016.3 |
| 20260831063024 | 82 | 18 | 1.7 | 6.1 | 0.00 | 0.00 | 0.00 | 1 | 1016.2 |
| 20260831062903 | 83 | 17 | 2.6 | 6.1 | 0.00 | 0.00 | 0.00 | 1 | 1016.2 |
| 20260831062803 | 83 | 19 | 2.6 | 6.1 | 0.00 | 0.00 | 0.00 | 1 | 1016.3 |
| 20260831062703 | 83 | 23 | 2.6 | 6.1 | 0.00 | 0.00 | 0.00 | 1 | 1016.2 |
| 20260831062603 | 83 | 24 | 2.6 | 5.2 | 0.00 | 0.00 | 0.00 | 1 | 1016.2 |
| 20260831062503 | 83 | 24 | 2.6 | 5.2 | 0.00 | 0.00 | 0.00 | 1 | 1016.2 |
| 20260831062403 | 83 | 24 | 2.6 | 5.2 | 0.00 | 0.00 | 0.00 | 1 | 1016.2 |
| 20260831062305 | 83 | 24 | 2.6 | 5.2 | 0.00 | 0.00 | 0.00 | 1 | 1016.2 |
| 20260831062203 | 83 | 25 | 2.6 | 7.0 | 0.00 | 0.00 | 0.00 | 1 | 1016.2 |
| 20260831062103 | 83 | 28 | 2.6 | 7.0 | 0.00 | 0.00 | 0.00 | 1 | 1016.2 |
| 20260831062003 | 83 | 30 | 2.6 | 7.0 | 0.00 | 0.00 | 0.00 | 1 | 1016.2 |
| 20260831061903 | 83 | 32 | 2.6 | 7.0 | 0.00 | 0.00 | 0.00 | 1 | 1016.2 |
| 20260831061824 | 83 | 32 | 2.6 | 7.0 | 0.00 | 0.00 | 0.00 | 1 | 1016.2 |
| 20260831061703 | 83 | 31 | 2.6 | 7.0 | 0.00 | 0.00 | 0.00 | 1 | 1016.2 |
| 20260831061603 | 83 | 33 | 2.6 | 7.0 | 0.00 | 0.00 | 0.00 | 1 | 1016.2 |
| 20260831061504 | 83 | 32 | 2.6 | 7.0 | 0.00 | 0.00 | 0.00 | 1 | 1016.2 |
| 20260831061403 | 83 | 33 | 2.6 | 7.0 | 0.00 | 0.00 | 0.00 | 1 | 1016.2 |
| 20260831061303 | 83 | 33 | 2.6 | 7.0 | 0.00 | 0.00 | 0.00 | 1 | 1016.2 |
| 20260831061204 | 83 | 32 | 2.6 | 7.0 | 0.00 | 0.00 | 0.00 | 1 | 1016.2 |
| 20260831061103 | 83 | 31 | 2.6 | 7.0 | 0.00 | 0.00 | 0.00 | 1 | 1016.2 |
| 20260831061003 | 83 | 33 | 2.6 | 7.0 | 0.00 | 0.00 | 0.00 | 1 | 1016.1 |
| 20260831060924 | 83 | 34 | 2.6 | 7.0 | 0.00 | 0.00 | 0.00 | 1 | 1016.2 |
| 20260831060803 | 83 | 35 | 2.6 | 7.0 | 0.00 | 0.00 | 0.00 | 1 | 1016.2 |
| 20260831060703 | 83 | 32 | 2.6 | 7.0 | 0.00 | 0.00 | 0.00 | 1 | 1016.1 |
| 20260831060603 | 83 | 30 | 2.6 | 7.0 | 0.00 | 0.00 | 0.00 | 1 | 1016.1 |
| 20260831060503 | 83 | 31 | 2.6 | 7.0 | 0.00 | 0.00 | 0.00 | 1 | 1016.1 |
| 20260831060403 | 83 | 31 | 2.6 | 7.0 | 0.00 | 0.00 | 0.00 | 1 | 1016.1 |
| 20260831060303 | 83 | 32 | 2.6 | 7.0 | 0.00 | 0.00 | 0.00 | 1 | 1016.0 |
| 20260831060204 | 83 | 30 | 2.6 | 7.0 | 0.00 | 0.00 | 0.00 | 1 | 1016.0 |
| 20260831060103 | 83 | 26 | 2.6 | 7.0 | 0.00 | 0.00 | 0.00 | 1 | 1016.1 |
| 20260831060003 | 83 | 20 | 2.6 | 7.0 | 0.00 | 0.00 | 0.00 | 1 | 1016.1 |
| 20260831055903 | 84 | 13 | 2.6 | 7.0 | 0.00 | 0.00 | 0.00 | 1 | 1016.0 |
| 20260831055824 | 84 | 7 | 2.6 | 7.0 | 0.00 | 0.00 | 0.00 | 1 | 1016.0 |
| 20260831055703 | 84 | 4 | 2.6 | 7.0 | 0.00 | 0.00 | 0.00 | 1 | 1016.1 |
| 20260831055603 | 84 | 2 | 2.6 | 7.0 | 0.00 | 0.00 | 0.00 | 1 | 1016.1 |
| 20260831055503 | 84 | 357 | 2.6 | 6.1 | 0.00 | 0.00 | 0.00 | 1 | 1016.0 |
| 20260831055405 | 84 | 355 | 2.6 | 6.1 | 0.00 | 0.00 | 0.00 | 1 | 1016.1 |
| 20260831055306 | 84 | 354 | 2.6 | 6.1 | 0.00 | 0.00 | 0.00 | 1 | 1016.1 |
| 20260831055203 | 84 | 355 | 2.6 | 6.1 | 0.00 | 0.00 | 0.00 | 1 | 1016.1 |
| 20260831055103 | 84 | 359 | 2.6 | 6.1 | 0.00 | 0.00 | 0.00 | 1 | 1016.0 |
| 20260831055004 | 84 | 2 | 2.6 | 6.1 | 0.00 | 0.00 | 0.00 | 1 | 1016.0 |
| 20260831054903 | 84 | 7 | 2.6 | 6.1 | 0.00 | 0.00 | 0.00 | 1 | 1016.0 |
| 20260831054824 | 84 | 12 | 1.7 | 6.1 | 0.00 | 0.00 | 0.00 | 1 | 1016.0 |
| 20260831054703 | 84 | 16 | 2.6 | 6.1 | 0.00 | 0.00 | 0.00 | 1 | 1016.0 |
| 20260831054603 | 84 | 20 | 2.6 | 6.1 | 0.00 | 0.00 | 0.00 | 1 | 1016.0 |
| 20260831054503 | 84 | 24 | 2.6 | 5.2 | 0.00 | 0.00 | 0.00 | 1 | 1016.0 |
| 20260831054403 | 84 | 26 | 2.6 | 5.2 | 0.00 | 0.00 | 0.00 | 1 | 1016.0 |
| 20260831054324 | 84 | 29 | 2.6 | 5.2 | 0.00 | 0.00 | 0.00 | 1 | 1016.0 |
| 20260831054225 | 84 | 32 | 2.6 | 5.2 | 0.00 | 0.00 | 0.00 | 1 | 1016.0 |
| 20260831054103 | 84 | 37 | 2.6 | 5.2 | 0.00 | 0.00 | 0.00 | 1 | 1016.0 |
| 20260831054003 | 84 | 42 | 2.6 | 5.2 | 0.00 | 0.00 | 0.00 | 1 | 1016.0 |
| 20260831053903 | 84 | 47 | 2.6 | 5.2 | 0.00 | 0.00 | 0.00 | 1 | 1016.0 |
| 20260831053803 | 84 | 48 | 2.6 | 5.2 | 0.00 | 0.00 | 0.00 | 1 | 1016.0 |
| 20260831053724 | 84 | 45 | 2.6 | 6.1 | 0.00 | 0.00 | 0.00 | 1 | 1016.0 |
| 20260831053603 | 84 | 47 | 2.6 | 6.1 | 0.00 | 0.00 | 0.00 | 1 | 1016.0 |
| 20260831053503 | 84 | 45 | 2.6 | 6.1 | 0.00 | 0.00 | 0.00 | 1 | 1016.0 |
| 20260831053403 | 84 | 41 | 2.6 | 6.1 | 0.00 | 0.00 | 0.00 | 1 | 1016.0 |
| 20260831053324 | 84 | 34 | 2.6 | 6.1 | 0.00 | 0.00 | 0.00 | 1 | 1016.0 |
| 20260831053203 | 84 | 21 | 2.6 | 6.1 | 0.00 | 0.00 | 0.00 | 2 | 1016.0 |
| 20260831053103 | 84 | 18 | 2.6 | 6.1 | 0.00 | 0.00 | 0.00 | 3 | 1015.9 |
| 20260831053003 | 84 | 16 | 2.6 | 6.1 | 0.00 | 0.00 | 0.00 | 3 | 1015.9 |
| 20260831052903 | 84 | 16 | 2.6 | 7.0 | 0.00 | 0.00 | 0.00 | 4 | 1015.9 |
| 20260831052803 | 84 | 16 | 2.6 | 7.8 | 0.00 | 0.00 | 0.00 | 5 | 1015.9 |
| 20260831052703 | 84 | 19 | 2.6 | 7.8 | 0.00 | 0.00 | 0.00 | 6 | 1015.9 |
| 20260831052624 | 84 | 19 | 2.6 | 7.8 | 0.00 | 0.00 | 0.00 | 7 | 1015.9 |
| 20260831052504 | 84 | 22 | 2.6 | 7.8 | 0.00 | 0.00 | 0.00 | 7 | 1015.9 |
| 20260831052403 | 84 | 28 | 2.6 | 7.8 | 0.00 | 0.00 | 0.00 | 8 | 1015.9 |
| 20260831052306 | 84 | 32 | 2.6 | 7.8 | 0.00 | 0.00 | 0.00 | 9 | 1015.9 |
| 20260831052224 | 84 | 33 | 2.6 | 7.8 | 0.00 | 0.00 | 0.00 | 9 | 1015.8 |
| 20260831052103 | 85 | 36 | 2.6 | 7.8 | 0.00 | 0.00 | 0.00 | 11 | 1015.8 |
| 20260831052004 | 85 | 35 | 2.6 | 7.8 | 0.00 | 0.00 | 0.00 | 12 | 1015.8 |
| 20260831051903 | 85 | 32 | 2.6 | 7.8 | 0.00 | 0.00 | 0.00 | 13 | 1015.8 |
| 20260831051804 | 85 | 30 | 2.6 | 7.8 | 0.00 | 0.00 | 0.00 | 13 | 1015.9 |
| 20260831051703 | 85 | 27 | 2.6 | 7.8 | 0.00 | 0.00 | 0.00 | 14 | 1015.8 |
| 20260831051603 | 85 | 21 | 2.6 | 7.8 | 0.00 | 0.00 | 0.00 | 15 | 1015.8 |
| 20260831051503 | 85 | 16 | 3.5 | 7.8 | 0.00 | 0.00 | 0.00 | 16 | 1015.9 |
| 20260831051424 | 85 | 16 | 3.5 | 7.8 | 0.00 | 0.00 | 0.00 | 17 | 1015.8 |
| 20260831051304 | 85 | 10 | 3.5 | 7.8 | 0.00 | 0.00 | 0.00 | 17 | 1015.8 |
| 20260831051203 | 85 | 5 | 3.5 | 7.8 | 0.00 | 0.00 | 0.00 | 18 | 1015.8 |
| 20260831051103 | 85 | 2 | 3.5 | 7.8 | 0.00 | 0.00 | 0.00 | 18 | 1015.8 |
| 20260831051003 | 85 | 355 | 3.5 | 7.8 | 0.00 | 0.00 | 0.00 | 19 | 1015.8 |
| 20260831050924 | 85 | 352 | 3.5 | 7.8 | 0.00 | 0.00 | 0.00 | 19 | 1015.8 |
| 20260831050803 | 85 | 349 | 3.5 | 7.8 | 0.00 | 0.00 | 0.00 | 20 | 1015.8 |
| 20260831050703 | 85 | 354 | 3.5 | 7.8 | 0.00 | 0.00 | 0.00 | 20 | 1015.8 |
| 20260831050603 | 85 | 355 | 3.5 | 7.8 | 0.00 | 0.00 | 0.00 | 21 | 1015.8 |
| 20260831050503 | 85 | 355 | 3.5 | 7.8 | 0.00 | 0.00 | 0.00 | 22 | 1015.8 |
| 20260831050403 | 85 | 350 | 3.5 | 7.8 | 0.00 | 0.00 | 0.00 | 22 | 1015.8 |
| 20260831050303 | 85 | 350 | 3.5 | 7.8 | 0.00 | 0.00 | 0.00 | 23 | 1015.8 |
| 20260831050203 | 85 | 349 | 3.5 | 7.8 | 0.00 | 0.00 | 0.00 | 23 | 1015.8 |
| 20260831050103 | 85 | 347 | 3.5 | 8.7 | 0.00 | 0.00 | 0.00 | 24 | 1015.7 |
| 20260831050003 | 85 | 352 | 3.5 | 8.7 | 0.00 | 0.00 | 0.00 | 24 | 1015.7 |
| 20260831045903 | 85 | 360 | 3.5 | 8.7 | 0.00 | 0.00 | 0.00 | 25 | 1015.7 |
| 20260831045824 | 85 | 4 | 3.5 | 8.7 | 0.00 | 0.00 | 0.00 | 25 | 1015.7 |
| 20260831045704 | 85 | 4 | 3.5 | 8.7 | 0.00 | 0.00 | 0.00 | 26 | 1015.6 |
| 20260831045603 | 85 | 9 | 3.5 | 8.7 | 0.00 | 0.00 | 0.00 | 26 | 1015.6 |
| 20260831045503 | 85 | 14 | 3.5 | 8.7 | 0.00 | 0.00 | 0.00 | 26 | 1015.6 |
| 20260831045403 | 86 | 13 | 3.5 | 8.7 | 0.00 | 0.00 | 0.00 | 27 | 1015.6 |
| 20260831045306 | 86 | 21 | 3.5 | 8.7 | 0.00 | 0.00 | 0.00 | 27 | 1015.6 |
| 20260831045203 | 86 | 23 | 3.5 | 8.7 | 0.00 | 0.00 | 0.00 | 27 | 1015.5 |
| 20260831045103 | 86 | 30 | 3.5 | 8.7 | 0.00 | 0.00 | 0.00 | 28 | 1015.6 |
| 20260831045003 | 86 | 31 | 3.5 | 8.7 | 0.00 | 0.00 | 0.00 | 28 | 1015.5 |
| 20260831044903 | 86 | 30 | 3.5 | 7.0 | 0.00 | 0.00 | 0.00 | 28 | 1015.5 |
| 20260831044803 | 86 | 27 | 3.5 | 7.8 | 0.00 | 0.00 | 0.00 | 28 | 1015.5 |
| 20260831044724 | 86 | 24 | 3.5 | 7.8 | 0.00 | 0.00 | 0.00 | 29 | 1015.5 |
| 20260831044603 | 86 | 23 | 3.5 | 7.8 | 0.00 | 0.00 | 0.00 | 29 | 1015.5 |
| 20260831044503 | 86 | 17 | 3.5 | 7.8 | 0.00 | 0.00 | 0.00 | 29 | 1015.6 |
| 20260831044403 | 86 | 17 | 3.5 | 7.8 | 0.00 | 0.00 | 0.00 | 29 | 1015.6 |
| 20260831044303 | 86 | 11 | 3.5 | 7.8 | 0.00 | 0.00 | 0.00 | 30 | 1015.6 |
| 20260831044203 | 86 | 11 | 3.5 | 7.8 | 0.00 | 0.00 | 0.00 | 30 | 1015.5 |
| 20260831044124 | 86 | 6 | 3.5 | 7.8 | 0.00 | 0.00 | 0.00 | 30 | 1015.6 |
| 20260831044024 | 86 | 358 | 3.5 | 7.8 | 0.00 | 0.00 | 0.00 | 30 | 1015.6 |
| 20260831043903 | 86 | 348 | 3.5 | 7.8 | 0.00 | 0.00 | 0.00 | 30 | 1015.6 |
| 20260831043803 | 86 | 338 | 2.6 | 6.1 | 0.00 | 0.00 | 0.00 | 30 | 1015.6 |
| 20260831043703 | 86 | 334 | 2.6 | 6.1 | 0.00 | 0.00 | 0.00 | 30 | 1015.6 |
| 20260831043624 | 86 | 330 | 2.6 | 6.1 | 0.00 | 0.00 | 0.00 | 31 | 1015.6 |
| 20260831043503 | 86 | 329 | 2.6 | 6.1 | 0.00 | 0.00 | 0.00 | 31 | 1015.6 |
| 20260831043403 | 86 | 331 | 2.6 | 7.0 | 0.00 | 0.00 | 0.00 | 31 | 1015.6 |
| 20260831043303 | 86 | 335 | 2.6 | 7.0 | 0.00 | 0.00 | 0.00 | 31 | 1015.6 |
| 20260831043203 | 86 | 339 | 2.6 | 7.0 | 0.00 | 0.00 | 0.00 | 31 | 1015.6 |
| 20260831043103 | 86 | 347 | 2.6 | 7.0 | 0.00 | 0.00 | 0.00 | 31 | 1015.6 |
| 20260831043024 | 86 | 351 | 2.6 | 7.0 | 0.00 | 0.00 | 0.00 | 32 | 1015.5 |
| 20260831042903 | 86 | 4 | 2.6 | 7.0 | 0.00 | 0.00 | 0.00 | 32 | 1015.5 |
| 20260831042803 | 86 | 14 | 2.6 | 7.0 | 0.00 | 0.00 | 0.00 | 32 | 1015.4 |
| 20260831042703 | 86 | 17 | 2.6 | 7.0 | 0.00 | 0.00 | 0.00 | 32 | 1015.4 |
| 20260831042603 | 86 | 23 | 2.6 | 7.0 | 0.00 | 0.00 | 0.00 | 32 | 1015.4 |
| 20260831042503 | 86 | 25 | 2.6 | 7.0 | 0.00 | 0.00 | 0.00 | 32 | 1015.4 |
| 20260831042403 | 86 | 33 | 2.6 | 7.0 | 0.00 | 0.00 | 0.00 | 33 | 1015.4 |
| 20260831042306 | 86 | 31 | 3.5 | 7.0 | 0.00 | 0.00 | 0.00 | 33 | 1015.5 |
| 20260831042224 | 86 | 29 | 2.6 | 7.0 | 0.00 | 0.00 | 0.00 | 33 | 1015.5 |
| 20260831042103 | 86 | 30 | 3.5 | 7.0 | 0.00 | 0.00 | 0.00 | 33 | 1015.5 |
| 20260831042004 | 86 | 29 | 2.6 | 7.0 | 0.00 | 0.00 | 0.00 | 33 | 1015.5 |
| 20260831041903 | 86 | 23 | 2.6 | 7.0 | 0.00 | 0.00 | 0.00 | 33 | 1015.5 |
| 20260831041825 | 87 | 18 | 2.6 | 7.0 | 0.00 | 0.00 | 0.00 | 33 | 1015.5 |
| 20260831041724 | 87 | 15 | 2.6 | 7.0 | 0.00 | 0.00 | 0.00 | 33 | 1015.5 |
| 20260831041624 | 87 | 12 | 3.5 | 7.0 | 0.00 | 0.00 | 0.00 | 34 | 1015.5 |
| 20260831041503 | 87 | 4 | 3.5 | 8.7 | 0.00 | 0.00 | 0.00 | 34 | 1015.5 |
| 20260831041403 | 87 | 1 | 3.5 | 8.7 | 0.00 | 0.00 | 0.00 | 34 | 1015.6 |
| 20260831041303 | 87 | 1 | 3.5 | 8.7 | 0.00 | 0.00 | 0.00 | 34 | 1015.7 |
| 20260831041203 | 87 | 358 | 3.5 | 8.7 | 0.00 | 0.00 | 0.00 | 34 | 1015.6 |
| 20260831041103 | 87 | 347 | 3.5 | 8.7 | 0.00 | 0.00 | 0.00 | 34 | 1015.6 |
| 20260831041003 | 87 | 349 | 3.5 | 8.7 | 0.00 | 0.00 | 0.00 | 34 | 1015.6 |
| 20260831040903 | 87 | 354 | 3.5 | 8.7 | 0.00 | 0.00 | 0.00 | 34 | 1015.6 |
| 20260831040803 | 87 | 353 | 3.5 | 8.7 | 0.00 | 0.00 | 0.00 | 34 | 1015.6 |
| 20260831040703 | 87 | 351 | 3.5 | 8.7 | 0.00 | 0.00 | 0.00 | 34 | 1015.6 |
| 20260831040603 | 87 | 349 | 3.5 | 8.7 | 0.00 | 0.00 | 0.00 | 34 | 1015.6 |
| 20260831040503 | 87 | 353 | 3.5 | 8.7 | 0.00 | 0.00 | 0.00 | 35 | 1015.6 |
| 20260831040403 | 87 | 354 | 3.5 | 8.7 | 0.00 | 0.00 | 0.00 | 35 | 1015.6 |
| 20260831040303 | 87 | 349 | 3.5 | 8.7 | 0.00 | 0.00 | 0.00 | 35 | 1015.6 |
| 20260831040203 | 87 | 355 | 3.5 | 8.7 | 0.00 | 0.00 | 0.00 | 35 | 1015.6 |
| 20260831040103 | 87 | 4 | 2.6 | 7.0 | 0.00 | 0.00 | 0.00 | 35 | 1015.6 |
| 20260831040003 | 87 | 6 | 2.6 | 7.0 | 0.00 | 0.00 | 0.00 | 35 | 1015.5 |
| 20260831035903 | 87 | 7 | 2.6 | 7.0 | 0.00 | 0.00 | 0.00 | 35 | 1015.6 |
| 20260831035803 | 87 | 7 | 2.6 | 6.1 | 0.00 | 0.00 | 0.00 | 35 | 1015.5 |
| 20260831035703 | 87 | 10 | 2.6 | 6.1 | 0.00 | 0.00 | 0.00 | 35 | 1015.6 |
| 20260831035603 | 87 | 3 | 2.6 | 6.1 | 0.00 | 0.00 | 0.00 | 35 | 1015.6 |
| 20260831035503 | 87 | 359 | 2.6 | 6.1 | 0.00 | 0.00 | 0.00 | 36 | 1015.5 |
| 20260831035403 | 87 | 356 | 2.6 | 6.1 | 0.00 | 0.00 | 0.00 | 36 | 1015.5 |
| 20260831035306 | 87 | 357 | 2.6 | 6.1 | 0.00 | 0.00 | 0.00 | 36 | 1015.5 |
| 20260831035203 | 87 | 351 | 2.6 | 6.1 | 0.00 | 0.00 | 0.00 | 36 | 1015.5 |
| 20260831035103 | 87 | 344 | 2.6 | 5.2 | 0.00 | 0.00 | 0.00 | 36 | 1015.4 |
| 20260831035003 | 87 | 337 | 2.6 | 5.2 | 0.00 | 0.00 | 0.00 | 36 | 1015.4 |
| 20260831034903 | 87 | 330 | 1.7 | 5.2 | 0.00 | 0.00 | 0.00 | 36 | 1015.4 |
| 20260831034803 | 87 | 327 | 1.7 | 5.2 | 0.00 | 0.00 | 0.00 | 36 | 1015.4 |
| 20260831034724 | 87 | 326 | 2.6 | 5.2 | 0.00 | 0.00 | 0.00 | 36 | 1015.4 |
| 20260831034603 | 87 | 329 | 2.6 | 5.2 | 0.00 | 0.00 | 0.00 | 36 | 1015.4 |
| 20260831034503 | 87 | 333 | 2.6 | 5.2 | 0.00 | 0.00 | 0.00 | 36 | 1015.3 |
| 20260831034403 | 87 | 333 | 2.6 | 7.0 | 0.00 | 0.00 | 0.00 | 36 | 1015.4 |
| 20260831034303 | 87 | 330 | 2.6 | 7.0 | 0.00 | 0.00 | 0.00 | 37 | 1015.4 |
| 20260831034203 | 87 | 327 | 2.6 | 7.0 | 0.00 | 0.00 | 0.00 | 37 | 1015.3 |
| 20260831034103 | 87 | 325 | 2.6 | 7.0 | 0.00 | 0.00 | 0.00 | 37 | 1015.4 |
| 20260831034024 | 87 | 324 | 2.6 | 7.0 | 0.00 | 0.00 | 0.00 | 37 | 1015.4 |
| 20260831033903 | 87 | 324 | 2.6 | 7.0 | 0.00 | 0.00 | 0.00 | 37 | 1015.3 |
| 20260831033803 | 87 | 324 | 2.6 | 7.0 | 0.00 | 0.00 | 0.00 | 37 | 1015.3 |
| 20260831033703 | 87 | 325 | 2.6 | 7.0 | 0.00 | 0.00 | 0.00 | 37 | 1015.3 |
| 20260831033603 | 87 | 322 | 2.6 | 7.0 | 0.00 | 0.00 | 0.00 | 37 | 1015.3 |
| 20260831033503 | 87 | 316 | 2.6 | 7.0 | 0.00 | 0.00 | 0.00 | 37 | 1015.3 |
| 20260831033403 | 87 | 308 | 1.7 | 6.1 | 0.00 | 0.00 | 0.00 | 37 | 1015.2 |
| 20260831033303 | 87 | 304 | 1.7 | 6.1 | 0.00 | 0.00 | 0.00 | 37 | 1015.2 |
| 20260831033203 | 87 | 302 | 1.7 | 6.1 | 0.00 | 0.00 | 0.00 | 37 | 1015.3 |
| 20260831033103 | 87 | 298 | 1.7 | 6.1 | 0.00 | 0.00 | 0.00 | 37 | 1015.3 |
| 20260831033003 | 88 | 295 | 1.7 | 6.1 | 0.00 | 0.00 | 0.00 | 38 | 1015.2 |
| 20260831032903 | 88 | 293 | 1.7 | 6.1 | 0.00 | 0.00 | 0.00 | 38 | 1015.2 |
| 20260831032803 | 88 | 288 | 1.7 | 6.1 | 0.00 | 0.00 | 0.00 | 38 | 1015.2 |
| 20260831032703 | 88 | 280 | 1.7 | 4.3 | 0.00 | 0.00 | 0.00 | 38 | 1015.2 |
| 20260831032624 | 88 | 279 | 1.7 | 4.3 | 0.00 | 0.00 | 0.00 | 38 | 1015.2 |
| 20260831032524 | 88 | 278 | 1.7 | 4.3 | 0.00 | 0.00 | 0.00 | 38 | 1015.2 |
| 20260831032403 | 88 | 278 | 1.7 | 4.3 | 0.00 | 0.00 | 0.00 | 38 | 1015.2 |
| 20260831032324 | 88 | 282 | 1.7 | 5.2 | 0.00 | 0.00 | 0.00 | 38 | 1015.2 |
| 20260831032203 | 88 | 286 | 2.6 | 5.2 | 0.00 | 0.00 | 0.00 | 38 | 1015.2 |
| 20260831032103 | 88 | 290 | 2.6 | 5.2 | 0.00 | 0.00 | 0.00 | 38 | 1015.2 |
| 20260831032003 | 88 | 293 | 1.7 | 5.2 | 0.00 | 0.00 | 0.00 | 38 | 1015.2 |
| 20260831031903 | 88 | 296 | 2.6 | 5.2 | 0.00 | 0.00 | 0.00 | 38 | 1015.2 |
| 20260831031803 | 88 | 301 | 2.6 | 5.2 | 0.00 | 0.00 | 0.00 | 38 | 1015.2 |
| 20260831031724 | 88 | 304 | 2.6 | 5.2 | 0.00 | 0.00 | 0.00 | 38 | 1015.2 |
| 20260831031603 | 88 | 309 | 2.6 | 5.2 | 0.00 | 0.00 | 0.00 | 39 | 1015.1 |
| 20260831031503 | 88 | 313 | 2.6 | 5.2 | 0.00 | 0.00 | 0.00 | 39 | 1015.1 |
| 20260831031424 | 88 | 314 | 2.6 | 5.2 | 0.00 | 0.00 | 0.00 | 39 | 1015.1 |
| 20260831031303 | 88 | 315 | 2.6 | 5.2 | 0.00 | 0.00 | 0.00 | 39 | 1015.1 |
| 20260831031203 | 88 | 315 | 2.6 | 5.2 | 0.00 | 0.00 | 0.00 | 39 | 1015.0 |
| 20260831031104 | 88 | 313 | 2.6 | 5.2 | 0.00 | 0.00 | 0.00 | 39 | 1015.0 |
| 20260831031003 | 88 | 314 | 2.6 | 5.2 | 0.00 | 0.00 | 0.00 | 39 | 1015.0 |
| 20260831030903 | 88 | 317 | 2.6 | 5.2 | 0.00 | 0.00 | 0.00 | 39 | 1015.0 |
| 20260831030803 | 88 | 321 | 2.6 | 5.2 | 0.00 | 0.00 | 0.00 | 39 | 1015.0 |
| 20260831030703 | 88 | 320 | 2.6 | 5.2 | 0.00 | 0.00 | 0.00 | 39 | 1015.0 |
| 20260831030603 | 88 | 320 | 2.6 | 5.2 | 0.00 | 0.00 | 0.00 | 39 | 1014.9 |
| 20260831030524 | 88 | 320 | 2.6 | 5.2 | 0.00 | 0.00 | 0.00 | 39 | 1014.9 |
| 20260831030403 | 88 | 321 | 2.6 | 5.2 | 0.00 | 0.00 | 0.00 | 39 | 1015.0 |
| 20260831030303 | 88 | 322 | 2.6 | 6.1 | 0.00 | 0.00 | 0.00 | 39 | 1015.0 |
| 20260831030203 | 88 | 321 | 2.6 | 6.1 | 0.00 | 0.00 | 0.00 | 39 | 1014.9 |
| 20260831030003 | 88 | 325 | 2.6 | 9.6 | 0.00 | 0.00 | 0.00 | 40 | 1014.9 |
| 20260831025903 | 88 | 323 | 2.6 | 9.6 | 0.00 | 0.00 | 0.00 | 40 | 1014.8 |
| 20260831025803 | 88 | 320 | 2.6 | 9.6 | 0.00 | 0.00 | 0.00 | 40 | 1014.8 |
| 20260831025703 | 88 | 321 | 3.5 | 9.6 | 0.00 | 0.00 | 0.00 | 40 | 1014.8 |
| 20260831025603 | 88 | 322 | 3.5 | 9.6 | 0.00 | 0.00 | 0.00 | 40 | 1014.8 |
| 20260831025503 | 88 | 322 | 3.5 | 9.6 | 0.00 | 0.00 | 0.00 | 40 | 1014.7 |
| 20260831025405 | 88 | 320 | 3.5 | 9.6 | 0.00 | 0.00 | 0.00 | 40 | 1014.8 |
| 20260831025306 | 88 | 321 | 3.5 | 9.6 | 0.00 | 0.00 | 0.00 | 40 | 1014.8 |
| 20260831025224 | 88 | 323 | 3.5 | 9.6 | 0.00 | 0.00 | 0.00 | 40 | 1014.8 |
| 20260831025103 | 88 | 318 | 3.5 | 9.6 | 0.00 | 0.00 | 0.00 | 40 | 1014.8 |
| 20260831025003 | 88 | 316 | 3.5 | 9.6 | 0.00 | 0.00 | 0.00 | 40 | 1014.8 |
| 20260831024903 | 88 | 315 | 3.5 | 9.6 | 0.00 | 0.00 | 0.00 | 40 | 1014.8 |
| 20260831024803 | 88 | 314 | 3.5 | 9.6 | 0.00 | 0.00 | 0.00 | 40 | 1014.7 |
| 20260831024724 | 88 | 313 | 3.5 | 9.6 | 0.00 | 0.00 | 0.00 | 40 | 1014.7 |
| 20260831024603 | 88 | 314 | 3.5 | 9.6 | 0.00 | 0.00 | 0.00 | 40 | 1014.7 |
| 20260831024503 | 88 | 314 | 3.5 | 9.6 | 0.00 | 0.00 | 0.00 | 41 | 1014.6 |
| 20260831024424 | 88 | 316 | 3.5 | 9.6 | 0.00 | 0.00 | 0.00 | 41 | 1014.6 |
| 20260831024303 | 88 | 312 | 3.5 | 9.6 | 0.00 | 0.00 | 0.00 | 41 | 1014.7 |
| 20260831024204 | 88 | 308 | 2.6 | 8.7 | 0.00 | 0.00 | 0.00 | 41 | 1014.6 |
| 20260831024103 | 88 | 311 | 2.6 | 8.7 | 0.00 | 0.00 | 0.00 | 41 | 1014.6 |
| 20260831024003 | 88 | 313 | 2.6 | 8.7 | 0.00 | 0.00 | 0.00 | 41 | 1014.6 |
| 20260831023903 | 89 | 314 | 2.6 | 8.7 | 0.00 | 0.00 | 0.00 | 41 | 1014.6 |
| 20260831023803 | 89 | 314 | 3.5 | 8.7 | 0.00 | 0.00 | 0.00 | 41 | 1014.6 |
| 20260831023724 | 89 | 315 | 3.5 | 8.7 | 0.00 | 0.00 | 0.00 | 41 | 1014.5 |
| 20260831023603 | 89 | 311 | 3.5 | 8.7 | 0.00 | 0.00 | 0.00 | 41 | 1014.6 |
| 20260831023503 | 89 | 314 | 3.5 | 8.7 | 0.00 | 0.00 | 0.00 | 41 | 1014.6 |
| 20260831023403 | 89 | 314 | 3.5 | 8.7 | 0.00 | 0.00 | 0.00 | 42 | 1014.5 |
| 20260831023303 | 89 | 317 | 3.5 | 8.7 | 0.00 | 0.00 | 0.00 | 42 | 1014.6 |
| 20260831023203 | 89 | 318 | 4.3 | 8.7 | 0.00 | 0.00 | 0.00 | 42 | 1014.6 |
| 20260831023103 | 89 | 319 | 4.3 | 8.7 | 0.00 | 0.00 | 0.00 | 42 | 1014.5 |
| 20260831023024 | 89 | 319 | 4.3 | 8.7 | 0.00 | 0.00 | 0.00 | 42 | 1014.5 |
| 20260831022903 | 89 | 318 | 3.5 | 8.7 | 0.00 | 0.00 | 0.00 | 42 | 1014.5 |
| 20260831022803 | 89 | 318 | 3.5 | 8.7 | 0.00 | 0.00 | 0.00 | 42 | 1014.5 |
| 20260831022703 | 89 | 319 | 3.5 | 8.7 | 0.00 | 0.00 | 0.00 | 42 | 1014.4 |
| 20260831022603 | 89 | 320 | 3.5 | 8.7 | 0.00 | 0.00 | 0.00 | 42 | 1014.4 |
| 20260831022524 | 89 | 319 | 3.5 | 8.7 | 0.00 | 0.00 | 0.00 | 42 | 1014.4 |
| 20260831022403 | 89 | 316 | 3.5 | 9.6 | 0.00 | 0.00 | 0.00 | 42 | 1014.4 |
| 20260831022306 | 89 | 315 | 3.5 | 9.6 | 0.00 | 0.00 | 0.00 | 42 | 1014.3 |
| 20260831022203 | 89 | 313 | 3.5 | 9.6 | 0.00 | 0.00 | 0.00 | 43 | 1014.4 |
| 20260831022103 | 89 | 309 | 3.5 | 9.6 | 0.00 | 0.00 | 0.00 | 43 | 1014.3 |
| 20260831022003 | 89 | 309 | 3.5 | 9.6 | 0.00 | 0.00 | 0.00 | 43 | 1014.3 |
| 20260831021903 | 89 | 312 | 3.5 | 9.6 | 0.00 | 0.00 | 0.00 | 43 | 1014.2 |
| 20260831021824 | 89 | 316 | 3.5 | 9.6 | 0.00 | 0.00 | 0.00 | 43 | 1014.2 |
| 20260831021703 | 89 | 315 | 3.5 | 9.6 | 0.00 | 0.00 | 0.00 | 43 | 1014.2 |
| 20260831021603 | 89 | 315 | 3.5 | 9.6 | 0.00 | 0.00 | 0.00 | 43 | 1014.2 |
| 20260831021503 | 89 | 317 | 3.5 | 9.6 | 0.00 | 0.00 | 0.00 | 43 | 1014.2 |
| 20260831021403 | 89 | 319 | 3.5 | 10.4 | 0.00 | 0.00 | 0.00 | 44 | 1014.2 |
| 20260831021303 | 89 | 318 | 3.5 | 10.4 | 0.00 | 0.00 | 0.00 | 44 | 1014.2 |
| 20260831021203 | 89 | 323 | 3.5 | 10.4 | 0.00 | 0.00 | 0.00 | 44 | 1014.2 |
| 20260831021124 | 89 | 325 | 3.5 | 10.4 | 0.00 | 0.00 | 0.00 | 44 | 1014.1 |
| 20260831021003 | 90 | 327 | 3.5 | 10.4 | 0.00 | 0.00 | 0.00 | 44 | 1014.1 |
| 20260831020903 | 90 | 324 | 3.5 | 10.4 | 0.00 | 0.00 | 0.00 | 44 | 1014.1 |
| 20260831020803 | 90 | 318 | 4.3 | 10.4 | 0.00 | 0.00 | 0.00 | 45 | 1014.1 |
| 20260831020703 | 90 | 319 | 4.3 | 10.4 | 0.00 | 0.00 | 0.00 | 45 | 1014.1 |
| 20260831020624 | 90 | 320 | 4.3 | 10.4 | 0.00 | 0.00 | 0.00 | 45 | 1014.1 |
| 20260831020503 | 90 | 319 | 4.3 | 10.4 | 0.00 | 0.00 | 0.00 | 45 | 1014.0 |
| 20260831020403 | 90 | 318 | 4.3 | 9.6 | 0.00 | 0.00 | 0.00 | 46 | 1014.1 |
| 20260831020303 | 90 | 317 | 4.3 | 9.6 | 0.00 | 0.00 | 0.00 | 46 | 1014.1 |
| 20260831020203 | 90 | 313 | 3.5 | 8.7 | 0.00 | 0.00 | 0.00 | 46 | 1014.0 |
| 20260831020103 | 90 | 310 | 3.5 | 8.7 | 0.00 | 0.00 | 0.00 | 46 | 1014.0 |
| 20260831020024 | 90 | 310 | 3.5 | 8.7 | 0.00 | 0.00 | 0.00 | 46 | 1014.0 |
| 20260831015903 | 90 | 312 | 3.5 | 8.7 | 0.00 | 0.00 | 0.00 | 46 | 1014.0 |
| 20260831015803 | 90 | 312 | 3.5 | 8.7 | 0.00 | 0.00 | 0.00 | 47 | 1014.0 |
| 20260831015703 | 90 | 314 | 2.6 | 8.7 | 0.00 | 0.00 | 0.00 | 47 | 1013.9 |
| 20260831015624 | 90 | 311 | 2.6 | 8.7 | 0.00 | 0.00 | 0.00 | 47 | 1014.0 |
| 20260831015503 | 90 | 310 | 2.6 | 8.7 | 0.00 | 0.00 | 0.00 | 47 | 1014.0 |
| 20260831015403 | 90 | 310 | 2.6 | 8.7 | 0.00 | 0.00 | 0.00 | 47 | 1013.9 |
| 20260831015305 | 90 | 311 | 2.6 | 8.7 | 0.00 | 0.00 | 0.00 | 47 | 1013.9 |
| 20260831015203 | 90 | 309 | 3.5 | 8.7 | 0.00 | 0.00 | 0.00 | 47 | 1013.9 |
| 20260831015124 | 90 | 309 | 3.5 | 7.8 | 0.00 | 0.00 | 0.00 | 47 | 1013.9 |
| 20260831015003 | 90 | 307 | 3.5 | 15.6 | 0.00 | 0.00 | 0.00 | 47 | 1013.9 |
| 20260831014903 | 90 | 307 | 3.5 | 15.6 | 0.00 | 0.00 | 0.00 | 47 | 1013.8 |
| 20260831014804 | 90 | 304 | 3.5 | 15.6 | 0.00 | 0.00 | 0.00 | 47 | 1013.8 |
| 20260831014703 | 90 | 302 | 3.5 | 15.6 | 0.00 | 0.00 | 0.00 | 47 | 1013.7 |
| 20260831014603 | 90 | 300 | 3.5 | 15.6 | 0.00 | 0.00 | 0.00 | 47 | 1013.7 |
| 20260831014503 | 90 | 300 | 3.5 | 15.6 | 0.00 | 0.00 | 0.00 | 47 | 1013.7 |
| 20260831014404 | 90 | 298 | 3.5 | 15.6 | 0.00 | 0.00 | 0.00 | 47 | 1013.6 |
| 20260831014303 | 90 | 296 | 3.5 | 15.6 | 0.00 | 0.00 | 0.00 | 47 | 1013.7 |
| 20260831014203 | 91 | 294 | 3.5 | 15.6 | 0.00 | 0.00 | 0.00 | 47 | 1013.6 |
| 20260831014103 | 91 | 291 | 3.5 | 15.6 | 0.00 | 0.00 | 0.00 | 47 | 1013.6 |
| 20260831014003 | 91 | 286 | 2.6 | 9.6 | 0.00 | 0.00 | 0.00 | 46 | 1013.6 |
| 20260831013903 | 91 | 281 | 2.6 | 9.6 | 0.00 | 0.00 | 0.00 | 46 | 1013.5 |
| 20260831013803 | 91 | 278 | 2.6 | 9.6 | 0.00 | 0.00 | 0.00 | 46 | 1013.5 |
| 20260831013703 | 91 | 273 | 1.7 | 7.8 | 0.00 | 0.00 | 0.00 | 46 | 1013.6 |
| 20260831013603 | 91 | 270 | 1.7 | 7.8 | 0.00 | 0.00 | 0.00 | 45 | 1013.5 |
| 20260831013505 | 91 | 264 | 1.7 | 7.8 | 0.00 | 0.00 | 0.00 | 45 | 1013.5 |
| 20260831013403 | 91 | 257 | 1.7 | 7.8 | 0.00 | 0.00 | 0.00 | 45 | 1013.5 |
| 20260831013303 | 91 | 255 | 1.7 | 7.8 | 0.00 | 0.00 | 0.00 | 45 | 1013.4 |
| 20260831013203 | 91 | 253 | 1.7 | 4.3 | 0.00 | 0.00 | 0.00 | 44 | 1013.4 |
| 20260831013103 | 91 | 254 | 1.7 | 4.3 | 0.00 | 0.00 | 0.00 | 44 | 1013.3 |
| 20260831013003 | 91 | 254 | 1.7 | 4.3 | 0.00 | 0.00 | 0.00 | 44 | 1013.3 |
| 20260831012903 | 91 | 254 | 1.7 | 4.3 | 0.00 | 0.00 | 0.00 | 44 | 1013.3 |
| 20260831012803 | 91 | 254 | 1.7 | 4.3 | 0.00 | 0.00 | 0.00 | 44 | 1013.3 |
| 20260831012703 | 91 | 255 | 0.9 | 4.3 | 0.00 | 0.00 | 0.00 | 44 | 1013.3 |
| 20260831012603 | 91 | 255 | 0.9 | 4.3 | 0.00 | 0.00 | 0.00 | 44 | 1013.3 |
| 20260831012503 | 91 | 255 | 0.9 | 4.3 | 0.00 | 0.00 | 0.00 | 44 | 1013.3 |
| 20260831012424 | 91 | 255 | 0.9 | 4.3 | 0.00 | 0.00 | 0.00 | 43 | 1013.3 |
| 20260831012324 | 92 | 255 | 0.9 | 3.5 | 0.00 | 0.00 | 0.00 | 43 | 1013.3 |
| 20260831012203 | 92 | 255 | 0.9 | 2.6 | 0.00 | 0.00 | 0.00 | 43 | 1013.3 |
| 20260831012103 | 92 | 255 | 0.9 | 2.6 | 0.00 | 0.00 | 0.00 | 43 | 1013.3 |
| 20260831012003 | 92 | 255 | 0.9 | 2.6 | 0.00 | 0.00 | 0.00 | 43 | 1013.2 |
| 20260831011903 | 92 | 255 | 0.9 | 2.6 | 0.00 | 0.00 | 0.00 | 43 | 1013.3 |
| 20260831011803 | 92 | 255 | 0.9 | 2.6 | 0.00 | 0.00 | 0.00 | 43 | 1013.3 |
| 20260831011703 | 92 | 255 | 0.9 | 2.6 | 0.00 | 0.00 | 0.00 | 43 | 1013.2 |
| 20260831011603 | 92 | 255 | 0.9 | 2.6 | 0.00 | 0.00 | 0.00 | 42 | 1013.2 |
| 20260831011503 | 92 | 255 | 0.9 | 2.6 | 0.00 | 0.00 | 0.00 | 42 | 1013.2 |
| 20260831011424 | 92 | 255 | 0.9 | 2.6 | 0.00 | 0.00 | 0.00 | 42 | 1013.2 |
| 20260831011324 | 92 | 255 | 0.9 | 2.6 | 0.00 | 0.00 | 0.00 | 42 | 1013.2 |
| 20260831011203 | 92 | 255 | 0.9 | 2.6 | 0.00 | 0.00 | 0.00 | 42 | 1013.2 |
| 20260831011103 | 92 | 255 | 0.9 | 2.6 | 0.00 | 0.00 | 0.00 | 42 | 1013.2 |
| 20260831011003 | 92 | 255 | 0.9 | 2.6 | 0.00 | 0.00 | 0.00 | 42 | 1013.2 |
| 20260831010924 | 92 | 255 | 0.9 | 2.6 | 0.00 | 0.00 | 0.00 | 42 | 1013.2 |
| 20260831010803 | 92 | 255 | 0.9 | 2.6 | 0.00 | 0.00 | 0.00 | 42 | 1013.2 |
| 20260831010724 | 93 | 255 | 0.9 | 2.6 | 0.00 | 0.00 | 0.00 | 42 | 1013.2 |
| 20260831010624 | 93 | 255 | 0.9 | 2.6 | 0.00 | 0.00 | 0.00 | 42 | 1013.2 |
| 20260831010503 | 93 | 255 | 0.9 | 2.6 | 0.00 | 0.00 | 0.00 | 42 | 1013.2 |
| 20260831010403 | 93 | 255 | 0.9 | 2.6 | 0.00 | 0.00 | 0.00 | 42 | 1013.2 |
| 20260831010303 | 93 | 255 | 0.9 | 3.5 | 0.00 | 0.00 | 0.00 | 41 | 1013.2 |
| 20260831010203 | 93 | 255 | 0.9 | 3.5 | 0.00 | 0.00 | 0.00 | 41 | 1013.2 |
| 20260831010003 | 93 | 255 | 0.9 | 3.5 | 0.00 | 0.00 | 0.00 | 41 | 1013.2 |
| 20260831005903 | 93 | 255 | 0.9 | 3.5 | 0.00 | 0.00 | 0.00 | 41 | 1013.2 |
| 20260831005803 | 93 | 255 | 0.9 | 3.5 | 0.00 | 0.00 | 0.00 | 41 | 1013.2 |
| 20260831005703 | 93 | 255 | 0.9 | 3.5 | 0.00 | 0.00 | 0.00 | 41 | 1013.1 |
| 20260831005603 | 93 | 255 | 0.9 | 3.5 | 0.00 | 0.00 | 0.00 | 41 | 1013.1 |
| 20260831005503 | 93 | 255 | 0.9 | 3.5 | 0.00 | 0.00 | 0.00 | 41 | 1013.2 |
| 20260831005403 | 94 | 255 | 0.9 | 3.5 | 0.00 | 0.00 | 0.00 | 41 | 1013.2 |
| 20260831005306 | 94 | 255 | 0.9 | 3.5 | 0.00 | 0.00 | 0.00 | 41 | 1013.1 |
| 20260831005203 | 94 | 255 | 0.9 | 3.5 | 0.00 | 0.00 | 0.00 | 41 | 1013.1 |
| 20260831005103 | 94 | 255 | 0.9 | 3.5 | 0.00 | 0.00 | 0.00 | 41 | 1013.1 |
| 20260831005003 | 94 | 255 | 0.9 | 3.5 | 0.00 | 0.00 | 0.00 | 41 | 1013.1 |
| 20260831004903 | 94 | 255 | 0.9 | 3.5 | 0.00 | 0.00 | 0.00 | 40 | 1013.2 |
| 20260831004803 | 94 | 255 | 0.9 | 3.5 | 0.00 | 0.00 | 0.00 | 40 | 1013.2 |
| 20260831004703 | 94 | 255 | 0.9 | 3.5 | 0.00 | 0.00 | 0.00 | 40 | 1013.1 |
| 20260831004624 | 94 | 255 | 0.9 | 2.6 | 0.00 | 0.00 | 0.00 | 40 | 1013.2 |
| 20260831004524 | 94 | 255 | 0.9 | 3.5 | 0.00 | 0.00 | 0.00 | 41 | 1013.1 |
| 20260831004424 | 94 | 255 | 0.9 | 3.5 | 0.00 | 0.00 | 0.00 | 41 | 1013.2 |
| 20260831004303 | 94 | 255 | 0.9 | 3.5 | 0.00 | 0.00 | 0.00 | 40 | 1013.1 |
| 20260831004224 | 94 | 255 | 0.9 | 3.5 | 0.00 | 0.00 | 0.00 | 40 | 1013.1 |
| 20260831004103 | 94 | 255 | 0.9 | 3.5 | 0.00 | 0.00 | 0.00 | 40 | 1013.1 |
| 20260831004003 | 94 | 255 | 0.9 | 3.5 | 0.00 | 0.00 | 0.00 | 40 | 1013.1 |
| 20260831003924 | 94 | 255 | 0.9 | 3.5 | 0.00 | 0.00 | 0.00 | 40 | 1013.1 |
| 20260831003803 | 94 | 255 | 0.9 | 3.5 | 0.00 | 0.00 | 0.00 | 40 | 1013.1 |
| 20260831003703 | 94 | 255 | 0.9 | 3.5 | 0.00 | 0.00 | 0.00 | 40 | 1013.1 |
| 20260831003624 | 95 | 255 | 0.9 | 3.5 | 0.00 | 0.00 | 0.00 | 40 | 1013.1 |
| 20260831003503 | 95 | 255 | 0.9 | 2.6 | 0.00 | 0.00 | 0.00 | 40 | 1013.1 |
| 20260831003403 | 95 | 255 | 0.9 | 2.6 | 0.00 | 0.00 | 0.00 | 40 | 1013.1 |
| 20260831003303 | 95 | 255 | 0.9 | 2.6 | 0.00 | 0.00 | 0.00 | 40 | 1013.1 |
| 20260831003203 | 95 | 255 | 0.9 | 2.6 | 0.00 | 0.00 | 0.00 | 40 | 1013.1 |
| 20260831003103 | 95 | 255 | 0.9 | 2.6 | 0.00 | 0.00 | 0.00 | 40 | 1013.0 |
| 20260831003003 | 95 | 255 | 0.9 | 2.6 | 0.00 | 0.00 | 0.00 | 40 | 1013.0 |
| 20260831002903 | 95 | 255 | 0.9 | 2.6 | 0.00 | 0.00 | 0.00 | 40 | 1013.1 |
| 20260831002803 | 95 | 255 | 0.9 | 2.6 | 0.00 | 0.00 | 0.00 | 40 | 1013.0 |
| 20260831002703 | 95 | 255 | 1.7 | 2.6 | 0.00 | 0.00 | 0.00 | 40 | 1013.0 |
| 20260831002603 | 95 | 255 | 1.7 | 2.6 | 0.00 | 0.00 | 0.00 | 40 | 1013.0 |
| 20260831002503 | 95 | 255 | 1.7 | 2.6 | 0.00 | 0.00 | 0.00 | 40 | 1013.0 |
| 20260831002403 | 95 | 255 | 1.7 | 3.5 | 0.00 | 0.00 | 0.00 | 40 | 1012.9 |
| 20260831002306 | 95 | 255 | 1.7 | 3.5 | 0.00 | 0.00 | 0.00 | 40 | 1013.0 |
| 20260831002203 | 95 | 255 | 1.7 | 4.3 | 0.00 | 0.00 | 0.00 | 40 | 1013.0 |
| 20260831002124 | 95 | 255 | 1.7 | 4.3 | 0.00 | 0.00 | 0.00 | 39 | 1012.9 |
| 20260831002003 | 95 | 254 | 1.7 | 4.3 | 0.00 | 0.00 | 0.00 | 39 | 1013.0 |
| 20260831001924 | 95 | 254 | 1.7 | 4.3 | 0.00 | 0.00 | 0.00 | 39 | 1013.0 |
| 20260831001803 | 95 | 254 | 1.7 | 4.3 | 0.00 | 0.00 | 0.00 | 40 | 1012.9 |
| 20260831001704 | 95 | 254 | 1.7 | 4.3 | 0.00 | 0.00 | 0.00 | 40 | 1012.9 |
| 20260831001603 | 95 | 254 | 1.7 | 4.3 | 0.00 | 0.00 | 0.00 | 40 | 1012.9 |
| 20260831001503 | 95 | 254 | 1.7 | 4.3 | 0.00 | 0.00 | 0.00 | 40 | 1012.9 |
| 20260831001403 | 95 | 254 | 1.7 | 4.3 | 0.00 | 0.00 | 0.00 | 40 | 1012.9 |
| 20260831001303 | 95 | 253 | 1.7 | 4.3 | 0.00 | 0.00 | 0.00 | 40 | 1012.9 |
| 20260831001203 | 95 | 253 | 1.7 | 3.5 | 0.00 | 0.00 | 0.00 | 39 | 1012.9 |
| 20260831001103 | 95 | 254 | 1.7 | 5.2 | 0.00 | 0.00 | 0.00 | 40 | 1012.9 |
| 20260831001003 | 95 | 255 | 1.7 | 5.2 | 0.00 | 0.00 | 0.00 | 40 | 1012.9 |
| 20260831000903 | 95 | 257 | 1.7 | 5.2 | 0.00 | 0.00 | 0.00 | 40 | 1012.9 |
| 20260831000803 | 95 | 258 | 1.7 | 5.2 | 0.00 | 0.00 | 0.00 | 40 | 1012.9 |
| 20260831000703 | 95 | 260 | 0.9 | 5.2 | 0.00 | 0.00 | 0.00 | 40 | 1012.9 |
| 20260831000603 | 95 | 262 | 1.7 | 5.2 | 0.00 | 0.00 | 0.00 | 40 | 1012.9 |
| 20260831000524 | 95 | 262 | 1.7 | 5.2 | 0.00 | 0.00 | 0.00 | 40 | 1012.9 |
| 20260831000403 | 95 | 263 | 1.7 | 5.2 | 0.00 | 0.00 | 0.00 | 40 | 1012.9 |
| 20260831000303 | 95 | 265 | 1.7 | 5.2 | 0.00 | 0.00 | 0.00 | 40 | 1013.0 |
| 20260831000204 | 95 | 267 | 1.7 | 5.2 | 0.00 | 0.00 | 0.00 | 40 | 1012.9 |
| 20260831000103 | 95 | 268 | 1.7 | 4.3 | 0.00 | 0.00 | 0.00 | 40 | 1012.9 |
| 20260831000003 | 95 | 272 | 1.7 | 4.3 | 0.00 | 0.00 | 0.00 | 39 | 1013.0 |
| 20260830235903 | 95 | 273 | 1.7 | 4.3 | 0.00 | 0.00 | 0.00 | 39 | 1013.0 |
| 20260830235803 | 95 | 275 | 1.7 | 4.3 | 0.00 | 0.00 | 0.00 | 39 | 1013.0 |
| 20260830235703 | 95 | 279 | 1.7 | 4.3 | 0.00 | 0.00 | 0.00 | 39 | 1013.0 |
| 20260830235603 | 95 | 284 | 1.7 | 4.3 | 0.00 | 0.00 | 0.00 | 39 | 1013.0 |
| 20260830235506 | 95 | 286 | 1.7 | 4.3 | 0.00 | 0.00 | 0.00 | 39 | 1013.0 |
| 20260830235403 | 95 | 290 | 1.7 | 4.3 | 0.00 | 0.00 | 0.00 | 39 | 1013.0 |
| 20260830235305 | 95 | 290 | 1.7 | 4.3 | 0.00 | 0.00 | 0.00 | 39 | 1013.0 |
| 20260830235203 | 96 | 290 | 1.7 | 4.3 | 0.00 | 0.00 | 0.00 | 39 | 1013.0 |
| 20260830235103 | 96 | 293 | 1.7 | 4.3 | 0.00 | 0.00 | 0.00 | 39 | 1013.0 |
| 20260830235024 | 96 | 291 | 1.7 | 4.3 | 0.00 | 0.00 | 0.00 | 39 | 1013.0 |
| 20260830234903 | 96 | 289 | 1.7 | 4.3 | 0.00 | 0.00 | 0.00 | 39 | 1013.0 |
| 20260830234803 | 96 | 285 | 1.7 | 4.3 | 0.00 | 0.00 | 0.00 | 39 | 1013.0 |
| 20260830234724 | 96 | 283 | 1.7 | 4.3 | 0.00 | 0.00 | 0.00 | 39 | 1013.1 |
| 20260830234604 | 96 | 277 | 1.7 | 4.3 | 0.00 | 0.00 | 0.00 | 38 | 1013.0 |
| 20260830234503 | 96 | 273 | 1.7 | 4.3 | 0.00 | 0.00 | 0.00 | 38 | 1013.1 |
| 20260830234403 | 96 | 266 | 0.9 | 4.3 | 0.00 | 0.00 | 0.00 | 38 | 1013.1 |
| 20260830234303 | 96 | 263 | 0.9 | 3.5 | 0.00 | 0.00 | 0.00 | 39 | 1013.0 |
| 20260830234224 | 96 | 262 | 0.9 | 3.5 | 0.00 | 0.00 | 0.00 | 39 | 1013.0 |
| 20260830234103 | 96 | 262 | 1.7 | 4.3 | 0.00 | 0.00 | 0.00 | 38 | 1013.0 |
| 20260830234003 | 96 | 260 | 1.7 | 4.3 | 0.00 | 0.00 | 0.00 | 38 | 1013.0 |
| 20260830233903 | 96 | 260 | 1.7 | 4.3 | 0.00 | 0.00 | 0.00 | 38 | 1013.1 |
| 20260830233803 | 96 | 260 | 1.7 | 4.3 | 0.00 | 0.00 | 0.00 | 38 | 1013.0 |
| 20260830233703 | 96 | 260 | 1.7 | 5.2 | 0.00 | 0.00 | 0.00 | 38 | 1013.1 |
| 20260830233603 | 97 | 263 | 1.7 | 5.2 | 0.00 | 0.00 | 0.00 | 38 | 1013.1 |
| 20260830233503 | 97 | 269 | 1.7 | 5.2 | 0.00 | 0.00 | 0.00 | 38 | 1013.1 |
| 20260830233403 | 97 | 271 | 1.7 | 5.2 | 0.00 | 0.00 | 0.00 | 38 | 1013.1 |
| 20260830233324 | 96 | 270 | 1.7 | 5.2 | 0.00 | 0.00 | 0.00 | 38 | 1013.1 |
| 20260830233203 | 97 | 271 | 1.7 | 5.2 | 0.00 | 0.00 | 0.00 | 38 | 1013.1 |
| 20260830233103 | 97 | 275 | 1.7 | 5.2 | 0.00 | 0.00 | 0.00 | 38 | 1013.1 |
| 20260830233003 | 97 | 279 | 1.7 | 5.2 | 0.00 | 0.00 | 0.00 | 38 | 1013.1 |
| 20260830232903 | 97 | 287 | 1.7 | 5.2 | 0.00 | 0.00 | 0.00 | 38 | 1013.1 |
| 20260830232803 | 96 | 289 | 1.7 | 5.2 | 0.00 | 0.00 | 0.00 | 38 | 1013.0 |
| 20260830232703 | 96 | 294 | 2.6 | 6.1 | 0.00 | 0.00 | 0.00 | 38 | 1013.0 |
| 20260830232603 | 96 | 293 | 2.6 | 7.8 | 0.00 | 0.00 | 0.00 | 38 | 1013.1 |
| 20260830232524 | 96 | 295 | 2.6 | 7.8 | 0.00 | 0.00 | 0.00 | 38 | 1013.1 |
| 20260830232403 | 96 | 294 | 2.6 | 7.8 | 0.00 | 0.00 | 0.00 | 38 | 1013.1 |
| 20260830232305 | 96 | 299 | 2.6 | 7.8 | 0.00 | 0.00 | 0.00 | 38 | 1013.1 |
| 20260830232203 | 96 | 302 | 2.6 | 7.8 | 0.00 | 0.00 | 0.00 | 38 | 1013.1 |
| 20260830232103 | 97 | 301 | 2.6 | 7.8 | 0.00 | 0.00 | 0.00 | 38 | 1013.0 |
| 20260830232024 | 97 | 300 | 3.5 | 7.8 | 0.00 | 0.00 | 0.00 | 38 | 1013.0 |
| 20260830231903 | 97 | 295 | 3.5 | 7.8 | 0.00 | 0.00 | 0.00 | 37 | 1013.1 |
| 20260830231803 | 97 | 293 | 3.5 | 7.8 | 0.00 | 0.00 | 0.00 | 37 | 1013.0 |
| 20260830231703 | 97 | 288 | 3.5 | 7.8 | 0.00 | 0.00 | 0.00 | 37 | 1013.0 |
| 20260830231603 | 97 | 288 | 3.5 | 7.0 | 0.00 | 0.00 | 0.00 | 37 | 1013.0 |
| 20260830231503 | 97 | 283 | 3.5 | 7.0 | 0.00 | 0.00 | 0.00 | 37 | 1013.0 |
| 20260830231403 | 97 | 286 | 3.5 | 7.0 | 0.00 | 0.00 | 0.00 | 37 | 1013.0 |
| 20260830231303 | 97 | 287 | 3.5 | 8.7 | 0.00 | 0.00 | 0.00 | 37 | 1013.0 |
| 20260830231203 | 98 | 284 | 3.5 | 8.7 | 0.00 | 0.00 | 0.00 | 37 | 1013.1 |
| 20260830231103 | 98 | 284 | 3.5 | 8.7 | 0.00 | 0.00 | 0.00 | 37 | 1013.0 |
| 20260830231003 | 98 | 286 | 3.5 | 8.7 | 0.00 | 0.00 | 0.00 | 37 | 1013.0 |
| 20260830230903 | 98 | 285 | 3.5 | 8.7 | 0.00 | 0.00 | 0.00 | 37 | 1013.0 |
| 20260830230824 | 98 | 285 | 3.5 | 8.7 | 0.00 | 0.00 | 0.00 | 37 | 1013.0 |
| 20260830230724 | 98 | 286 | 3.5 | 8.7 | 0.00 | 0.00 | 0.00 | 37 | 1013.0 |
| 20260830230624 | 98 | 285 | 3.5 | 8.7 | 0.00 | 0.00 | 0.00 | 37 | 1013.0 |
| 20260830230503 | 98 | 286 | 3.5 | 8.7 | 0.00 | 0.00 | 0.00 | 37 | 1013.1 |
| 20260830230403 | 98 | 279 | 3.5 | 8.7 | 0.00 | 0.00 | 0.00 | 37 | 1013.1 |
| 20260830230303 | 98 | 276 | 2.6 | 7.8 | 0.00 | 0.00 | 0.00 | 37 | 1013.0 |
| 20260830230204 | 98 | 273 | 3.5 | 7.0 | 0.00 | 0.00 | 0.00 | 37 | 1013.0 |
| 20260830230103 | 98 | 273 | 2.6 | 7.0 | 0.00 | 0.00 | 0.00 | 37 | 1013.0 |
| 20260830230004 | 98 | 273 | 2.6 | 7.0 | 0.00 | 0.00 | 0.00 | 37 | 1013.0 |
| 20260830225924 | 98 | 273 | 2.6 | 6.1 | 0.00 | 0.00 | 0.00 | 37 | 1013.0 |
| 20260830225803 | 98 | 274 | 2.6 | 6.1 | 0.00 | 0.00 | 0.00 | 37 | 1013.0 |
| 20260830225704 | 98 | 274 | 2.6 | 6.1 | 0.00 | 0.00 | 0.00 | 37 | 1013.0 |
| 20260830225624 | 98 | 275 | 1.7 | 6.1 | 0.00 | 0.00 | 0.00 | 37 | 1013.0 |
| 20260830225505 | 98 | 274 | 1.7 | 5.2 | 0.00 | 0.00 | 0.00 | 37 | 1013.0 |
| 20260830225403 | 98 | 278 | 1.7 | 5.2 | 0.00 | 0.00 | 0.00 | 37 | 1013.0 |
| 20260830225305 | 98 | 280 | 2.6 | 5.2 | 0.00 | 0.00 | 0.00 | 37 | 1013.0 |
| 20260830225203 | 98 | 284 | 1.7 | 5.2 | 0.00 | 0.00 | 0.00 | 37 | 1013.1 |
| 20260830225124 | 98 | 283 | 1.7 | 5.2 | 0.00 | 0.00 | 0.00 | 37 | 1013.1 |
| 20260830225003 | 98 | 281 | 1.7 | 5.2 | 0.00 | 0.00 | 0.00 | 37 | 1013.1 |
| 20260830224903 | 98 | 281 | 2.6 | 6.1 | 0.00 | 0.00 | 0.00 | 37 | 1013.0 |
| 20260830224824 | 98 | 280 | 1.7 | 6.1 | 0.00 | 0.00 | 0.00 | 37 | 1013.0 |
| 20260830224724 | 98 | 280 | 1.7 | 6.1 | 0.00 | 0.00 | 0.00 | 37 | 1013.0 |
| 20260830224624 | 98 | 285 | 2.6 | 6.1 | 0.00 | 0.00 | 0.00 | 37 | 1013.1 |
| 20260830224503 | 98 | 291 | 2.6 | 7.8 | 0.00 | 0.00 | 0.00 | 37 | 1013.1 |
| 20260830224403 | 98 | 300 | 2.6 | 7.8 | 0.00 | 0.00 | 0.00 | 37 | 1013.1 |
| 20260830224303 | 98 | 305 | 2.6 | 7.8 | 0.00 | 0.00 | 0.00 | 37 | 1013.0 |
| 20260830224203 | 98 | 312 | 3.5 | 7.8 | 0.00 | 0.00 | 0.00 | 37 | 1013.0 |
| 20260830224103 | 98 | 315 | 3.5 | 7.8 | 0.00 | 0.00 | 0.00 | 36 | 1013.1 |
| 20260830224003 | 98 | 321 | 3.5 | 7.8 | 0.00 | 0.00 | 0.00 | 37 | 1013.1 |
| 20260830223903 | 98 | 321 | 3.5 | 7.8 | 0.00 | 0.00 | 0.00 | 37 | 1013.1 |
| 20260830223824 | 98 | 319 | 3.5 | 7.8 | 0.00 | 0.00 | 0.00 | 36 | 1013.0 |
| 20260830223703 | 98 | 316 | 3.5 | 7.8 | 0.00 | 0.00 | 0.00 | 36 | 1013.1 |
| 20260830223603 | 98 | 310 | 3.5 | 7.8 | 0.00 | 0.00 | 0.00 | 36 | 1013.1 |
| 20260830223524 | 98 | 307 | 2.6 | 7.0 | 0.00 | 0.00 | 0.00 | 36 | 1013.1 |
| 20260830223424 | 98 | 298 | 2.6 | 7.0 | 0.00 | 0.00 | 0.00 | 36 | 1013.1 |
| 20260830223303 | 98 | 275 | 2.6 | 7.0 | 0.00 | 0.00 | 0.00 | 37 | 1013.1 |
| 20260830223203 | 98 | 266 | 2.6 | 7.0 | 0.00 | 0.00 | 0.00 | 37 | 1013.1 |
| 20260830223103 | 98 | 265 | 2.6 | 7.0 | 0.00 | 0.00 | 0.00 | 37 | 1013.2 |
| 20260830223003 | 98 | 268 | 2.6 | 7.0 | 0.00 | 0.00 | 0.00 | 36 | 1013.2 |
| 20260830222903 | 98 | 271 | 2.6 | 7.0 | 0.00 | 0.00 | 0.00 | 36 | 1013.2 |
| 20260830222803 | 98 | 270 | 2.6 | 7.0 | 0.00 | 0.00 | 0.00 | 37 | 1013.1 |
| 20260830222703 | 97 | 271 | 2.6 | 7.0 | 0.00 | 0.00 | 0.00 | 37 | 1013.1 |
| 20260830222603 | 97 | 270 | 2.6 | 7.0 | 0.00 | 0.00 | 0.00 | 37 | 1013.2 |
| 20260830222503 | 97 | 273 | 2.6 | 7.0 | 0.00 | 0.00 | 0.00 | 37 | 1013.1 |
| 20260830222403 | 97 | 275 | 2.6 | 7.0 | 0.00 | 0.00 | 0.00 | 36 | 1013.1 |
| 20260830222306 | 98 | 283 | 2.6 | 7.0 | 0.00 | 0.00 | 0.00 | 37 | 1013.2 |
| 20260830222224 | 98 | 286 | 2.6 | 7.0 | 0.00 | 0.00 | 0.00 | 36 | 1013.2 |
| 20260830222103 | 97 | 282 | 2.6 | 7.0 | 0.00 | 0.00 | 0.00 | 37 | 1013.2 |
| 20260830222003 | 97 | 276 | 2.6 | 7.0 | 0.00 | 0.00 | 0.00 | 38 | 1013.2 |
| 20260830221903 | 97 | 274 | 2.6 | 7.0 | 0.00 | 0.00 | 0.00 | 37 | 1013.3 |
| 20260830221803 | 97 | 278 | 2.6 | 7.0 | 0.00 | 0.00 | 0.00 | 37 | 1013.2 |
| 20260830221703 | 97 | 280 | 2.6 | 7.0 | 0.00 | 0.00 | 0.00 | 37 | 1013.2 |
| 20260830221603 | 97 | 285 | 1.7 | 7.0 | 0.00 | 0.00 | 0.00 | 37 | 1013.2 |
| 20260830221503 | 97 | 289 | 1.7 | 7.0 | 0.00 | 0.00 | 0.00 | 37 | 1013.2 |
| 20260830221403 | 97 | 292 | 1.7 | 7.0 | 0.00 | 0.00 | 0.00 | 38 | 1013.2 |
| 20260830221303 | 97 | 296 | 1.7 | 7.0 | 0.00 | 0.00 | 0.00 | 38 | 1013.2 |
| 20260830221224 | 97 | 297 | 1.7 | 7.0 | 0.00 | 0.00 | 0.00 | 37 | 1013.2 |
| 20260830221103 | 97 | 307 | 1.7 | 6.1 | 0.00 | 0.00 | 0.00 | 37 | 1013.2 |
| 20260830221003 | 97 | 315 | 1.7 | 6.1 | 0.00 | 0.00 | 0.00 | 37 | 1013.3 |
| 20260830220903 | 97 | 320 | 1.7 | 7.0 | 0.00 | 0.00 | 0.00 | 38 | 1013.3 |
| 20260830220803 | 97 | 320 | 1.7 | 7.0 | 0.00 | 0.00 | 0.00 | 38 | 1013.3 |
| 20260830220703 | 97 | 320 | 1.7 | 7.0 | 0.00 | 0.00 | 0.00 | 38 | 1013.2 |
| 20260830220604 | 97 | 319 | 1.7 | 7.0 | 0.00 | 0.00 | 0.00 | 37 | 1013.3 |
| 20260830220503 | 97 | 318 | 1.7 | 7.0 | 0.00 | 0.00 | 0.00 | 38 | 1013.3 |
| 20260830220424 | 97 | 320 | 2.6 | 7.0 | 0.00 | 0.00 | 0.00 | 38 | 1013.2 |
| 20260830220324 | 97 | 324 | 2.6 | 7.0 | 0.00 | 0.00 | 0.00 | 38 | 1013.2 |
| 20260830220203 | 97 | 322 | 2.6 | 7.0 | 0.00 | 0.00 | 0.00 | 38 | 1013.2 |
| 20260830220024 | 97 | 314 | 2.6 | 7.0 | 0.00 | 0.00 | 0.00 | 38 | 1013.3 |
| 20260830215903 | 97 | 316 | 2.6 | 7.0 | 0.00 | 0.00 | 0.00 | 38 | 1013.3 |
| 20260830215803 | 97 | 327 | 3.5 | 8.7 | 0.00 | 0.00 | 0.00 | 38 | 1013.3 |
| 20260830215703 | 97 | 328 | 3.5 | 8.7 | 0.00 | 0.00 | 0.00 | 38 | 1013.3 |
| 20260830215603 | 97 | 326 | 3.5 | 8.7 | 0.00 | 0.00 | 0.00 | 37 | 1013.3 |
| 20260830215503 | 97 | 325 | 2.6 | 8.7 | 0.00 | 0.00 | 0.00 | 38 | 1013.4 |
| 20260830215403 | 97 | 319 | 2.6 | 8.7 | 0.00 | 0.00 | 0.00 | 37 | 1013.3 |
| 20260830215305 | 97 | 312 | 2.6 | 8.7 | 0.00 | 0.00 | 0.00 | 37 | 1013.4 |
| 20260830215203 | 97 | 319 | 2.6 | 8.7 | 0.00 | 0.00 | 0.00 | 37 | 1013.4 |
| 20260830215124 | 97 | 322 | 3.5 | 8.7 | 0.00 | 0.00 | 0.00 | 37 | 1013.4 |
| 20260830215003 | 97 | 333 | 2.6 | 8.7 | 0.00 | 0.00 | 0.00 | 37 | 1013.4 |
| 20260830214903 | 97 | 328 | 2.6 | 8.7 | 0.00 | 0.00 | 0.00 | 37 | 1013.4 |
| 20260830214824 | 97 | 316 | 2.6 | 8.7 | 0.00 | 0.00 | 0.00 | 38 | 1013.4 |
| 20260830214703 | 97 | 297 | 2.6 | 8.7 | 0.00 | 0.00 | 0.00 | 37 | 1013.4 |
| 20260830214603 | 97 | 299 | 2.6 | 8.7 | 0.00 | 0.00 | 0.00 | 37 | 1013.4 |
| 20260830214503 | 97 | 306 | 2.6 | 8.7 | 0.00 | 0.00 | 0.00 | 37 | 1013.4 |
| 20260830214403 | 97 | 312 | 2.6 | 8.7 | 0.00 | 0.00 | 0.00 | 37 | 1013.5 |
| 20260830214303 | 98 | 324 | 2.6 | 8.7 | 0.00 | 0.00 | 0.00 | 37 | 1013.5 |
| 20260830214224 | 98 | 332 | 2.6 | 8.7 | 0.00 | 0.00 | 0.00 | 36 | 1013.5 |
| 20260830214103 | 98 | 330 | 2.6 | 8.7 | 0.00 | 0.00 | 0.00 | 36 | 1013.4 |
| 20260830214003 | 98 | 357 | 2.6 | 5.2 | 0.00 | 0.00 | 0.00 | 36 | 1013.5 |
| 20260830213903 | 98 | 12 | 2.6 | 5.2 | 0.00 | 0.00 | 0.00 | 36 | 1013.4 |
| 20260830213803 | 98 | 28 | 2.6 | 5.2 | 0.00 | 0.00 | 0.00 | 36 | 1013.4 |
| 20260830213703 | 98 | 34 | 1.7 | 7.8 | 0.00 | 0.00 | 0.00 | 37 | 1013.5 |
| 20260830213624 | 98 | 36 | 1.7 | 7.8 | 0.00 | 0.00 | 0.00 | 37 | 1013.4 |
| 20260830213503 | 98 | 38 | 1.7 | 7.8 | 0.00 | 0.00 | 0.00 | 37 | 1013.5 |
| 20260830213403 | 98 | 38 | 1.7 | 7.8 | 0.00 | 0.00 | 0.00 | 37 | 1013.5 |
| 20260830213324 | 98 | 39 | 1.7 | 7.8 | 0.00 | 0.00 | 0.00 | 37 | 1013.5 |
| 20260830213203 | 97 | 38 | 1.7 | 7.8 | 0.00 | 0.00 | 0.00 | 38 | 1013.5 |
| 20260830213103 | 97 | 27 | 1.7 | 7.8 | 0.00 | 0.00 | 0.00 | 38 | 1013.6 |
| 20260830213003 | 97 | 23 | 1.7 | 7.8 | 0.00 | 0.00 | 0.00 | 38 | 1013.6 |
| 20260830212903 | 97 | 6 | 1.7 | 7.8 | 0.00 | 0.00 | 0.00 | 38 | 1013.6 |
| 20260830212803 | 97 | 339 | 1.7 | 7.8 | 0.00 | 0.00 | 0.00 | 38 | 1013.7 |
| 20260830212724 | 97 | 330 | 1.7 | 7.8 | 0.00 | 0.00 | 0.00 | 38 | 1013.7 |
| 20260830212603 | 96 | 302 | 1.7 | 7.8 | 0.00 | 0.00 | 0.00 | 38 | 1013.8 |
| 20260830212505 | 96 | 286 | 2.6 | 7.8 | 0.00 | 0.00 | 0.00 | 38 | 1013.8 |
| 20260830212403 | 96 | 274 | 2.6 | 7.8 | 0.00 | 0.00 | 0.00 | 38 | 1013.8 |
| 20260830212324 | 96 | 268 | 2.6 | 7.8 | 0.00 | 0.00 | 0.00 | 38 | 1013.8 |
| 20260830212203 | 96 | 269 | 2.6 | 7.8 | 0.00 | 0.00 | 0.00 | 38 | 1013.8 |
| 20260830212103 | 96 | 267 | 2.6 | 7.8 | 0.00 | 0.00 | 0.00 | 39 | 1013.9 |
| 20260830212003 | 96 | 270 | 2.6 | 7.8 | 0.00 | 0.00 | 0.00 | 38 | 1013.8 |
| 20260830211903 | 96 | 285 | 2.6 | 7.8 | 0.00 | 0.00 | 0.00 | 38 | 1013.8 |
| 20260830211803 | 96 | 288 | 3.5 | 7.8 | 0.00 | 0.00 | 0.00 | 39 | 1013.9 |
| 20260830211703 | 96 | 287 | 3.5 | 7.8 | 0.00 | 0.00 | 0.00 | 38 | 1013.9 |
| 20260830211603 | 96 | 296 | 3.5 | 7.8 | 0.00 | 0.00 | 0.00 | 38 | 1013.9 |
| 20260830211503 | 96 | 308 | 3.5 | 7.8 | 0.00 | 0.00 | 0.00 | 38 | 1013.9 |
| 20260830211403 | 96 | 322 | 3.5 | 7.8 | 0.00 | 0.00 | 0.00 | 38 | 1014.0 |
| 20260830211303 | 97 | 339 | 3.5 | 7.8 | 0.00 | 0.00 | 0.00 | 37 | 1013.9 |
| 20260830211224 | 97 | 352 | 3.5 | 7.8 | 0.00 | 0.00 | 0.00 | 37 | 1014.0 |
| 20260830211103 | 97 | 11 | 3.5 | 7.8 | 0.00 | 0.00 | 0.00 | 37 | 1014.0 |
| 20260830211003 | 97 | 11 | 3.5 | 7.8 | 0.00 | 0.00 | 0.00 | 37 | 1014.0 |
| 20260830210903 | 98 | 26 | 2.6 | 7.8 | 0.00 | 0.00 | 0.00 | 37 | 1014.0 |
| 20260830210803 | 98 | 41 | 2.6 | 7.8 | 0.00 | 0.00 | 0.00 | 37 | 1014.0 |
| 20260830210703 | 97 | 45 | 2.6 | 7.8 | 0.00 | 0.00 | 0.00 | 37 | 1014.0 |
| 20260830210603 | 97 | 45 | 2.6 | 7.0 | 0.00 | 0.00 | 0.00 | 37 | 1014.1 |
| 20260830210503 | 97 | 44 | 2.6 | 7.0 | 0.00 | 0.00 | 0.00 | 38 | 1014.1 |
| 20260830210424 | 97 | 44 | 2.6 | 7.0 | 0.00 | 0.00 | 0.00 | 38 | 1014.1 |
| 20260830210303 | 97 | 47 | 2.6 | 7.0 | 0.00 | 0.00 | 0.00 | 37 | 1014.1 |
| 20260830210203 | 96 | 44 | 1.7 | 7.0 | 0.00 | 0.00 | 0.00 | 37 | 1014.1 |
| 20260830210103 | 96 | 44 | 2.6 | 7.0 | 0.00 | 0.00 | 0.00 | 38 | 1014.1 |
| 20260830210003 | 96 | 43 | 2.6 | 7.0 | 0.00 | 0.00 | 0.00 | 38 | 1014.1 |
| 20260830205903 | 96 | 39 | 2.6 | 7.0 | 0.00 | 0.00 | 0.00 | 38 | 1014.2 |
| 20260830205803 | 96 | 33 | 2.6 | 7.0 | 0.00 | 0.00 | 0.00 | 37 | 1014.2 |
| 20260830205703 | 96 | 18 | 2.6 | 7.0 | 0.00 | 0.00 | 0.00 | 38 | 1014.2 |
| 20260830205603 | 96 | 9 | 2.6 | 6.1 | 0.00 | 0.00 | 0.00 | 37 | 1014.2 |
| 20260830205524 | 96 | 2 | 2.6 | 6.1 | 0.00 | 0.00 | 0.00 | 38 | 1014.2 |
| 20260830205424 | 96 | 345 | 2.6 | 6.1 | 0.00 | 0.00 | 0.00 | 38 | 1014.2 |
| 20260830205324 | 96 | 326 | 3.5 | 7.0 | 0.00 | 0.00 | 0.00 | 38 | 1014.3 |
| 20260830205203 | 96 | 311 | 3.5 | 8.7 | 0.00 | 0.00 | 0.00 | 38 | 1014.3 |
| 20260830205103 | 96 | 310 | 3.5 | 8.7 | 0.00 | 0.00 | 0.00 | 38 | 1014.3 |
| 20260830205003 | 96 | 311 | 3.5 | 8.7 | 0.00 | 0.00 | 0.00 | 38 | 1014.3 |
| 20260830204903 | 96 | 316 | 3.5 | 8.7 | 0.00 | 0.00 | 0.00 | 38 | 1014.3 |
| 20260830204803 | 96 | 323 | 4.3 | 8.7 | 0.00 | 0.00 | 0.00 | 38 | 1014.3 |
| 20260830204703 | 96 | 328 | 4.3 | 8.7 | 0.00 | 0.00 | 0.00 | 38 | 1014.4 |
| 20260830204603 | 96 | 338 | 4.3 | 8.7 | 0.00 | 0.00 | 0.00 | 38 | 1014.4 |
| 20260830204503 | 97 | 345 | 4.3 | 8.7 | 0.00 | 0.00 | 0.00 | 38 | 1014.4 |
| 20260830204403 | 97 | 351 | 4.3 | 8.7 | 0.00 | 0.00 | 0.00 | 38 | 1014.4 |
| 20260830204303 | 97 | 354 | 3.5 | 8.7 | 0.00 | 0.00 | 0.00 | 37 | 1014.4 |
| 20260830204203 | 97 | 4 | 3.5 | 8.7 | 0.00 | 0.00 | 0.00 | 37 | 1014.4 |
| 20260830204103 | 97 | 5 | 3.5 | 8.7 | 0.00 | 0.00 | 0.00 | 37 | 1014.4 |
| 20260830204003 | 97 | 354 | 3.5 | 8.7 | 0.00 | 0.00 | 0.00 | 36 | 1014.4 |
| 20260830203903 | 97 | 338 | 3.5 | 8.7 | 0.00 | 0.00 | 0.00 | 37 | 1014.4 |
| 20260830203803 | 97 | 331 | 3.5 | 8.7 | 0.00 | 0.00 | 0.00 | 37 | 1014.4 |
| 20260830203703 | 97 | 322 | 2.6 | 8.7 | 0.00 | 0.00 | 0.00 | 37 | 1014.4 |
| 20260830203603 | 97 | 310 | 2.6 | 8.7 | 0.00 | 0.00 | 0.00 | 37 | 1014.4 |
| 20260830203503 | 97 | 308 | 2.6 | 8.7 | 0.00 | 0.00 | 0.00 | 37 | 1014.4 |
| 20260830203403 | 97 | 309 | 2.6 | 8.7 | 0.00 | 0.00 | 0.00 | 37 | 1014.5 |
| 20260830203303 | 97 | 310 | 3.5 | 8.7 | 0.00 | 0.00 | 0.00 | 37 | 1014.5 |
| 20260830203203 | 97 | 306 | 3.5 | 7.8 | 0.00 | 0.00 | 0.00 | 37 | 1014.5 |
| 20260830203103 | 97 | 304 | 2.6 | 8.7 | 0.00 | 0.00 | 0.00 | 37 | 1014.5 |
| 20260830203024 | 96 | 305 | 2.6 | 8.7 | 0.00 | 0.00 | 0.00 | 37 | 1014.5 |
| 20260830202903 | 96 | 301 | 2.6 | 8.7 | 0.00 | 0.00 | 0.00 | 38 | 1014.5 |
| 20260830202803 | 96 | 302 | 2.6 | 8.7 | 0.00 | 0.00 | 0.00 | 38 | 1014.5 |
| 20260830202703 | 96 | 306 | 2.6 | 8.7 | 0.00 | 0.00 | 0.00 | 38 | 1014.6 |
| 20260830202624 | 96 | 306 | 3.5 | 8.7 | 0.00 | 0.00 | 0.00 | 38 | 1014.5 |
| 20260830202503 | 96 | 309 | 3.5 | 8.7 | 0.00 | 0.00 | 0.00 | 38 | 1014.6 |
| 20260830202403 | 96 | 313 | 3.5 | 8.7 | 0.00 | 0.00 | 0.00 | 38 | 1014.6 |
| 20260830202305 | 96 | 313 | 3.5 | 8.7 | 0.00 | 0.00 | 0.00 | 38 | 1014.7 |
| 20260830202203 | 96 | 310 | 3.5 | 8.7 | 0.00 | 0.00 | 0.00 | 38 | 1014.7 |
| 20260830202103 | 96 | 311 | 3.5 | 8.7 | 0.00 | 0.00 | 0.00 | 38 | 1014.7 |
| 20260830202003 | 96 | 312 | 2.6 | 8.7 | 0.00 | 0.00 | 0.00 | 38 | 1014.7 |
| 20260830201924 | 96 | 314 | 2.6 | 8.7 | 0.00 | 0.00 | 0.00 | 37 | 1014.8 |
| 20260830201803 | 97 | 318 | 2.6 | 8.7 | 0.00 | 0.00 | 0.00 | 38 | 1014.8 |
| 20260830201703 | 97 | 329 | 2.6 | 8.7 | 0.00 | 0.00 | 0.00 | 37 | 1014.8 |
| 20260830201603 | 97 | 330 | 2.6 | 8.7 | 0.00 | 0.00 | 0.00 | 37 | 1014.7 |
| 20260830201503 | 97 | 314 | 2.6 | 8.7 | 0.00 | 0.00 | 0.00 | 37 | 1014.8 |
| 20260830201403 | 97 | 299 | 2.6 | 8.7 | 0.00 | 0.00 | 0.00 | 37 | 1014.8 |
| 20260830201303 | 97 | 298 | 2.6 | 8.7 | 0.00 | 0.00 | 0.00 | 37 | 1014.8 |
| 20260830201203 | 97 | 303 | 2.6 | 8.7 | 0.00 | 0.00 | 0.00 | 36 | 1014.8 |
| 20260830201103 | 97 | 313 | 3.5 | 9.6 | 0.00 | 0.00 | 0.00 | 36 | 1014.8 |
| 20260830201003 | 97 | 325 | 3.5 | 9.6 | 0.00 | 0.00 | 0.00 | 36 | 1014.8 |
| 20260830200903 | 97 | 331 | 4.3 | 9.6 | 0.00 | 0.00 | 0.00 | 37 | 1014.9 |
| 20260830200803 | 97 | 334 | 3.5 | 9.6 | 0.00 | 0.00 | 0.00 | 37 | 1014.9 |
| 20260830200703 | 97 | 328 | 3.5 | 9.6 | 0.00 | 0.00 | 0.00 | 37 | 1014.9 |
| 20260830200624 | 97 | 327 | 3.5 | 9.6 | 0.00 | 0.00 | 0.00 | 36 | 1014.9 |
| 20260830200503 | 97 | 326 | 3.5 | 9.6 | 0.00 | 0.00 | 0.00 | 36 | 1014.9 |
| 20260830200403 | 97 | 323 | 3.5 | 9.6 | 0.00 | 0.00 | 0.00 | 36 | 1015.0 |
| 20260830200303 | 97 | 316 | 3.5 | 9.6 | 0.00 | 0.00 | 0.00 | 36 | 1015.0 |
| 20260830200203 | 97 | 308 | 3.5 | 9.6 | 0.00 | 0.00 | 0.00 | 36 | 1015.0 |
| 20260830200103 | 97 | 294 | 3.5 | 8.7 | 0.00 | 0.00 | 0.00 | 36 | 1015.0 |
| 20260830200024 | 97 | 286 | 3.5 | 8.7 | 0.00 | 0.00 | 0.00 | 36 | 1015.1 |
| 20260830195924 | 96 | 279 | 3.5 | 8.7 | 0.00 | 0.00 | 0.00 | 37 | 1015.0 |
| 20260830195803 | 96 | 276 | 3.5 | 8.7 | 0.00 | 0.00 | 0.00 | 37 | 1015.0 |
| 20260830195703 | 96 | 278 | 3.5 | 8.7 | 0.00 | 0.00 | 0.00 | 37 | 1015.0 |
| 20260830195603 | 96 | 282 | 4.3 | 8.7 | 0.00 | 0.00 | 0.00 | 37 | 1015.1 |
| 20260830195503 | 96 | 291 | 4.3 | 8.7 | 0.00 | 0.00 | 0.00 | 37 | 1015.1 |
| 20260830195403 | 96 | 295 | 4.3 | 8.7 | 0.00 | 0.00 | 0.00 | 37 | 1015.1 |
| 20260830195305 | 96 | 305 | 4.3 | 8.7 | 0.00 | 0.00 | 0.00 | 37 | 1015.1 |
| 20260830195224 | 96 | 316 | 4.3 | 11.3 | 0.00 | 0.00 | 0.00 | 37 | 1015.1 |
| 20260830195103 | 96 | 343 | 4.3 | 11.3 | 0.00 | 0.00 | 0.00 | 37 | 1015.1 |
| 20260830195003 | 96 | 5 | 4.3 | 11.3 | 0.00 | 0.00 | 0.00 | 37 | 1015.1 |
| 20260830194903 | 95 | 27 | 5.2 | 11.3 | 0.00 | 0.00 | 0.00 | 38 | 1015.1 |
| 20260830194824 | 95 | 34 | 5.2 | 11.3 | 0.00 | 0.00 | 0.00 | 37 | 1015.2 |
| 20260830194703 | 95 | 42 | 5.2 | 11.3 | 0.00 | 0.00 | 0.00 | 38 | 1015.2 |
| 20260830194603 | 95 | 47 | 5.2 | 11.3 | 0.00 | 0.00 | 0.00 | 37 | 1015.2 |
| 20260830194503 | 95 | 49 | 5.2 | 11.3 | 0.00 | 0.00 | 0.00 | 37 | 1015.2 |
| 20260830194403 | 95 | 45 | 5.2 | 11.3 | 0.00 | 0.00 | 0.00 | 37 | 1015.2 |
| 20260830194303 | 95 | 45 | 5.2 | 11.3 | 0.00 | 0.00 | 0.00 | 38 | 1015.3 |
| 20260830194203 | 95 | 35 | 5.2 | 11.3 | 0.00 | 0.00 | 0.00 | 38 | 1015.2 |
| 20260830194103 | 95 | 35 | 5.2 | 11.3 | 0.00 | 0.00 | 0.00 | 38 | 1015.2 |
| 20260830194003 | 95 | 29 | 5.2 | 11.3 | 0.00 | 0.00 | 0.00 | 37 | 1015.2 |
| 20260830193903 | 96 | 22 | 5.2 | 11.3 | 0.00 | 0.00 | 0.00 | 37 | 1015.3 |
| 20260830193803 | 96 | 13 | 4.3 | 11.3 | 0.00 | 0.00 | 0.00 | 37 | 1015.3 |
| 20260830193703 | 96 | 9 | 4.3 | 11.3 | 0.00 | 0.00 | 0.00 | 37 | 1015.4 |
| 20260830193603 | 95 | 6 | 4.3 | 11.3 | 0.00 | 0.00 | 0.00 | 37 | 1015.4 |
| 20260830193525 | 95 | 3 | 4.3 | 11.3 | 0.00 | 0.00 | 0.00 | 37 | 1015.4 |
| 20260830193403 | 95 | 9 | 5.2 | 12.2 | 0.00 | 0.00 | 0.00 | 37 | 1015.4 |
| 20260830193303 | 95 | 16 | 5.2 | 12.2 | 0.00 | 0.00 | 0.00 | 37 | 1015.5 |
| 20260830193203 | 96 | 29 | 5.2 | 12.2 | 0.00 | 0.00 | 0.00 | 37 | 1015.5 |
| 20260830193103 | 96 | 30 | 6.1 | 12.2 | 0.00 | 0.00 | 0.00 | 36 | 1015.4 |
| 20260830193003 | 96 | 32 | 6.1 | 13.0 | 0.00 | 0.00 | 0.00 | 36 | 1015.5 |
| 20260830192924 | 96 | 33 | 6.1 | 13.0 | 0.00 | 0.00 | 0.00 | 36 | 1015.5 |
| 20260830192803 | 96 | 32 | 6.1 | 13.0 | 0.00 | 0.00 | 0.00 | 37 | 1015.6 |
| 20260830192703 | 95 | 35 | 6.1 | 13.0 | 0.00 | 0.00 | 0.00 | 37 | 1015.6 |
| 20260830192624 | 95 | 36 | 6.1 | 13.0 | 0.00 | 0.00 | 0.00 | 37 | 1015.6 |
| 20260830192503 | 95 | 41 | 6.1 | 13.0 | 0.00 | 0.00 | 0.00 | 37 | 1015.6 |
| 20260830192403 | 95 | 43 | 6.1 | 13.0 | 0.00 | 0.00 | 0.00 | 37 | 1015.6 |
| 20260830192305 | 95 | 44 | 6.1 | 13.0 | 0.00 | 0.00 | 0.00 | 37 | 1015.5 |
| 20260830192203 | 95 | 38 | 6.1 | 13.0 | 0.00 | 0.00 | 0.00 | 37 | 1015.6 |
| 20260830192103 | 96 | 38 | 5.2 | 13.0 | 0.00 | 0.00 | 0.00 | 36 | 1015.7 |
| 20260830192024 | 96 | 40 | 5.2 | 13.0 | 0.00 | 0.00 | 0.00 | 37 | 1015.7 |
| 20260830191903 | 95 | 41 | 4.3 | 10.4 | 0.00 | 0.00 | 0.00 | 37 | 1015.7 |
| 20260830191803 | 95 | 43 | 4.3 | 10.4 | 0.00 | 0.00 | 0.00 | 36 | 1015.7 |
| 20260830191703 | 96 | 38 | 4.3 | 10.4 | 0.00 | 0.00 | 0.00 | 36 | 1015.7 |
| 20260830191603 | 96 | 33 | 4.3 | 10.4 | 0.00 | 0.00 | 0.00 | 36 | 1015.8 |
| 20260830191503 | 96 | 35 | 3.5 | 10.4 | 0.00 | 0.00 | 0.00 | 36 | 1015.8 |
| 20260830191403 | 96 | 36 | 3.5 | 9.6 | 0.00 | 0.00 | 0.00 | 36 | 1015.9 |
| 20260830191324 | 96 | 35 | 3.5 | 9.6 | 0.00 | 0.00 | 0.00 | 36 | 1015.8 |
| 20260830191203 | 96 | 43 | 3.5 | 9.6 | 0.00 | 0.00 | 0.00 | 36 | 1015.9 |
| 20260830191103 | 96 | 47 | 3.5 | 9.6 | 0.00 | 0.00 | 0.00 | 35 | 1015.9 |
| 20260830191003 | 96 | 52 | 3.5 | 7.8 | 0.00 | 0.00 | 0.00 | 36 | 1015.9 |
| 20260830190903 | 96 | 46 | 3.5 | 7.8 | 0.00 | 0.00 | 0.00 | 36 | 1015.9 |
| 20260830190803 | 96 | 44 | 3.5 | 7.8 | 0.00 | 0.00 | 0.00 | 36 | 1015.9 |
| 20260830190703 | 96 | 50 | 3.5 | 7.0 | 0.00 | 0.00 | 0.00 | 35 | 1016.0 |
| 20260830190603 | 96 | 50 | 3.5 | 7.0 | 0.00 | 0.00 | 0.00 | 35 | 1016.0 |
| 20260830190503 | 96 | 43 | 3.5 | 8.7 | 0.00 | 0.00 | 0.00 | 35 | 1016.0 |
| 20260830190403 | 96 | 36 | 2.6 | 8.7 | 0.00 | 0.00 | 0.00 | 35 | 1016.1 |
| 20260830190303 | 96 | 29 | 2.6 | 8.7 | 0.00 | 0.00 | 0.00 | 35 | 1016.1 |
| 20260830190203 | 96 | 29 | 2.6 | 8.7 | 0.00 | 0.00 | 0.00 | 35 | 1016.1 |
| 20260830190103 | 96 | 27 | 3.5 | 8.7 | 0.00 | 0.00 | 0.00 | 35 | 1016.1 |
| 20260830190003 | 96 | 26 | 3.5 | 8.7 | 0.00 | 0.00 | 0.00 | 35 | 1016.1 |
| 20260830185903 | 96 | 30 | 3.5 | 8.7 | 0.00 | 0.00 | 0.00 | 35 | 1016.2 |
| 20260830185824 | 96 | 31 | 3.5 | 8.7 | 0.00 | 0.00 | 0.00 | 35 | 1016.1 |
| 20260830185703 | 96 | 29 | 3.5 | 8.7 | 0.00 | 0.00 | 0.00 | 35 | 1016.2 |
| 20260830185603 | 95 | 33 | 3.5 | 8.7 | 0.00 | 0.00 | 0.00 | 35 | 1016.1 |
| 20260830185503 | 95 | 28 | 3.5 | 8.7 | 0.00 | 0.00 | 0.00 | 35 | 1016.1 |
| 20260830185403 | 95 | 31 | 4.3 | 8.7 | 0.00 | 0.00 | 0.00 | 35 | 1016.1 |
| 20260830185306 | 95 | 32 | 3.5 | 8.7 | 0.00 | 0.00 | 0.00 | 35 | 1016.1 |
| 20260830185224 | 95 | 28 | 3.5 | 8.7 | 0.00 | 0.00 | 0.00 | 35 | 1016.2 |
| 20260830185124 | 95 | 20 | 3.5 | 8.7 | 0.00 | 0.00 | 0.00 | 35 | 1016.2 |
| 20260830185003 | 95 | 1 | 3.5 | 8.7 | 0.00 | 0.00 | 0.00 | 35 | 1016.1 |
| 20260830184903 | 95 | 338 | 3.5 | 8.7 | 0.00 | 0.00 | 0.00 | 34 | 1016.2 |
| 20260830184805 | 95 | 327 | 3.5 | 8.7 | 0.00 | 0.00 | 0.00 | 34 | 1016.2 |
| 20260830184704 | 95 | 329 | 2.6 | 8.7 | 0.00 | 0.00 | 0.00 | 35 | 1016.2 |
| 20260830184624 | 95 | 325 | 3.5 | 9.6 | 0.00 | 0.00 | 0.00 | 34 | 1016.1 |
| 20260830184503 | 95 | 323 | 2.6 | 9.6 | 0.00 | 0.00 | 0.00 | 34 | 1016.1 |
| 20260830184403 | 95 | 330 | 3.5 | 9.6 | 0.00 | 0.00 | 0.00 | 34 | 1016.2 |
| 20260830184303 | 94 | 346 | 3.5 | 9.6 | 0.00 | 0.00 | 0.00 | 34 | 1016.2 |
| 20260830184203 | 94 | 356 | 3.5 | 9.6 | 0.00 | 0.00 | 0.00 | 34 | 1016.2 |
| 20260830184124 | 94 | 6 | 3.5 | 9.6 | 0.00 | 0.00 | 0.00 | 34 | 1016.3 |
| 20260830184024 | 94 | 13 | 3.5 | 9.6 | 0.00 | 0.00 | 0.00 | 34 | 1016.3 |
| 20260830183924 | 94 | 20 | 3.5 | 9.6 | 0.00 | 0.00 | 0.00 | 34 | 1016.3 |
| 20260830183803 | 94 | 24 | 3.5 | 9.6 | 0.00 | 0.00 | 0.00 | 34 | 1016.3 |
| 20260830183703 | 94 | 16 | 3.5 | 9.6 | 0.00 | 0.00 | 0.00 | 34 | 1016.3 |
| 20260830183624 | 94 | 11 | 3.5 | 8.7 | 0.00 | 0.00 | 0.00 | 34 | 1016.3 |
| 20260830183503 | 94 | 13 | 3.5 | 7.8 | 0.00 | 0.00 | 0.00 | 34 | 1016.3 |
| 20260830183403 | 94 | 10 | 3.5 | 7.8 | 0.00 | 0.00 | 0.00 | 34 | 1016.3 |
| 20260830183303 | 94 | 13 | 3.5 | 7.8 | 0.00 | 0.00 | 0.00 | 34 | 1016.3 |
| 20260830183203 | 94 | 16 | 4.3 | 9.6 | 0.00 | 0.00 | 0.00 | 34 | 1016.3 |
| 20260830183103 | 94 | 15 | 4.3 | 9.6 | 0.00 | 0.00 | 0.00 | 34 | 1016.4 |
| 20260830183003 | 94 | 20 | 4.3 | 9.6 | 0.00 | 0.00 | 0.00 | 34 | 1016.3 |
| 20260830182903 | 93 | 28 | 4.3 | 9.6 | 0.00 | 0.00 | 0.00 | 34 | 1016.4 |
| 20260830182803 | 93 | 34 | 5.2 | 9.6 | 0.00 | 0.00 | 0.00 | 34 | 1016.4 |
| 20260830182724 | 93 | 37 | 5.2 | 9.6 | 0.00 | 0.00 | 0.00 | 34 | 1016.4 |
| 20260830182603 | 93 | 44 | 5.2 | 9.6 | 0.00 | 0.00 | 0.00 | 34 | 1016.5 |
| 20260830182503 | 93 | 47 | 4.3 | 9.6 | 0.00 | 0.00 | 0.00 | 34 | 1016.4 |
| 20260830182403 | 93 | 47 | 5.2 | 9.6 | 0.00 | 0.00 | 0.00 | 34 | 1016.5 |
| 20260830182306 | 92 | 49 | 4.3 | 9.6 | 0.00 | 0.00 | 0.00 | 35 | 1016.5 |
| 20260830182203 | 92 | 53 | 4.3 | 9.6 | 0.00 | 0.00 | 0.00 | 34 | 1016.4 |
| 20260830182124 | 92 | 53 | 4.3 | 9.6 | 0.00 | 0.00 | 0.00 | 34 | 1016.4 |
| 20260830182003 | 92 | 51 | 4.3 | 9.6 | 0.00 | 0.00 | 0.00 | 34 | 1016.5 |
| 20260830181903 | 93 | 48 | 4.3 | 9.6 | 0.00 | 0.00 | 0.00 | 34 | 1016.5 |
| 20260830181803 | 93 | 48 | 4.3 | 8.7 | 0.00 | 0.00 | 0.00 | 34 | 1016.5 |
| 20260830181724 | 93 | 48 | 4.3 | 8.7 | 0.00 | 0.00 | 0.00 | 34 | 1016.5 |
| 20260830181603 | 93 | 43 | 4.3 | 8.7 | 0.00 | 0.00 | 0.00 | 34 | 1016.6 |
| 20260830181503 | 93 | 44 | 4.3 | 8.7 | 0.00 | 0.00 | 0.00 | 34 | 1016.6 |
| 20260830181403 | 93 | 47 | 4.3 | 7.8 | 0.00 | 0.00 | 0.00 | 34 | 1016.6 |
| 20260830181303 | 93 | 45 | 4.3 | 7.8 | 0.00 | 0.00 | 0.00 | 34 | 1016.7 |
| 20260830181224 | 93 | 44 | 4.3 | 7.8 | 0.00 | 0.00 | 0.00 | 33 | 1016.7 |
| 20260830181103 | 93 | 43 | 4.3 | 7.8 | 0.00 | 0.00 | 0.00 | 33 | 1016.7 |
| 20260830181024 | 93 | 43 | 3.5 | 7.8 | 0.00 | 0.00 | 0.00 | 33 | 1016.8 |
| 20260830180903 | 93 | 33 | 3.5 | 7.8 | 0.00 | 0.00 | 0.00 | 33 | 1016.8 |
| 20260830180803 | 93 | 22 | 3.5 | 7.8 | 0.00 | 0.00 | 0.00 | 33 | 1016.9 |
| 20260830180703 | 93 | 19 | 3.5 | 7.8 | 0.00 | 0.00 | 0.00 | 33 | 1016.8 |
| 20260830180603 | 93 | 24 | 3.5 | 7.8 | 0.00 | 0.00 | 0.00 | 33 | 1016.8 |
| 20260830180503 | 93 | 21 | 3.5 | 9.6 | 0.00 | 0.00 | 0.00 | 32 | 1016.8 |
| 20260830180403 | 93 | 22 | 3.5 | 9.6 | 0.00 | 0.00 | 0.00 | 32 | 1016.8 |
| 20260830180303 | 93 | 24 | 4.3 | 9.6 | 0.00 | 0.00 | 0.00 | 32 | 1016.8 |
| 20260830180224 | 93 | 26 | 4.3 | 9.6 | 0.00 | 0.00 | 0.00 | 32 | 1016.9 |
| 20260830180003 | 93 | 31 | 4.3 | 10.4 | 0.00 | 0.00 | 0.00 | 32 | 1016.9 |
| 20260830175903 | 93 | 35 | 4.3 | 10.4 | 0.00 | 0.00 | 0.00 | 32 | 1016.9 |
| 20260830175803 | 92 | 38 | 4.3 | 10.4 | 0.00 | 0.00 | 0.00 | 32 | 1016.9 |
| 20260830175703 | 92 | 46 | 4.3 | 10.4 | 0.00 | 0.00 | 0.00 | 32 | 1017.0 |
| 20260830175603 | 92 | 47 | 4.3 | 10.4 | 0.00 | 0.00 | 0.00 | 32 | 1017.0 |
| 20260830175503 | 92 | 43 | 4.3 | 10.4 | 0.00 | 0.00 | 0.00 | 32 | 1017.1 |
| 20260830175403 | 92 | 45 | 4.3 | 10.4 | 0.00 | 0.00 | 0.00 | 32 | 1017.1 |
| 20260830175305 | 92 | 44 | 4.3 | 10.4 | 0.00 | 0.00 | 0.00 | 32 | 1017.2 |
| 20260830175203 | 92 | 39 | 4.3 | 10.4 | 0.00 | 0.00 | 0.00 | 32 | 1017.2 |
| 20260830175103 | 92 | 39 | 4.3 | 8.7 | 0.00 | 0.00 | 0.00 | 32 | 1017.2 |
| 20260830175003 | 92 | 39 | 4.3 | 8.7 | 0.00 | 0.00 | 0.00 | 31 | 1017.2 |
| 20260830174903 | 92 | 41 | 4.3 | 8.7 | 0.00 | 0.00 | 0.00 | 31 | 1017.2 |
| 20260830174803 | 92 | 45 | 4.3 | 9.6 | 0.00 | 0.00 | 0.00 | 31 | 1017.2 |
| 20260830174703 | 92 | 43 | 4.3 | 9.6 | 0.00 | 0.00 | 0.00 | 31 | 1017.2 |
| 20260830174624 | 92 | 44 | 4.3 | 9.6 | 0.00 | 0.00 | 0.00 | 31 | 1017.3 |
| 20260830174524 | 92 | 47 | 4.3 | 9.6 | 0.00 | 0.00 | 0.00 | 31 | 1017.3 |
| 20260830174403 | 92 | 49 | 4.3 | 9.6 | 0.00 | 0.00 | 0.00 | 30 | 1017.3 |
| 20260830174324 | 92 | 47 | 5.2 | 10.4 | 0.00 | 0.00 | 0.00 | 30 | 1017.3 |
| 20260830174224 | 92 | 48 | 5.2 | 10.4 | 0.00 | 0.00 | 0.00 | 30 | 1017.3 |
| 20260830174103 | 92 | 45 | 5.2 | 10.4 | 0.00 | 0.00 | 0.00 | 31 | 1017.3 |
| 20260830174003 | 92 | 43 | 5.2 | 10.4 | 0.00 | 0.00 | 0.00 | 31 | 1017.3 |
| 20260830173903 | 91 | 43 | 5.2 | 10.4 | 0.00 | 0.00 | 0.00 | 31 | 1017.4 |
| 20260830173803 | 91 | 40 | 5.2 | 10.4 | 0.00 | 0.00 | 0.00 | 31 | 1017.4 |
| 20260830173703 | 92 | 35 | 4.3 | 10.4 | 0.00 | 0.00 | 0.00 | 31 | 1017.4 |
| 20260830173603 | 92 | 34 | 4.3 | 10.4 | 0.00 | 0.00 | 0.00 | 31 | 1017.4 |
| 20260830173524 | 92 | 38 | 5.2 | 10.4 | 0.00 | 0.00 | 0.00 | 31 | 1017.4 |
| 20260830173403 | 92 | 37 | 5.2 | 11.3 | 0.00 | 0.00 | 0.00 | 30 | 1017.5 |
| 20260830173303 | 92 | 36 | 5.2 | 11.3 | 0.00 | 0.00 | 0.00 | 30 | 1017.6 |
| 20260830173203 | 92 | 38 | 4.3 | 11.3 | 0.00 | 0.00 | 0.00 | 30 | 1017.6 |
| 20260830173103 | 92 | 34 | 4.3 | 11.3 | 0.00 | 0.00 | 0.00 | 30 | 1017.6 |
| 20260830173003 | 92 | 25 | 4.3 | 11.3 | 0.00 | 0.00 | 0.00 | 29 | 1017.7 |
| 20260830172903 | 92 | 19 | 4.3 | 11.3 | 0.00 | 0.00 | 0.00 | 29 | 1017.6 |
| 20260830172803 | 92 | 24 | 4.3 | 11.3 | 0.00 | 0.00 | 0.00 | 29 | 1017.6 |